<?xml version='1.0' encoding='UTF-8'?><gpx version="1.1" creator="JPX - https://github.com/jenetics/jpx" xmlns="http://www.topografix.com/GPX/1/1"><trk><trkseg><trkpt lat="43.3760433" lon="11.7879667"><ele>272.0</ele><time>2026-03-24T15:52:06.988Z</time></trkpt><trkpt lat="43.37595" lon="11.78801"><ele>272.0</ele><time>2026-03-24T15:52:07.981Z</time></trkpt><trkpt lat="43.3758783" lon="11.78795"><ele>272.0</ele><time>2026-03-24T15:52:12.297Z</time></trkpt><trkpt lat="43.3759483" lon="11.7879283"><ele>272.0</ele><time>2026-03-24T15:52:19.295Z</time></trkpt><trkpt lat="43.3760017" lon="11.7879767"><ele>272.0</ele><time>2026-03-24T15:52:24.297Z</time></trkpt><trkpt lat="43.3760083" lon="11.787885"><ele>272.0</ele><time>2026-03-24T15:56:20.298Z</time></trkpt><trkpt lat="43.37598" lon="11.7878"><ele>271.99999999999994</ele><time>2026-03-24T15:56:24.299Z</time></trkpt><trkpt lat="43.3759233" lon="11.7877383"><ele>272.0</ele><time>2026-03-24T15:56:29.298Z</time></trkpt><trkpt lat="43.3758517" lon="11.7877317"><ele>272.0</ele><time>2026-03-24T15:56:34.298Z</time></trkpt><trkpt lat="43.3757767" lon="11.7877283"><ele>272.0</ele><time>2026-03-24T15:56:39.298Z</time></trkpt><trkpt lat="43.3757133" lon="11.7877117"><ele>272.0</ele><time>2026-03-24T15:56:43.296Z</time></trkpt><trkpt lat="43.3756433" lon="11.7876633"><ele>271.99999999999994</ele><time>2026-03-24T15:56:48.298Z</time></trkpt><trkpt lat="43.37559" lon="11.7876017"><ele>272.0</ele><time>2026-03-24T15:56:53.298Z</time></trkpt><trkpt lat="43.3755117" lon="11.7875533"><ele>272.4285714285714</ele><time>2026-03-24T15:57:14.302Z</time></trkpt><trkpt lat="43.3754833" lon="11.7874683"><ele>272.85714285714283</ele><time>2026-03-24T15:57:21.303Z</time></trkpt><trkpt lat="43.3754733" lon="11.7873633"><ele>273.2857142857143</ele><time>2026-03-24T15:57:26.299Z</time></trkpt><trkpt lat="43.375465" lon="11.787255"><ele>273.71428571428567</ele><time>2026-03-24T15:57:30.299Z</time></trkpt><trkpt lat="43.3754683" lon="11.78716"><ele>274.1428571428571</ele><time>2026-03-24T15:57:33.299Z</time></trkpt><trkpt lat="43.37546" lon="11.787065"><ele>274.57142857142856</ele><time>2026-03-24T15:57:36.298Z</time></trkpt><trkpt lat="43.375465" lon="11.7869633"><ele>275.0</ele><time>2026-03-24T15:57:39.301Z</time></trkpt><trkpt lat="43.37546" lon="11.78687"><ele>275.1666666666667</ele><time>2026-03-24T15:57:42.298Z</time></trkpt><trkpt lat="43.3754617" lon="11.786775"><ele>275.33333333333337</ele><time>2026-03-24T15:57:46.301Z</time></trkpt><trkpt lat="43.3754667" lon="11.78668"><ele>275.5</ele><time>2026-03-24T15:57:51.302Z</time></trkpt><trkpt lat="43.3755" lon="11.7865783"><ele>275.6666666666667</ele><time>2026-03-24T15:57:56.298Z</time></trkpt><trkpt lat="43.375555" lon="11.786515"><ele>275.8333333333333</ele><time>2026-03-24T15:57:59.296Z</time></trkpt><trkpt lat="43.3756217" lon="11.7864517"><ele>276.0</ele><time>2026-03-24T15:58:02.299Z</time></trkpt><trkpt lat="43.3756983" lon="11.7863667"><ele>275.8571428571429</ele><time>2026-03-24T15:58:05.299Z</time></trkpt><trkpt lat="43.3757517" lon="11.78631"><ele>275.7142857142857</ele><time>2026-03-24T15:58:07.302Z</time></trkpt><trkpt lat="43.375805" lon="11.7862467"><ele>275.57142857142856</ele><time>2026-03-24T15:58:09.3Z</time></trkpt><trkpt lat="43.3758617" lon="11.7861867"><ele>275.42857142857144</ele><time>2026-03-24T15:58:11.299Z</time></trkpt><trkpt lat="43.3759133" lon="11.7861217"><ele>275.2857142857143</ele><time>2026-03-24T15:58:13.298Z</time></trkpt><trkpt lat="43.37597" lon="11.7860517"><ele>275.14285714285717</ele><time>2026-03-24T15:58:15.299Z</time></trkpt><trkpt lat="43.3760383" lon="11.7860117"><ele>275.0</ele><time>2026-03-24T15:58:17.296Z</time></trkpt><trkpt lat="43.376105" lon="11.78601"><ele>275.0</ele><time>2026-03-24T15:58:19.298Z</time></trkpt><trkpt lat="43.37618" lon="11.7860033"><ele>275.0</ele><time>2026-03-24T15:58:21.299Z</time></trkpt><trkpt lat="43.3762567" lon="11.7859867"><ele>275.0</ele><time>2026-03-24T15:58:23.298Z</time></trkpt><trkpt lat="43.37633" lon="11.7859733"><ele>275.0</ele><time>2026-03-24T15:58:25.3Z</time></trkpt><trkpt lat="43.37641" lon="11.7859583"><ele>275.0</ele><time>2026-03-24T15:58:27.298Z</time></trkpt><trkpt lat="43.37649" lon="11.7859433"><ele>275.0</ele><time>2026-03-24T15:58:29.298Z</time></trkpt><trkpt lat="43.376565" lon="11.7859283"><ele>275.42857142857144</ele><time>2026-03-24T15:58:31.297Z</time></trkpt><trkpt lat="43.3766417" lon="11.78592"><ele>275.85714285714283</ele><time>2026-03-24T15:58:33.298Z</time></trkpt><trkpt lat="43.3767183" lon="11.7859117"><ele>276.2857142857143</ele><time>2026-03-24T15:58:35.299Z</time></trkpt><trkpt lat="43.37679" lon="11.785905"><ele>276.7142857142857</ele><time>2026-03-24T15:58:37.301Z</time></trkpt><trkpt lat="43.37686" lon="11.7859033"><ele>277.14285714285717</ele><time>2026-03-24T15:58:39.298Z</time></trkpt><trkpt lat="43.3769317" lon="11.7858967"><ele>277.57142857142856</ele><time>2026-03-24T15:58:41.298Z</time></trkpt><trkpt lat="43.3770067" lon="11.7858833"><ele>278.0</ele><time>2026-03-24T15:58:43.298Z</time></trkpt><trkpt lat="43.37708" lon="11.78587"><ele>278.0</ele><time>2026-03-24T15:58:45.301Z</time></trkpt><trkpt lat="43.3771483" lon="11.7858533"><ele>278.0</ele><time>2026-03-24T15:58:47.3Z</time></trkpt><trkpt lat="43.3772117" lon="11.7858267"><ele>278.0</ele><time>2026-03-24T15:58:49.299Z</time></trkpt><trkpt lat="43.377275" lon="11.7858133"><ele>278.0</ele><time>2026-03-24T15:58:51.303Z</time></trkpt><trkpt lat="43.3773633" lon="11.785785"><ele>278.0</ele><time>2026-03-24T15:58:54.297Z</time></trkpt><trkpt lat="43.3774267" lon="11.785755"><ele>278.0</ele><time>2026-03-24T15:58:56.295Z</time></trkpt><trkpt lat="43.3774983" lon="11.7857217"><ele>278.0</ele><time>2026-03-24T15:58:58.299Z</time></trkpt><trkpt lat="43.3775617" lon="11.7857"><ele>277.85714285714283</ele><time>2026-03-24T15:59:00.301Z</time></trkpt><trkpt lat="43.377625" lon="11.7856717"><ele>277.7142857142857</ele><time>2026-03-24T15:59:02.297Z</time></trkpt><trkpt lat="43.377685" lon="11.7856433"><ele>277.57142857142856</ele><time>2026-03-24T15:59:04.302Z</time></trkpt><trkpt lat="43.3777517" lon="11.7856117"><ele>277.42857142857144</ele><time>2026-03-24T15:59:06.298Z</time></trkpt><trkpt lat="43.37782" lon="11.7855833"><ele>277.2857142857143</ele><time>2026-03-24T15:59:08.299Z</time></trkpt><trkpt lat="43.3778917" lon="11.7855567"><ele>277.1428571428571</ele><time>2026-03-24T15:59:10.297Z</time></trkpt><trkpt lat="43.37796" lon="11.7855367"><ele>277.0</ele><time>2026-03-24T15:59:12.301Z</time></trkpt><trkpt lat="43.3780317" lon="11.78553"><ele>276.8333333333333</ele><time>2026-03-24T15:59:14.299Z</time></trkpt><trkpt lat="43.3781067" lon="11.7855233"><ele>276.66666666666663</ele><time>2026-03-24T15:59:16.298Z</time></trkpt><trkpt lat="43.3781833" lon="11.78551"><ele>276.5</ele><time>2026-03-24T15:59:18.299Z</time></trkpt><trkpt lat="43.3782583" lon="11.785505"><ele>276.3333333333333</ele><time>2026-03-24T15:59:20.299Z</time></trkpt><trkpt lat="43.3783333" lon="11.7854983"><ele>276.1666666666667</ele><time>2026-03-24T15:59:22.3Z</time></trkpt><trkpt lat="43.3784067" lon="11.7854867"><ele>276.0</ele><time>2026-03-24T15:59:24.301Z</time></trkpt><trkpt lat="43.37848" lon="11.7854817"><ele>276.0</ele><time>2026-03-24T15:59:26.296Z</time></trkpt><trkpt lat="43.3785583" lon="11.7854733"><ele>276.0</ele><time>2026-03-24T15:59:28.3Z</time></trkpt><trkpt lat="43.3786383" lon="11.7854667"><ele>276.0</ele><time>2026-03-24T15:59:30.299Z</time></trkpt><trkpt lat="43.3787183" lon="11.7854617"><ele>276.0</ele><time>2026-03-24T15:59:32.299Z</time></trkpt><trkpt lat="43.3787917" lon="11.785455"><ele>276.0</ele><time>2026-03-24T15:59:34.298Z</time></trkpt><trkpt lat="43.3788633" lon="11.7854467"><ele>276.0</ele><time>2026-03-24T15:59:36.298Z</time></trkpt><trkpt lat="43.3789417" lon="11.7854383"><ele>275.8333333333333</ele><time>2026-03-24T15:59:38.298Z</time></trkpt><trkpt lat="43.3790167" lon="11.78543"><ele>275.6666666666667</ele><time>2026-03-24T15:59:40.298Z</time></trkpt><trkpt lat="43.3790983" lon="11.7854283"><ele>275.5</ele><time>2026-03-24T15:59:42.299Z</time></trkpt><trkpt lat="43.37918" lon="11.7854183"><ele>275.33333333333337</ele><time>2026-03-24T15:59:44.299Z</time></trkpt><trkpt lat="43.37926" lon="11.7854117"><ele>275.1666666666667</ele><time>2026-03-24T15:59:46.299Z</time></trkpt><trkpt lat="43.3793417" lon="11.7854033"><ele>275.0</ele><time>2026-03-24T15:59:48.3Z</time></trkpt><trkpt lat="43.3794267" lon="11.7853833"><ele>275.0</ele><time>2026-03-24T15:59:50.298Z</time></trkpt><trkpt lat="43.3795067" lon="11.7853733"><ele>275.0</ele><time>2026-03-24T15:59:52.297Z</time></trkpt><trkpt lat="43.3795817" lon="11.785375"><ele>275.0</ele><time>2026-03-24T15:59:54.299Z</time></trkpt><trkpt lat="43.3796583" lon="11.785375"><ele>275.0</ele><time>2026-03-24T15:59:56.299Z</time></trkpt><trkpt lat="43.3797367" lon="11.7853783"><ele>275.0</ele><time>2026-03-24T15:59:58.301Z</time></trkpt><trkpt lat="43.379815" lon="11.7853767"><ele>275.0</ele><time>2026-03-24T16:00:00.299Z</time></trkpt><trkpt lat="43.379895" lon="11.78537"><ele>274.83333333333337</ele><time>2026-03-24T16:00:02.3Z</time></trkpt><trkpt lat="43.3799767" lon="11.7853633"><ele>274.6666666666667</ele><time>2026-03-24T16:00:04.298Z</time></trkpt><trkpt lat="43.3800583" lon="11.7853567"><ele>274.5</ele><time>2026-03-24T16:00:06.297Z</time></trkpt><trkpt lat="43.3801383" lon="11.785345"><ele>274.3333333333333</ele><time>2026-03-24T16:00:08.3Z</time></trkpt><trkpt lat="43.3802217" lon="11.78534"><ele>274.16666666666663</ele><time>2026-03-24T16:00:10.302Z</time></trkpt><trkpt lat="43.3803017" lon="11.7853283"><ele>274.0</ele><time>2026-03-24T16:00:12.298Z</time></trkpt><trkpt lat="43.380375" lon="11.7853117"><ele>274.0</ele><time>2026-03-24T16:00:14.299Z</time></trkpt><trkpt lat="43.38045" lon="11.7852983"><ele>274.0</ele><time>2026-03-24T16:00:16.3Z</time></trkpt><trkpt lat="43.3805267" lon="11.7852883"><ele>274.0</ele><time>2026-03-24T16:00:18.299Z</time></trkpt><trkpt lat="43.3806017" lon="11.7852867"><ele>274.0</ele><time>2026-03-24T16:00:20.297Z</time></trkpt><trkpt lat="43.38068" lon="11.7852717"><ele>274.0</ele><time>2026-03-24T16:00:22.301Z</time></trkpt><trkpt lat="43.38076" lon="11.7852583"><ele>274.0</ele><time>2026-03-24T16:00:24.299Z</time></trkpt><trkpt lat="43.3808433" lon="11.7852283"><ele>273.66666666666663</ele><time>2026-03-24T16:00:26.298Z</time></trkpt><trkpt lat="43.3809267" lon="11.7851967"><ele>273.3333333333333</ele><time>2026-03-24T16:00:28.301Z</time></trkpt><trkpt lat="43.38101" lon="11.7851617"><ele>273.0</ele><time>2026-03-24T16:00:30.3Z</time></trkpt><trkpt lat="43.3810933" lon="11.7851333"><ele>272.6666666666667</ele><time>2026-03-24T16:00:32.302Z</time></trkpt><trkpt lat="43.381175" lon="11.78511"><ele>272.33333333333337</ele><time>2026-03-24T16:00:34.301Z</time></trkpt><trkpt lat="43.38126" lon="11.7850833"><ele>272.0</ele><time>2026-03-24T16:00:36.299Z</time></trkpt><trkpt lat="43.3813467" lon="11.7850483"><ele>271.83333333333337</ele><time>2026-03-24T16:00:38.301Z</time></trkpt><trkpt lat="43.38143" lon="11.7850217"><ele>271.6666666666667</ele><time>2026-03-24T16:00:40.3Z</time></trkpt><trkpt lat="43.3815133" lon="11.7849883"><ele>271.5</ele><time>2026-03-24T16:00:42.298Z</time></trkpt><trkpt lat="43.3815967" lon="11.784955"><ele>271.3333333333333</ele><time>2026-03-24T16:00:44.298Z</time></trkpt><trkpt lat="43.381685" lon="11.78492"><ele>271.16666666666663</ele><time>2026-03-24T16:00:46.299Z</time></trkpt><trkpt lat="43.381775" lon="11.7848917"><ele>271.0</ele><time>2026-03-24T16:00:48.298Z</time></trkpt><trkpt lat="43.3818617" lon="11.7848617"><ele>271.0</ele><time>2026-03-24T16:00:50.297Z</time></trkpt><trkpt lat="43.3819467" lon="11.78484"><ele>271.0</ele><time>2026-03-24T16:00:52.3Z</time></trkpt><trkpt lat="43.38204" lon="11.7848283"><ele>271.0</ele><time>2026-03-24T16:00:54.299Z</time></trkpt><trkpt lat="43.3821317" lon="11.7848133"><ele>271.0</ele><time>2026-03-24T16:00:56.301Z</time></trkpt><trkpt lat="43.3822233" lon="11.7847883"><ele>271.0</ele><time>2026-03-24T16:00:58.305Z</time></trkpt><trkpt lat="43.3823167" lon="11.7847683"><ele>271.0</ele><time>2026-03-24T16:01:00.301Z</time></trkpt><trkpt lat="43.38241" lon="11.7847417"><ele>271.0</ele><time>2026-03-24T16:01:02.298Z</time></trkpt><trkpt lat="43.3824933" lon="11.7847283"><ele>271.0</ele><time>2026-03-24T16:01:04.298Z</time></trkpt><trkpt lat="43.3825867" lon="11.7847133"><ele>271.0</ele><time>2026-03-24T16:01:06.298Z</time></trkpt><trkpt lat="43.3826767" lon="11.7846933"><ele>271.0</ele><time>2026-03-24T16:01:08.299Z</time></trkpt><trkpt lat="43.3827717" lon="11.7846783"><ele>271.0</ele><time>2026-03-24T16:01:10.298Z</time></trkpt><trkpt lat="43.3828633" lon="11.7846667"><ele>271.0</ele><time>2026-03-24T16:01:12.301Z</time></trkpt><trkpt lat="43.3829583" lon="11.7846517"><ele>271.0</ele><time>2026-03-24T16:01:14.298Z</time></trkpt><trkpt lat="43.3830483" lon="11.78464"><ele>271.0</ele><time>2026-03-24T16:01:16.3Z</time></trkpt><trkpt lat="43.3831333" lon="11.78464"><ele>271.0</ele><time>2026-03-24T16:01:18.299Z</time></trkpt><trkpt lat="43.38322" lon="11.7846483"><ele>270.8333333333333</ele><time>2026-03-24T16:01:20.298Z</time></trkpt><trkpt lat="43.3833" lon="11.7846433"><ele>270.66666666666663</ele><time>2026-03-24T16:01:22.305Z</time></trkpt><trkpt lat="43.3833883" lon="11.7846267"><ele>270.5</ele><time>2026-03-24T16:01:24.3Z</time></trkpt><trkpt lat="43.3834733" lon="11.7845917"><ele>270.3333333333333</ele><time>2026-03-24T16:01:26.302Z</time></trkpt><trkpt lat="43.383555" lon="11.78455"><ele>270.1666666666667</ele><time>2026-03-24T16:01:28.299Z</time></trkpt><trkpt lat="43.383635" lon="11.7845033"><ele>270.0</ele><time>2026-03-24T16:01:30.299Z</time></trkpt><trkpt lat="43.3837033" lon="11.7844583"><ele>270.0</ele><time>2026-03-24T16:01:32.3Z</time></trkpt><trkpt lat="43.38378" lon="11.7844133"><ele>270.0</ele><time>2026-03-24T16:01:34.299Z</time></trkpt><trkpt lat="43.3838533" lon="11.7843433"><ele>270.0</ele><time>2026-03-24T16:01:36.302Z</time></trkpt><trkpt lat="43.3839183" lon="11.784285"><ele>270.0</ele><time>2026-03-24T16:01:38.299Z</time></trkpt><trkpt lat="43.38398" lon="11.7842367"><ele>270.0</ele><time>2026-03-24T16:01:40.3Z</time></trkpt><trkpt lat="43.384065" lon="11.7841717"><ele>270.0</ele><time>2026-03-24T16:01:42.297Z</time></trkpt><trkpt lat="43.38414" lon="11.7841117"><ele>270.1666666666667</ele><time>2026-03-24T16:01:44.297Z</time></trkpt><trkpt lat="43.384205" lon="11.7840667"><ele>270.3333333333333</ele><time>2026-03-24T16:01:46.298Z</time></trkpt><trkpt lat="43.384285" lon="11.7840433"><ele>270.5</ele><time>2026-03-24T16:01:48.298Z</time></trkpt><trkpt lat="43.38436" lon="11.7840283"><ele>270.66666666666663</ele><time>2026-03-24T16:01:50.3Z</time></trkpt><trkpt lat="43.384435" lon="11.7840267"><ele>270.8333333333333</ele><time>2026-03-24T16:01:52.297Z</time></trkpt><trkpt lat="43.3845083" lon="11.78407"><ele>271.0</ele><time>2026-03-24T16:01:54.299Z</time></trkpt><trkpt lat="43.3845617" lon="11.78414"><ele>271.0</ele><time>2026-03-24T16:01:56.299Z</time></trkpt><trkpt lat="43.3845967" lon="11.7842167"><ele>271.0</ele><time>2026-03-24T16:01:58.297Z</time></trkpt><trkpt lat="43.384635" lon="11.7842933"><ele>271.0</ele><time>2026-03-24T16:02:00.299Z</time></trkpt><trkpt lat="43.384695" lon="11.7844067"><ele>271.0</ele><time>2026-03-24T16:02:03.304Z</time></trkpt><trkpt lat="43.38475" lon="11.7845033"><ele>271.0</ele><time>2026-03-24T16:02:06.299Z</time></trkpt><trkpt lat="43.3847933" lon="11.7845767"><ele>271.0</ele><time>2026-03-24T16:02:08.301Z</time></trkpt><trkpt lat="43.3848583" lon="11.7846883"><ele>270.85714285714283</ele><time>2026-03-24T16:02:11.298Z</time></trkpt><trkpt lat="43.3849017" lon="11.7847567"><ele>270.7142857142857</ele><time>2026-03-24T16:02:13.298Z</time></trkpt><trkpt lat="43.3849417" lon="11.7848283"><ele>270.57142857142856</ele><time>2026-03-24T16:02:15.298Z</time></trkpt><trkpt lat="43.3849917" lon="11.7849017"><ele>270.42857142857144</ele><time>2026-03-24T16:02:17.298Z</time></trkpt><trkpt lat="43.3850533" lon="11.78499"><ele>270.2857142857143</ele><time>2026-03-24T16:02:20.299Z</time></trkpt><trkpt lat="43.3851017" lon="11.7850467"><ele>270.1428571428571</ele><time>2026-03-24T16:02:22.3Z</time></trkpt><trkpt lat="43.3851733" lon="11.7851067"><ele>270.0</ele><time>2026-03-24T16:02:25.299Z</time></trkpt><trkpt lat="43.3852317" lon="11.7851467"><ele>270.0</ele><time>2026-03-24T16:02:27.301Z</time></trkpt><trkpt lat="43.3852983" lon="11.78517"><ele>270.0</ele><time>2026-03-24T16:02:29.3Z</time></trkpt><trkpt lat="43.3853867" lon="11.7851617"><ele>270.0</ele><time>2026-03-24T16:02:32.297Z</time></trkpt><trkpt lat="43.3854667" lon="11.7851267"><ele>270.0</ele><time>2026-03-24T16:02:35.298Z</time></trkpt><trkpt lat="43.385545" lon="11.78506"><ele>270.0</ele><time>2026-03-24T16:02:38.299Z</time></trkpt><trkpt lat="43.3855983" lon="11.7849867"><ele>270.0</ele><time>2026-03-24T16:02:41.297Z</time></trkpt><trkpt lat="43.38565" lon="11.784895"><ele>270.0</ele><time>2026-03-24T16:02:44.299Z</time></trkpt><trkpt lat="43.3856933" lon="11.7848033"><ele>270.0</ele><time>2026-03-24T16:02:47.296Z</time></trkpt><trkpt lat="43.3857317" lon="11.7847033"><ele>270.0</ele><time>2026-03-24T16:02:50.298Z</time></trkpt><trkpt lat="43.3857717" lon="11.7846083"><ele>270.0</ele><time>2026-03-24T16:02:53.297Z</time></trkpt><trkpt lat="43.3858117" lon="11.78452"><ele>270.0</ele><time>2026-03-24T16:02:55.301Z</time></trkpt><trkpt lat="43.3858733" lon="11.7844167"><ele>270.0</ele><time>2026-03-24T16:02:57.3Z</time></trkpt><trkpt lat="43.3859467" lon="11.7843133"><ele>270.2</ele><time>2026-03-24T16:02:59.299Z</time></trkpt><trkpt lat="43.3860383" lon="11.784225"><ele>270.4</ele><time>2026-03-24T16:03:01.299Z</time></trkpt><trkpt lat="43.3861467" lon="11.7841517"><ele>270.6</ele><time>2026-03-24T16:03:03.299Z</time></trkpt><trkpt lat="43.3862517" lon="11.78409"><ele>270.8</ele><time>2026-03-24T16:03:05.298Z</time></trkpt><trkpt lat="43.3863433" lon="11.7840483"><ele>271.0</ele><time>2026-03-24T16:03:07.299Z</time></trkpt><trkpt lat="43.3864417" lon="11.7840033"><ele>271.0</ele><time>2026-03-24T16:03:09.298Z</time></trkpt><trkpt lat="43.3865483" lon="11.783955"><ele>271.0</ele><time>2026-03-24T16:03:11.297Z</time></trkpt><trkpt lat="43.3866617" lon="11.7839283"><ele>271.0</ele><time>2026-03-24T16:03:13.299Z</time></trkpt><trkpt lat="43.3867683" lon="11.7839083"><ele>271.0</ele><time>2026-03-24T16:03:15.299Z</time></trkpt><trkpt lat="43.3868683" lon="11.783885"><ele>271.0</ele><time>2026-03-24T16:03:17.297Z</time></trkpt><trkpt lat="43.3869833" lon="11.7838467"><ele>271.0</ele><time>2026-03-24T16:03:19.297Z</time></trkpt><trkpt lat="43.3870983" lon="11.7838083"><ele>271.0</ele><time>2026-03-24T16:03:21.3Z</time></trkpt><trkpt lat="43.3872033" lon="11.7837683"><ele>271.0</ele><time>2026-03-24T16:03:23.298Z</time></trkpt><trkpt lat="43.3873167" lon="11.78372"><ele>271.0</ele><time>2026-03-24T16:03:25.302Z</time></trkpt><trkpt lat="43.3873783" lon="11.7837"><ele>271.0</ele><time>2026-03-24T16:03:26.298Z</time></trkpt><trkpt lat="43.387495" lon="11.78366"><ele>271.2</ele><time>2026-03-24T16:03:28.3Z</time></trkpt><trkpt lat="43.3875567" lon="11.7836333"><ele>271.40000000000003</ele><time>2026-03-24T16:03:29.297Z</time></trkpt><trkpt lat="43.3876683" lon="11.7835833"><ele>271.6</ele><time>2026-03-24T16:03:31.3Z</time></trkpt><trkpt lat="43.3877733" lon="11.78354"><ele>271.8</ele><time>2026-03-24T16:03:33.299Z</time></trkpt><trkpt lat="43.3878867" lon="11.7834933"><ele>272.0</ele><time>2026-03-24T16:03:35.3Z</time></trkpt><trkpt lat="43.3879933" lon="11.7834467"><ele>271.6</ele><time>2026-03-24T16:03:37.296Z</time></trkpt><trkpt lat="43.3881017" lon="11.7834033"><ele>271.2</ele><time>2026-03-24T16:03:39.297Z</time></trkpt><trkpt lat="43.38821" lon="11.7833583"><ele>270.8</ele><time>2026-03-24T16:03:41.297Z</time></trkpt><trkpt lat="43.3883183" lon="11.783315"><ele>270.4</ele><time>2026-03-24T16:03:43.298Z</time></trkpt><trkpt lat="43.38842" lon="11.7832683"><ele>270.0</ele><time>2026-03-24T16:03:45.299Z</time></trkpt><trkpt lat="43.388525" lon="11.7832283"><ele>270.0</ele><time>2026-03-24T16:03:47.298Z</time></trkpt><trkpt lat="43.3886267" lon="11.7831917"><ele>270.0</ele><time>2026-03-24T16:03:49.299Z</time></trkpt><trkpt lat="43.388715" lon="11.783135"><ele>270.0</ele><time>2026-03-24T16:03:51.298Z</time></trkpt><trkpt lat="43.3888" lon="11.783065"><ele>270.0</ele><time>2026-03-24T16:03:53.298Z</time></trkpt><trkpt lat="43.38888" lon="11.782985"><ele>270.0</ele><time>2026-03-24T16:03:55.299Z</time></trkpt><trkpt lat="43.388955" lon="11.7828983"><ele>269.8333333333333</ele><time>2026-03-24T16:03:57.299Z</time></trkpt><trkpt lat="43.38902" lon="11.7828183"><ele>269.6666666666667</ele><time>2026-03-24T16:03:59.301Z</time></trkpt><trkpt lat="43.38908" lon="11.7827417"><ele>269.5</ele><time>2026-03-24T16:04:01.298Z</time></trkpt><trkpt lat="43.3891383" lon="11.7826683"><ele>269.33333333333337</ele><time>2026-03-24T16:04:03.299Z</time></trkpt><trkpt lat="43.3891983" lon="11.7826017"><ele>269.1666666666667</ele><time>2026-03-24T16:04:05.299Z</time></trkpt><trkpt lat="43.38925" lon="11.7825417"><ele>269.0</ele><time>2026-03-24T16:04:07.299Z</time></trkpt><trkpt lat="43.3892967" lon="11.78248"><ele>269.33333333333337</ele><time>2026-03-24T16:04:09.298Z</time></trkpt><trkpt lat="43.389365" lon="11.7824"><ele>269.6666666666667</ele><time>2026-03-24T16:04:12.299Z</time></trkpt><trkpt lat="43.3894283" lon="11.7823167"><ele>270.0</ele><time>2026-03-24T16:04:15.299Z</time></trkpt><trkpt lat="43.3894833" lon="11.7822433"><ele>270.3333333333333</ele><time>2026-03-24T16:04:18.298Z</time></trkpt><trkpt lat="43.3895383" lon="11.7821817"><ele>270.66666666666663</ele><time>2026-03-24T16:04:21.298Z</time></trkpt><trkpt lat="43.3896067" lon="11.78213"><ele>271.0</ele><time>2026-03-24T16:04:25.3Z</time></trkpt><trkpt lat="43.3896633" lon="11.782175"><ele>271.0</ele><time>2026-03-24T16:04:29.298Z</time></trkpt><trkpt lat="43.389725" lon="11.78224"><ele>271.0</ele><time>2026-03-24T16:04:33.299Z</time></trkpt><trkpt lat="43.3897917" lon="11.782315"><ele>271.0</ele><time>2026-03-24T16:04:36.299Z</time></trkpt><trkpt lat="43.3898683" lon="11.7823967"><ele>271.0</ele><time>2026-03-24T16:04:39.3Z</time></trkpt><trkpt lat="43.389925" lon="11.7824583"><ele>271.0</ele><time>2026-03-24T16:04:41.299Z</time></trkpt><trkpt lat="43.3899833" lon="11.7825183"><ele>271.0</ele><time>2026-03-24T16:04:43.299Z</time></trkpt><trkpt lat="43.3900533" lon="11.78258"><ele>271.0</ele><time>2026-03-24T16:04:45.298Z</time></trkpt><trkpt lat="43.3901267" lon="11.7826433"><ele>271.0</ele><time>2026-03-24T16:04:47.298Z</time></trkpt><trkpt lat="43.390205" lon="11.782715"><ele>271.0</ele><time>2026-03-24T16:04:49.302Z</time></trkpt><trkpt lat="43.3902783" lon="11.7827983"><ele>271.0</ele><time>2026-03-24T16:04:51.299Z</time></trkpt><trkpt lat="43.3903617" lon="11.78288"><ele>271.0</ele><time>2026-03-24T16:04:53.301Z</time></trkpt><trkpt lat="43.3904417" lon="11.782965"><ele>270.6</ele><time>2026-03-24T16:04:55.3Z</time></trkpt><trkpt lat="43.3905267" lon="11.78305"><ele>270.20000000000005</ele><time>2026-03-24T16:04:57.301Z</time></trkpt><trkpt lat="43.3906233" lon="11.783145"><ele>269.79999999999995</ele><time>2026-03-24T16:04:59.3Z</time></trkpt><trkpt lat="43.3907067" lon="11.7832283"><ele>269.4</ele><time>2026-03-24T16:05:01.299Z</time></trkpt><trkpt lat="43.3907933" lon="11.7833283"><ele>269.0</ele><time>2026-03-24T16:05:03.298Z</time></trkpt><trkpt lat="43.3908833" lon="11.78344"><ele>268.83333333333337</ele><time>2026-03-24T16:05:05.298Z</time></trkpt><trkpt lat="43.3909767" lon="11.78355"><ele>268.6666666666667</ele><time>2026-03-24T16:05:07.3Z</time></trkpt><trkpt lat="43.3910283" lon="11.78361"><ele>268.5</ele><time>2026-03-24T16:05:08.3Z</time></trkpt><trkpt lat="43.39108" lon="11.7836667"><ele>268.3333333333333</ele><time>2026-03-24T16:05:09.3Z</time></trkpt><trkpt lat="43.3911283" lon="11.7837267"><ele>268.16666666666663</ele><time>2026-03-24T16:05:10.298Z</time></trkpt><trkpt lat="43.3911833" lon="11.7837883"><ele>268.0</ele><time>2026-03-24T16:05:11.302Z</time></trkpt><trkpt lat="43.3912383" lon="11.78385"><ele>268.0</ele><time>2026-03-24T16:05:12.302Z</time></trkpt><trkpt lat="43.3912917" lon="11.7839133"><ele>268.0</ele><time>2026-03-24T16:05:13.298Z</time></trkpt><trkpt lat="43.39134" lon="11.78398"><ele>268.0</ele><time>2026-03-24T16:05:14.298Z</time></trkpt><trkpt lat="43.39139" lon="11.7840483"><ele>268.0</ele><time>2026-03-24T16:05:15.297Z</time></trkpt><trkpt lat="43.39144" lon="11.7841083"><ele>268.0</ele><time>2026-03-24T16:05:16.3Z</time></trkpt><trkpt lat="43.3914817" lon="11.7841733"><ele>268.0</ele><time>2026-03-24T16:05:17.297Z</time></trkpt><trkpt lat="43.3915267" lon="11.784235"><ele>268.0</ele><time>2026-03-24T16:05:18.299Z</time></trkpt><trkpt lat="43.3915717" lon="11.7842967"><ele>267.75</ele><time>2026-03-24T16:05:19.299Z</time></trkpt><trkpt lat="43.39167" lon="11.7844033"><ele>267.5</ele><time>2026-03-24T16:05:21.298Z</time></trkpt><trkpt lat="43.3917633" lon="11.7845033"><ele>267.25</ele><time>2026-03-24T16:05:23.298Z</time></trkpt><trkpt lat="43.3918533" lon="11.784605"><ele>267.0</ele><time>2026-03-24T16:05:25.297Z</time></trkpt><trkpt lat="43.391935" lon="11.784705"><ele>267.0</ele><time>2026-03-24T16:05:27.298Z</time></trkpt><trkpt lat="43.3920083" lon="11.7848"><ele>267.0</ele><time>2026-03-24T16:05:29.298Z</time></trkpt><trkpt lat="43.3920733" lon="11.7849067"><ele>267.0</ele><time>2026-03-24T16:05:31.298Z</time></trkpt><trkpt lat="43.39213" lon="11.7850167"><ele>267.0</ele><time>2026-03-24T16:05:33.298Z</time></trkpt><trkpt lat="43.3921833" lon="11.7851317"><ele>267.0</ele><time>2026-03-24T16:05:35.299Z</time></trkpt><trkpt lat="43.3922267" lon="11.7852417"><ele>267.0</ele><time>2026-03-24T16:05:37.297Z</time></trkpt><trkpt lat="43.39226" lon="11.7853517"><ele>267.0</ele><time>2026-03-24T16:05:39.3Z</time></trkpt><trkpt lat="43.3922933" lon="11.78546"><ele>267.0</ele><time>2026-03-24T16:05:41.299Z</time></trkpt><trkpt lat="43.3923317" lon="11.7855617"><ele>267.0</ele><time>2026-03-24T16:05:43.298Z</time></trkpt><trkpt lat="43.3923683" lon="11.7856783"><ele>267.0</ele><time>2026-03-24T16:05:45.299Z</time></trkpt><trkpt lat="43.39241" lon="11.7858017"><ele>267.0</ele><time>2026-03-24T16:05:47.298Z</time></trkpt><trkpt lat="43.3924733" lon="11.7859233"><ele>266.6666666666667</ele><time>2026-03-24T16:05:49.299Z</time></trkpt><trkpt lat="43.39256" lon="11.7860333"><ele>266.3333333333333</ele><time>2026-03-24T16:05:51.299Z</time></trkpt><trkpt lat="43.3926133" lon="11.7860917"><ele>266.0</ele><time>2026-03-24T16:05:52.3Z</time></trkpt><trkpt lat="43.3926717" lon="11.7861533"><ele>265.66666666666663</ele><time>2026-03-24T16:05:53.298Z</time></trkpt><trkpt lat="43.39273" lon="11.7862217"><ele>265.3333333333333</ele><time>2026-03-24T16:05:54.298Z</time></trkpt><trkpt lat="43.3927867" lon="11.7862983"><ele>265.0</ele><time>2026-03-24T16:05:55.299Z</time></trkpt><trkpt lat="43.392835" lon="11.7863817"><ele>265.0</ele><time>2026-03-24T16:05:56.299Z</time></trkpt><trkpt lat="43.3928717" lon="11.7864817"><ele>265.0</ele><time>2026-03-24T16:05:57.299Z</time></trkpt><trkpt lat="43.39289" lon="11.786585"><ele>265.0</ele><time>2026-03-24T16:05:58.302Z</time></trkpt><trkpt lat="43.3929167" lon="11.7866883"><ele>265.0</ele><time>2026-03-24T16:05:59.298Z</time></trkpt><trkpt lat="43.3929583" lon="11.7867783"><ele>265.0</ele><time>2026-03-24T16:06:00.298Z</time></trkpt><trkpt lat="43.3930083" lon="11.7868567"><ele>265.0</ele><time>2026-03-24T16:06:01.301Z</time></trkpt><trkpt lat="43.3930717" lon="11.7869183"><ele>263.66666666666663</ele><time>2026-03-24T16:06:02.299Z</time></trkpt><trkpt lat="43.3931433" lon="11.7869717"><ele>262.3333333333333</ele><time>2026-03-24T16:06:03.297Z</time></trkpt><trkpt lat="43.3932183" lon="11.7870217"><ele>261.0</ele><time>2026-03-24T16:06:04.3Z</time></trkpt><trkpt lat="43.3932983" lon="11.78707"><ele>259.6666666666667</ele><time>2026-03-24T16:06:05.298Z</time></trkpt><trkpt lat="43.3933783" lon="11.7871183"><ele>258.33333333333337</ele><time>2026-03-24T16:06:06.297Z</time></trkpt><trkpt lat="43.3934617" lon="11.7871667"><ele>257.0</ele><time>2026-03-24T16:06:07.298Z</time></trkpt><trkpt lat="43.3935417" lon="11.7872117"><ele>257.0</ele><time>2026-03-24T16:06:08.299Z</time></trkpt><trkpt lat="43.3936217" lon="11.787255"><ele>257.0</ele><time>2026-03-24T16:06:09.297Z</time></trkpt><trkpt lat="43.3936983" lon="11.787295"><ele>257.0</ele><time>2026-03-24T16:06:10.298Z</time></trkpt><trkpt lat="43.393775" lon="11.7873333"><ele>257.0</ele><time>2026-03-24T16:06:11.3Z</time></trkpt><trkpt lat="43.39385" lon="11.7873717"><ele>257.0</ele><time>2026-03-24T16:06:12.297Z</time></trkpt><trkpt lat="43.3939233" lon="11.78741"><ele>257.0</ele><time>2026-03-24T16:06:13.3Z</time></trkpt><trkpt lat="43.393995" lon="11.78745"><ele>257.0</ele><time>2026-03-24T16:06:14.298Z</time></trkpt><trkpt lat="43.3940633" lon="11.78749"><ele>257.0</ele><time>2026-03-24T16:06:15.299Z</time></trkpt><trkpt lat="43.39413" lon="11.787525"><ele>257.0</ele><time>2026-03-24T16:06:16.3Z</time></trkpt><trkpt lat="43.3941883" lon="11.78756"><ele>257.0</ele><time>2026-03-24T16:06:17.299Z</time></trkpt><trkpt lat="43.3942983" lon="11.7876217"><ele>257.0</ele><time>2026-03-24T16:06:19.299Z</time></trkpt><trkpt lat="43.3944" lon="11.7876767"><ele>257.0</ele><time>2026-03-24T16:06:21.3Z</time></trkpt><trkpt lat="43.3944967" lon="11.787735"><ele>256.8</ele><time>2026-03-24T16:06:23.297Z</time></trkpt><trkpt lat="43.3945933" lon="11.7877833"><ele>256.6</ele><time>2026-03-24T16:06:25.3Z</time></trkpt><trkpt lat="43.3946833" lon="11.78783"><ele>256.40000000000003</ele><time>2026-03-24T16:06:27.301Z</time></trkpt><trkpt lat="43.39477" lon="11.7878767"><ele>256.2</ele><time>2026-03-24T16:06:29.297Z</time></trkpt><trkpt lat="43.3948567" lon="11.7879233"><ele>256.0</ele><time>2026-03-24T16:06:31.296Z</time></trkpt><trkpt lat="43.3949417" lon="11.7879667"><ele>256.3333333333333</ele><time>2026-03-24T16:06:33.3Z</time></trkpt><trkpt lat="43.3950183" lon="11.78801"><ele>256.66666666666663</ele><time>2026-03-24T16:06:35.297Z</time></trkpt><trkpt lat="43.3951" lon="11.7880517"><ele>257.0</ele><time>2026-03-24T16:06:37.297Z</time></trkpt><trkpt lat="43.3951867" lon="11.7880933"><ele>257.3333333333333</ele><time>2026-03-24T16:06:39.298Z</time></trkpt><trkpt lat="43.3952733" lon="11.7881333"><ele>257.6666666666667</ele><time>2026-03-24T16:06:41.301Z</time></trkpt><trkpt lat="43.3953517" lon="11.7881733"><ele>258.0</ele><time>2026-03-24T16:06:43.299Z</time></trkpt><trkpt lat="43.3954217" lon="11.7882083"><ele>258.0</ele><time>2026-03-24T16:06:45.298Z</time></trkpt><trkpt lat="43.39549" lon="11.788245"><ele>258.0</ele><time>2026-03-24T16:06:47.297Z</time></trkpt><trkpt lat="43.3955567" lon="11.78828"><ele>258.0</ele><time>2026-03-24T16:06:49.297Z</time></trkpt><trkpt lat="43.39564" lon="11.7883283"><ele>258.0</ele><time>2026-03-24T16:06:52.297Z</time></trkpt><trkpt lat="43.3957217" lon="11.78837"><ele>258.0</ele><time>2026-03-24T16:06:55.296Z</time></trkpt><trkpt lat="43.3958083" lon="11.7884117"><ele>258.0</ele><time>2026-03-24T16:06:58.297Z</time></trkpt><trkpt lat="43.3958933" lon="11.78845"><ele>258.5</ele><time>2026-03-24T16:07:01.298Z</time></trkpt><trkpt lat="43.3959717" lon="11.7885"><ele>259.0</ele><time>2026-03-24T16:07:04.297Z</time></trkpt><trkpt lat="43.39605" lon="11.7885517"><ele>259.5</ele><time>2026-03-24T16:07:07.298Z</time></trkpt><trkpt lat="43.39613" lon="11.78859"><ele>260.0</ele><time>2026-03-24T16:07:10.298Z</time></trkpt><trkpt lat="43.3962083" lon="11.788635"><ele>260.5</ele><time>2026-03-24T16:07:13.299Z</time></trkpt><trkpt lat="43.396285" lon="11.788675"><ele>261.0</ele><time>2026-03-24T16:07:16.299Z</time></trkpt><trkpt lat="43.396355" lon="11.7887"><ele>261.1666666666667</ele><time>2026-03-24T16:07:19.298Z</time></trkpt><trkpt lat="43.396415" lon="11.7887317"><ele>261.3333333333333</ele><time>2026-03-24T16:07:23.299Z</time></trkpt><trkpt lat="43.3964817" lon="11.7887833"><ele>261.5</ele><time>2026-03-24T16:07:27.3Z</time></trkpt><trkpt lat="43.3965383" lon="11.7888217"><ele>261.66666666666663</ele><time>2026-03-24T16:07:30.299Z</time></trkpt><trkpt lat="43.3966033" lon="11.7888833"><ele>261.8333333333333</ele><time>2026-03-24T16:07:33.298Z</time></trkpt><trkpt lat="43.3966683" lon="11.788955"><ele>262.0</ele><time>2026-03-24T16:07:36.3Z</time></trkpt><trkpt lat="43.39673" lon="11.78904"><ele>262.0</ele><time>2026-03-24T16:07:39.298Z</time></trkpt><trkpt lat="43.3968017" lon="11.7891033"><ele>262.0</ele><time>2026-03-24T16:07:42.298Z</time></trkpt><trkpt lat="43.3968533" lon="11.78918"><ele>262.0</ele><time>2026-03-24T16:07:45.298Z</time></trkpt><trkpt lat="43.3969067" lon="11.7892633"><ele>262.0</ele><time>2026-03-24T16:07:48.3Z</time></trkpt><trkpt lat="43.396995" lon="11.78931"><ele>262.0</ele><time>2026-03-24T16:07:51.3Z</time></trkpt><trkpt lat="43.3970583" lon="11.789365"><ele>262.0</ele><time>2026-03-24T16:07:53.299Z</time></trkpt><trkpt lat="43.39712" lon="11.7894267"><ele>261.0</ele><time>2026-03-24T16:07:55.297Z</time></trkpt><trkpt lat="43.3971933" lon="11.789505"><ele>260.0</ele><time>2026-03-24T16:07:57.298Z</time></trkpt><trkpt lat="43.3972733" lon="11.7895917"><ele>259.0</ele><time>2026-03-24T16:07:59.3Z</time></trkpt><trkpt lat="43.39736" lon="11.7896867"><ele>258.0</ele><time>2026-03-24T16:08:01.297Z</time></trkpt><trkpt lat="43.3974533" lon="11.7897933"><ele>257.0</ele><time>2026-03-24T16:08:03.298Z</time></trkpt><trkpt lat="43.39755" lon="11.7899033"><ele>257.0</ele><time>2026-03-24T16:08:05.296Z</time></trkpt><trkpt lat="43.3976033" lon="11.7899583"><ele>257.0</ele><time>2026-03-24T16:08:06.297Z</time></trkpt><trkpt lat="43.3976583" lon="11.7900167"><ele>257.0</ele><time>2026-03-24T16:08:07.296Z</time></trkpt><trkpt lat="43.3977167" lon="11.7900733"><ele>257.0</ele><time>2026-03-24T16:08:08.298Z</time></trkpt><trkpt lat="43.3977733" lon="11.790135"><ele>257.0</ele><time>2026-03-24T16:08:09.299Z</time></trkpt><trkpt lat="43.3978333" lon="11.7901983"><ele>257.0</ele><time>2026-03-24T16:08:10.298Z</time></trkpt><trkpt lat="43.39789" lon="11.7902617"><ele>257.0</ele><time>2026-03-24T16:08:11.298Z</time></trkpt><trkpt lat="43.3979467" lon="11.790325"><ele>256.83333333333337</ele><time>2026-03-24T16:08:12.298Z</time></trkpt><trkpt lat="43.3980017" lon="11.790385"><ele>256.6666666666667</ele><time>2026-03-24T16:08:13.297Z</time></trkpt><trkpt lat="43.3980583" lon="11.7904417"><ele>256.5</ele><time>2026-03-24T16:08:14.297Z</time></trkpt><trkpt lat="43.3981117" lon="11.7905"><ele>256.3333333333333</ele><time>2026-03-24T16:08:15.297Z</time></trkpt><trkpt lat="43.3981633" lon="11.7905567"><ele>256.16666666666663</ele><time>2026-03-24T16:08:16.3Z</time></trkpt><trkpt lat="43.3982117" lon="11.7906133"><ele>256.0</ele><time>2026-03-24T16:08:17.3Z</time></trkpt><trkpt lat="43.3983" lon="11.7907117"><ele>256.0</ele><time>2026-03-24T16:08:19.3Z</time></trkpt><trkpt lat="43.3983817" lon="11.7908017"><ele>256.0</ele><time>2026-03-24T16:08:21.298Z</time></trkpt><trkpt lat="43.3984633" lon="11.7908967"><ele>256.0</ele><time>2026-03-24T16:08:23.296Z</time></trkpt><trkpt lat="43.3985467" lon="11.7909917"><ele>256.0</ele><time>2026-03-24T16:08:25.296Z</time></trkpt><trkpt lat="43.3986317" lon="11.79108"><ele>256.0</ele><time>2026-03-24T16:08:27.299Z</time></trkpt><trkpt lat="43.3987067" lon="11.791165"><ele>255.99999999999997</ele><time>2026-03-24T16:08:29.298Z</time></trkpt><trkpt lat="43.39879" lon="11.7912383"><ele>256.0</ele><time>2026-03-24T16:08:31.298Z</time></trkpt><trkpt lat="43.3988667" lon="11.7913083"><ele>256.0</ele><time>2026-03-24T16:08:33.299Z</time></trkpt><trkpt lat="43.3989317" lon="11.79138"><ele>256.0</ele><time>2026-03-24T16:08:35.297Z</time></trkpt><trkpt lat="43.398995" lon="11.791445"><ele>255.99999999999997</ele><time>2026-03-24T16:08:37.299Z</time></trkpt><trkpt lat="43.399065" lon="11.7915233"><ele>256.0</ele><time>2026-03-24T16:08:39.297Z</time></trkpt><trkpt lat="43.399135" lon="11.7916067"><ele>256.5</ele><time>2026-03-24T16:08:41.298Z</time></trkpt><trkpt lat="43.399205" lon="11.7916833"><ele>257.0</ele><time>2026-03-24T16:08:43.298Z</time></trkpt><trkpt lat="43.3992667" lon="11.7917583"><ele>257.5</ele><time>2026-03-24T16:08:45.301Z</time></trkpt><trkpt lat="43.39933" lon="11.79183"><ele>258.0</ele><time>2026-03-24T16:08:47.3Z</time></trkpt><trkpt lat="43.3993933" lon="11.7918967"><ele>258.5</ele><time>2026-03-24T16:08:49.297Z</time></trkpt><trkpt lat="43.399455" lon="11.791965"><ele>259.0</ele><time>2026-03-24T16:08:51.298Z</time></trkpt><trkpt lat="43.3995383" lon="11.7920683"><ele>259.0</ele><time>2026-03-24T16:08:54.302Z</time></trkpt><trkpt lat="43.3996" lon="11.79213"><ele>259.0</ele><time>2026-03-24T16:08:56.302Z</time></trkpt><trkpt lat="43.3996583" lon="11.7921883"><ele>259.0</ele><time>2026-03-24T16:08:58.298Z</time></trkpt><trkpt lat="43.399715" lon="11.7922467"><ele>259.0</ele><time>2026-03-24T16:09:00.298Z</time></trkpt><trkpt lat="43.3997683" lon="11.7923067"><ele>259.0</ele><time>2026-03-24T16:09:02.302Z</time></trkpt><trkpt lat="43.39983" lon="11.7923617"><ele>259.0</ele><time>2026-03-24T16:09:04.299Z</time></trkpt><trkpt lat="43.3998917" lon="11.7924217"><ele>259.0</ele><time>2026-03-24T16:09:06.299Z</time></trkpt><trkpt lat="43.39995" lon="11.7924883"><ele>259.16666666666663</ele><time>2026-03-24T16:09:08.298Z</time></trkpt><trkpt lat="43.4000083" lon="11.792555"><ele>259.3333333333333</ele><time>2026-03-24T16:09:10.298Z</time></trkpt><trkpt lat="43.400075" lon="11.7926233"><ele>259.5</ele><time>2026-03-24T16:09:12.304Z</time></trkpt><trkpt lat="43.4001417" lon="11.7926883"><ele>259.6666666666667</ele><time>2026-03-24T16:09:14.299Z</time></trkpt><trkpt lat="43.400205" lon="11.792755"><ele>259.83333333333337</ele><time>2026-03-24T16:09:16.299Z</time></trkpt><trkpt lat="43.4002733" lon="11.7928167"><ele>260.0</ele><time>2026-03-24T16:09:18.297Z</time></trkpt><trkpt lat="43.4003433" lon="11.7928817"><ele>260.0</ele><time>2026-03-24T16:09:20.297Z</time></trkpt><trkpt lat="43.40042" lon="11.7929483"><ele>260.0</ele><time>2026-03-24T16:09:22.3Z</time></trkpt><trkpt lat="43.4004917" lon="11.7930133"><ele>260.0</ele><time>2026-03-24T16:09:24.299Z</time></trkpt><trkpt lat="43.4005633" lon="11.7930833"><ele>260.0</ele><time>2026-03-24T16:09:26.299Z</time></trkpt><trkpt lat="43.4006333" lon="11.79315"><ele>260.0</ele><time>2026-03-24T16:09:28.297Z</time></trkpt><trkpt lat="43.4007033" lon="11.7932183"><ele>260.0</ele><time>2026-03-24T16:09:30.298Z</time></trkpt><trkpt lat="43.4007733" lon="11.79329"><ele>260.1666666666667</ele><time>2026-03-24T16:09:32.298Z</time></trkpt><trkpt lat="43.400845" lon="11.7933633"><ele>260.33333333333337</ele><time>2026-03-24T16:09:34.299Z</time></trkpt><trkpt lat="43.40091" lon="11.79344"><ele>260.5</ele><time>2026-03-24T16:09:36.302Z</time></trkpt><trkpt lat="43.40098" lon="11.7935133"><ele>260.6666666666667</ele><time>2026-03-24T16:09:38.299Z</time></trkpt><trkpt lat="43.401055" lon="11.7935867"><ele>260.8333333333333</ele><time>2026-03-24T16:09:40.299Z</time></trkpt><trkpt lat="43.4011283" lon="11.7936517"><ele>261.0</ele><time>2026-03-24T16:09:42.3Z</time></trkpt><trkpt lat="43.401195" lon="11.79372"><ele>261.0</ele><time>2026-03-24T16:09:44.298Z</time></trkpt><trkpt lat="43.4012667" lon="11.793785"><ele>261.0</ele><time>2026-03-24T16:09:46.298Z</time></trkpt><trkpt lat="43.4013417" lon="11.7938567"><ele>261.0</ele><time>2026-03-24T16:09:48.3Z</time></trkpt><trkpt lat="43.4014167" lon="11.7939267"><ele>261.0</ele><time>2026-03-24T16:09:50.297Z</time></trkpt><trkpt lat="43.4014867" lon="11.7940067"><ele>261.0</ele><time>2026-03-24T16:09:52.3Z</time></trkpt><trkpt lat="43.4015683" lon="11.79408"><ele>261.0</ele><time>2026-03-24T16:09:54.297Z</time></trkpt><trkpt lat="43.4016567" lon="11.7941417"><ele>261.0</ele><time>2026-03-24T16:09:56.3Z</time></trkpt><trkpt lat="43.4017483" lon="11.7942"><ele>261.0</ele><time>2026-03-24T16:09:58.301Z</time></trkpt><trkpt lat="43.4018433" lon="11.7942617"><ele>261.0</ele><time>2026-03-24T16:10:00.3Z</time></trkpt><trkpt lat="43.401935" lon="11.7943317"><ele>261.0</ele><time>2026-03-24T16:10:02.299Z</time></trkpt><trkpt lat="43.4020383" lon="11.7943983"><ele>261.0</ele><time>2026-03-24T16:10:04.299Z</time></trkpt><trkpt lat="43.402145" lon="11.7944717"><ele>261.0</ele><time>2026-03-24T16:10:06.298Z</time></trkpt><trkpt lat="43.4022533" lon="11.7945433"><ele>261.0</ele><time>2026-03-24T16:10:08.299Z</time></trkpt><trkpt lat="43.402365" lon="11.7946117"><ele>261.0</ele><time>2026-03-24T16:10:10.3Z</time></trkpt><trkpt lat="43.4024217" lon="11.79465"><ele>261.0</ele><time>2026-03-24T16:10:11.296Z</time></trkpt><trkpt lat="43.40253" lon="11.7947333"><ele>260.8</ele><time>2026-03-24T16:10:13.298Z</time></trkpt><trkpt lat="43.402625" lon="11.7948067"><ele>260.6</ele><time>2026-03-24T16:10:15.297Z</time></trkpt><trkpt lat="43.40272" lon="11.79487"><ele>260.4</ele><time>2026-03-24T16:10:17.298Z</time></trkpt><trkpt lat="43.4028083" lon="11.7949417"><ele>260.2</ele><time>2026-03-24T16:10:19.299Z</time></trkpt><trkpt lat="43.4029033" lon="11.795005"><ele>260.0</ele><time>2026-03-24T16:10:21.298Z</time></trkpt><trkpt lat="43.4029967" lon="11.7950767"><ele>260.0</ele><time>2026-03-24T16:10:23.296Z</time></trkpt><trkpt lat="43.40309" lon="11.7951467"><ele>260.0</ele><time>2026-03-24T16:10:25.297Z</time></trkpt><trkpt lat="43.40318" lon="11.7952183"><ele>260.0</ele><time>2026-03-24T16:10:27.297Z</time></trkpt><trkpt lat="43.4032667" lon="11.7952917"><ele>260.0</ele><time>2026-03-24T16:10:29.298Z</time></trkpt><trkpt lat="43.4033617" lon="11.79536"><ele>260.0</ele><time>2026-03-24T16:10:31.298Z</time></trkpt><trkpt lat="43.403455" lon="11.795435"><ele>260.0</ele><time>2026-03-24T16:10:33.298Z</time></trkpt><trkpt lat="43.4035467" lon="11.7955117"><ele>260.0</ele><time>2026-03-24T16:10:35.297Z</time></trkpt><trkpt lat="43.4036483" lon="11.79558"><ele>260.0</ele><time>2026-03-24T16:10:37.298Z</time></trkpt><trkpt lat="43.4037467" lon="11.7956483"><ele>260.0</ele><time>2026-03-24T16:10:39.299Z</time></trkpt><trkpt lat="43.403845" lon="11.79571"><ele>260.0</ele><time>2026-03-24T16:10:41.298Z</time></trkpt><trkpt lat="43.4039417" lon="11.7957767"><ele>260.0</ele><time>2026-03-24T16:10:43.299Z</time></trkpt><trkpt lat="43.4040383" lon="11.7958417"><ele>260.0</ele><time>2026-03-24T16:10:45.299Z</time></trkpt><trkpt lat="43.4041317" lon="11.79591"><ele>260.0</ele><time>2026-03-24T16:10:47.296Z</time></trkpt><trkpt lat="43.4042217" lon="11.7959683"><ele>260.0</ele><time>2026-03-24T16:10:49.298Z</time></trkpt><trkpt lat="43.4043117" lon="11.796035"><ele>260.0</ele><time>2026-03-24T16:10:51.298Z</time></trkpt><trkpt lat="43.404405" lon="11.796095"><ele>260.0</ele><time>2026-03-24T16:10:53.298Z</time></trkpt><trkpt lat="43.4044933" lon="11.796155"><ele>260.0</ele><time>2026-03-24T16:10:55.299Z</time></trkpt><trkpt lat="43.4045767" lon="11.7962167"><ele>260.0</ele><time>2026-03-24T16:10:57.297Z</time></trkpt><trkpt lat="43.404665" lon="11.7962783"><ele>260.0</ele><time>2026-03-24T16:10:59.297Z</time></trkpt><trkpt lat="43.4047533" lon="11.7963467"><ele>260.0</ele><time>2026-03-24T16:11:01.297Z</time></trkpt><trkpt lat="43.4048367" lon="11.7964033"><ele>259.83333333333337</ele><time>2026-03-24T16:11:03.298Z</time></trkpt><trkpt lat="43.404915" lon="11.796465"><ele>259.6666666666667</ele><time>2026-03-24T16:11:05.297Z</time></trkpt><trkpt lat="43.404965" lon="11.796555"><ele>259.5</ele><time>2026-03-24T16:11:07.296Z</time></trkpt><trkpt lat="43.4049883" lon="11.7966683"><ele>259.3333333333333</ele><time>2026-03-24T16:11:09.299Z</time></trkpt><trkpt lat="43.405035" lon="11.7967817"><ele>259.16666666666663</ele><time>2026-03-24T16:11:11.298Z</time></trkpt><trkpt lat="43.4051133" lon="11.7968583"><ele>259.0</ele><time>2026-03-24T16:11:13.297Z</time></trkpt><trkpt lat="43.4052117" lon="11.796875"><ele>259.0</ele><time>2026-03-24T16:11:15.296Z</time></trkpt><trkpt lat="43.4052983" lon="11.7968033"><ele>259.0</ele><time>2026-03-24T16:11:17.297Z</time></trkpt><trkpt lat="43.4053283" lon="11.7966683"><ele>259.0</ele><time>2026-03-24T16:11:19.297Z</time></trkpt><trkpt lat="43.4053217" lon="11.7965167"><ele>259.0</ele><time>2026-03-24T16:11:21.299Z</time></trkpt><trkpt lat="43.4053133" lon="11.7963617"><ele>259.0</ele><time>2026-03-24T16:11:23.298Z</time></trkpt><trkpt lat="43.4053467" lon="11.7962133"><ele>259.0</ele><time>2026-03-24T16:11:25.298Z</time></trkpt><trkpt lat="43.4053967" lon="11.7960683"><ele>259.0</ele><time>2026-03-24T16:11:27.296Z</time></trkpt><trkpt lat="43.4054267" lon="11.7959917"><ele>259.0</ele><time>2026-03-24T16:11:28.297Z</time></trkpt><trkpt lat="43.4054767" lon="11.795845"><ele>259.0</ele><time>2026-03-24T16:11:30.297Z</time></trkpt><trkpt lat="43.4055167" lon="11.7956933"><ele>259.0</ele><time>2026-03-24T16:11:32.296Z</time></trkpt><trkpt lat="43.405555" lon="11.7955383"><ele>258.5</ele><time>2026-03-24T16:11:34.296Z</time></trkpt><trkpt lat="43.4056083" lon="11.7954017"><ele>258.0</ele><time>2026-03-24T16:11:36.297Z</time></trkpt><trkpt lat="43.4057233" lon="11.79543"><ele>257.5</ele><time>2026-03-24T16:11:38.296Z</time></trkpt><trkpt lat="43.40583" lon="11.7955133"><ele>257.0</ele><time>2026-03-24T16:11:40.3Z</time></trkpt><trkpt lat="43.4059367" lon="11.7955867"><ele>257.0</ele><time>2026-03-24T16:11:42.297Z</time></trkpt><trkpt lat="43.40604" lon="11.7956483"><ele>257.0</ele><time>2026-03-24T16:11:44.296Z</time></trkpt><trkpt lat="43.4061383" lon="11.7957233"><ele>257.0</ele><time>2026-03-24T16:11:46.299Z</time></trkpt><trkpt lat="43.4062283" lon="11.7957933"><ele>257.0</ele><time>2026-03-24T16:11:48.297Z</time></trkpt><trkpt lat="43.40632" lon="11.7958467"><ele>257.0</ele><time>2026-03-24T16:11:50.296Z</time></trkpt><trkpt lat="43.4064067" lon="11.79591"><ele>256.8</ele><time>2026-03-24T16:11:52.298Z</time></trkpt><trkpt lat="43.4064967" lon="11.7959783"><ele>256.6</ele><time>2026-03-24T16:11:54.296Z</time></trkpt><trkpt lat="43.4065867" lon="11.7960483"><ele>256.40000000000003</ele><time>2026-03-24T16:11:56.3Z</time></trkpt><trkpt lat="43.40668" lon="11.796115"><ele>256.2</ele><time>2026-03-24T16:11:58.3Z</time></trkpt><trkpt lat="43.406785" lon="11.7961533"><ele>256.0</ele><time>2026-03-24T16:12:00.301Z</time></trkpt><trkpt lat="43.4069033" lon="11.796125"><ele>256.0</ele><time>2026-03-24T16:12:02.301Z</time></trkpt><trkpt lat="43.4069633" lon="11.79608"><ele>255.99999999999997</ele><time>2026-03-24T16:12:03.3Z</time></trkpt><trkpt lat="43.4070167" lon="11.7960167"><ele>256.0</ele><time>2026-03-24T16:12:04.298Z</time></trkpt><trkpt lat="43.40707" lon="11.7959583"><ele>256.0</ele><time>2026-03-24T16:12:05.297Z</time></trkpt><trkpt lat="43.4071267" lon="11.795895"><ele>255.99999999999997</ele><time>2026-03-24T16:12:06.298Z</time></trkpt><trkpt lat="43.4071833" lon="11.795835"><ele>256.0</ele><time>2026-03-24T16:12:07.299Z</time></trkpt><trkpt lat="43.4072417" lon="11.7957733"><ele>256.0</ele><time>2026-03-24T16:12:08.3Z</time></trkpt><trkpt lat="43.4073" lon="11.7957117"><ele>255.16666666666666</ele><time>2026-03-24T16:12:09.3Z</time></trkpt><trkpt lat="43.4073583" lon="11.7956467"><ele>254.33333333333331</ele><time>2026-03-24T16:12:10.299Z</time></trkpt><trkpt lat="43.407415" lon="11.79558"><ele>253.5</ele><time>2026-03-24T16:12:11.298Z</time></trkpt><trkpt lat="43.40747" lon="11.7955117"><ele>252.66666666666669</ele><time>2026-03-24T16:12:12.297Z</time></trkpt><trkpt lat="43.4075233" lon="11.79544"><ele>251.83333333333334</ele><time>2026-03-24T16:12:13.297Z</time></trkpt><trkpt lat="43.4075817" lon="11.7953717"><ele>251.0</ele><time>2026-03-24T16:12:14.3Z</time></trkpt><trkpt lat="43.40764" lon="11.7953067"><ele>251.00000000000003</ele><time>2026-03-24T16:12:15.299Z</time></trkpt><trkpt lat="43.4077" lon="11.7952417"><ele>251.0</ele><time>2026-03-24T16:12:16.296Z</time></trkpt><trkpt lat="43.4077517" lon="11.795185"><ele>251.0</ele><time>2026-03-24T16:12:17.297Z</time></trkpt><trkpt lat="43.4078017" lon="11.79513"><ele>251.0</ele><time>2026-03-24T16:12:18.298Z</time></trkpt><trkpt lat="43.4078783" lon="11.79507"><ele>251.00000000000003</ele><time>2026-03-24T16:12:20.298Z</time></trkpt><trkpt lat="43.4079683" lon="11.7951133"><ele>251.0</ele><time>2026-03-24T16:12:23.298Z</time></trkpt><trkpt lat="43.408025" lon="11.795205"><ele>250.8</ele><time>2026-03-24T16:12:25.298Z</time></trkpt><trkpt lat="43.4080783" lon="11.79531"><ele>250.60000000000002</ele><time>2026-03-24T16:12:27.298Z</time></trkpt><trkpt lat="43.4081367" lon="11.795415"><ele>250.4</ele><time>2026-03-24T16:12:29.299Z</time></trkpt><trkpt lat="43.4082017" lon="11.7955183"><ele>250.2</ele><time>2026-03-24T16:12:31.299Z</time></trkpt><trkpt lat="43.4082717" lon="11.79562"><ele>250.0</ele><time>2026-03-24T16:12:33.297Z</time></trkpt><trkpt lat="43.4083467" lon="11.7957267"><ele>250.0</ele><time>2026-03-24T16:12:35.297Z</time></trkpt><trkpt lat="43.40842" lon="11.7958417"><ele>250.0</ele><time>2026-03-24T16:12:37.3Z</time></trkpt><trkpt lat="43.4084933" lon="11.7959717"><ele>250.0</ele><time>2026-03-24T16:12:39.301Z</time></trkpt><trkpt lat="43.4085617" lon="11.7961017"><ele>250.0</ele><time>2026-03-24T16:12:41.3Z</time></trkpt><trkpt lat="43.4086283" lon="11.7962233"><ele>250.0</ele><time>2026-03-24T16:12:43.297Z</time></trkpt><trkpt lat="43.408695" lon="11.7963433"><ele>250.0</ele><time>2026-03-24T16:12:45.3Z</time></trkpt><trkpt lat="43.4087633" lon="11.79646"><ele>250.0</ele><time>2026-03-24T16:12:47.3Z</time></trkpt><trkpt lat="43.40884" lon="11.796565"><ele>250.0</ele><time>2026-03-24T16:12:49.299Z</time></trkpt><trkpt lat="43.4089033" lon="11.796675"><ele>250.0</ele><time>2026-03-24T16:12:51.298Z</time></trkpt><trkpt lat="43.4089667" lon="11.7967783"><ele>249.6</ele><time>2026-03-24T16:12:53.296Z</time></trkpt><trkpt lat="43.4090333" lon="11.7968767"><ele>249.2</ele><time>2026-03-24T16:12:55.298Z</time></trkpt><trkpt lat="43.4090967" lon="11.79698"><ele>248.8</ele><time>2026-03-24T16:12:57.3Z</time></trkpt><trkpt lat="43.409155" lon="11.797075"><ele>248.4</ele><time>2026-03-24T16:12:59.298Z</time></trkpt><trkpt lat="43.4092133" lon="11.7971683"><ele>248.0</ele><time>2026-03-24T16:13:01.3Z</time></trkpt><trkpt lat="43.409265" lon="11.7972617"><ele>248.0</ele><time>2026-03-24T16:13:03.299Z</time></trkpt><trkpt lat="43.4093117" lon="11.797345"><ele>248.00000000000003</ele><time>2026-03-24T16:13:05.298Z</time></trkpt><trkpt lat="43.4093433" lon="11.7974217"><ele>248.0</ele><time>2026-03-24T16:13:07.297Z</time></trkpt><trkpt lat="43.4093767" lon="11.7974983"><ele>248.0</ele><time>2026-03-24T16:13:10.297Z</time></trkpt><trkpt lat="43.409445" lon="11.7975233"><ele>248.00000000000003</ele><time>2026-03-24T16:13:31.297Z</time></trkpt><trkpt lat="43.4095067" lon="11.797455"><ele>248.0</ele><time>2026-03-24T16:13:34.297Z</time></trkpt><trkpt lat="43.4095533" lon="11.7973667"><ele>248.0</ele><time>2026-03-24T16:13:38.299Z</time></trkpt><trkpt lat="43.40949" lon="11.7974083"><ele>248.0</ele><time>2026-03-24T16:13:48.299Z</time></trkpt><trkpt lat="43.4095" lon="11.7975083"><ele>248.00000000000003</ele><time>2026-03-24T16:13:51.298Z</time></trkpt><trkpt lat="43.4095367" lon="11.7975817"><ele>248.0</ele><time>2026-03-24T16:13:53.296Z</time></trkpt><trkpt lat="43.4095733" lon="11.79766"><ele>248.0</ele><time>2026-03-24T16:13:55.301Z</time></trkpt><trkpt lat="43.4096383" lon="11.7977383"><ele>248.00000000000003</ele><time>2026-03-24T16:13:58.299Z</time></trkpt><trkpt lat="43.4097" lon="11.7977733"><ele>248.0</ele><time>2026-03-24T16:14:00.298Z</time></trkpt><trkpt lat="43.409765" lon="11.7977817"><ele>248.0</ele><time>2026-03-24T16:14:02.299Z</time></trkpt><trkpt lat="43.4098783" lon="11.7977683"><ele>248.00000000000003</ele><time>2026-03-24T16:14:10.302Z</time></trkpt><trkpt lat="43.40997" lon="11.7977383"><ele>248.0</ele><time>2026-03-24T16:14:13.3Z</time></trkpt><trkpt lat="43.41004" lon="11.797715"><ele>248.0</ele><time>2026-03-24T16:14:15.299Z</time></trkpt><trkpt lat="43.41012" lon="11.7977467"><ele>248.0</ele><time>2026-03-24T16:14:18.298Z</time></trkpt><trkpt lat="43.4101867" lon="11.797805"><ele>248.00000000000003</ele><time>2026-03-24T16:14:21.3Z</time></trkpt><trkpt lat="43.410245" lon="11.7978783"><ele>248.0</ele><time>2026-03-24T16:14:24.299Z</time></trkpt><trkpt lat="43.4103033" lon="11.7979383"><ele>248.0</ele><time>2026-03-24T16:14:27.299Z</time></trkpt><trkpt lat="43.4103717" lon="11.798015"><ele>248.00000000000003</ele><time>2026-03-24T16:14:30.297Z</time></trkpt><trkpt lat="43.410425" lon="11.7980617"><ele>248.0</ele><time>2026-03-24T16:14:32.298Z</time></trkpt><trkpt lat="43.41049" lon="11.7980983"><ele>248.0</ele><time>2026-03-24T16:14:34.299Z</time></trkpt><trkpt lat="43.410545" lon="11.798155"><ele>248.00000000000003</ele><time>2026-03-24T16:14:36.298Z</time></trkpt><trkpt lat="43.410605" lon="11.798205"><ele>248.0</ele><time>2026-03-24T16:14:38.299Z</time></trkpt><trkpt lat="43.410675" lon="11.798245"><ele>248.0</ele><time>2026-03-24T16:14:40.299Z</time></trkpt><trkpt lat="43.4107417" lon="11.7982967"><ele>247.83333333333334</ele><time>2026-03-24T16:14:42.3Z</time></trkpt><trkpt lat="43.410815" lon="11.79835"><ele>247.66666666666669</ele><time>2026-03-24T16:14:44.301Z</time></trkpt><trkpt lat="43.4108833" lon="11.7983917"><ele>247.5</ele><time>2026-03-24T16:14:46.301Z</time></trkpt><trkpt lat="43.4109567" lon="11.7984067"><ele>247.33333333333331</ele><time>2026-03-24T16:14:48.298Z</time></trkpt><trkpt lat="43.4110283" lon="11.798375"><ele>247.16666666666666</ele><time>2026-03-24T16:14:50.298Z</time></trkpt><trkpt lat="43.4111067" lon="11.798335"><ele>247.0</ele><time>2026-03-24T16:14:52.3Z</time></trkpt><trkpt lat="43.4111767" lon="11.7982717"><ele>247.0</ele><time>2026-03-24T16:14:54.299Z</time></trkpt><trkpt lat="43.4112517" lon="11.798195"><ele>247.0</ele><time>2026-03-24T16:14:56.299Z</time></trkpt><trkpt lat="43.41133" lon="11.7981183"><ele>247.0</ele><time>2026-03-24T16:14:58.298Z</time></trkpt><trkpt lat="43.4114017" lon="11.7980367"><ele>247.0</ele><time>2026-03-24T16:15:00.299Z</time></trkpt><trkpt lat="43.4114633" lon="11.797955"><ele>247.0</ele><time>2026-03-24T16:15:02.298Z</time></trkpt><trkpt lat="43.411525" lon="11.797865"><ele>247.16666666666666</ele><time>2026-03-24T16:15:04.298Z</time></trkpt><trkpt lat="43.411595" lon="11.797785"><ele>247.33333333333331</ele><time>2026-03-24T16:15:06.298Z</time></trkpt><trkpt lat="43.41166" lon="11.797705"><ele>247.5</ele><time>2026-03-24T16:15:08.299Z</time></trkpt><trkpt lat="43.4117233" lon="11.79763"><ele>247.66666666666669</ele><time>2026-03-24T16:15:10.301Z</time></trkpt><trkpt lat="43.4117883" lon="11.797555"><ele>247.83333333333334</ele><time>2026-03-24T16:15:12.303Z</time></trkpt><trkpt lat="43.4118583" lon="11.79748"><ele>248.0</ele><time>2026-03-24T16:15:14.302Z</time></trkpt><trkpt lat="43.4119233" lon="11.7973983"><ele>248.16666666666669</ele><time>2026-03-24T16:15:16.299Z</time></trkpt><trkpt lat="43.4119833" lon="11.7973167"><ele>248.33333333333334</ele><time>2026-03-24T16:15:18.303Z</time></trkpt><trkpt lat="43.412045" lon="11.7972517"><ele>248.5</ele><time>2026-03-24T16:15:20.299Z</time></trkpt><trkpt lat="43.4121133" lon="11.79723"><ele>248.66666666666669</ele><time>2026-03-24T16:15:22.3Z</time></trkpt><trkpt lat="43.4121733" lon="11.7972617"><ele>248.83333333333334</ele><time>2026-03-24T16:15:24.3Z</time></trkpt><trkpt lat="43.4122383" lon="11.79736"><ele>249.0</ele><time>2026-03-24T16:15:27.301Z</time></trkpt><trkpt lat="43.4123267" lon="11.7973333"><ele>249.0</ele><time>2026-03-24T16:15:30.298Z</time></trkpt><trkpt lat="43.4123767" lon="11.797245"><ele>249.0</ele><time>2026-03-24T16:15:32.3Z</time></trkpt><trkpt lat="43.412435" lon="11.7971617"><ele>249.0</ele><time>2026-03-24T16:15:34.301Z</time></trkpt><trkpt lat="43.4125017" lon="11.7970767"><ele>249.0</ele><time>2026-03-24T16:15:36.3Z</time></trkpt><trkpt lat="43.4125683" lon="11.7969967"><ele>249.0</ele><time>2026-03-24T16:15:38.299Z</time></trkpt><trkpt lat="43.412645" lon="11.79691"><ele>249.0</ele><time>2026-03-24T16:15:40.299Z</time></trkpt><trkpt lat="43.41272" lon="11.796835"><ele>248.83333333333334</ele><time>2026-03-24T16:15:42.297Z</time></trkpt><trkpt lat="43.4127817" lon="11.79676"><ele>248.66666666666669</ele><time>2026-03-24T16:15:44.3Z</time></trkpt><trkpt lat="43.41284" lon="11.7966817"><ele>248.5</ele><time>2026-03-24T16:15:46.301Z</time></trkpt><trkpt lat="43.4129033" lon="11.7965983"><ele>248.33333333333334</ele><time>2026-03-24T16:15:48.302Z</time></trkpt><trkpt lat="43.41297" lon="11.7965283"><ele>248.16666666666669</ele><time>2026-03-24T16:15:50.298Z</time></trkpt><trkpt lat="43.4130317" lon="11.7965"><ele>248.0</ele><time>2026-03-24T16:15:52.301Z</time></trkpt><trkpt lat="43.41311" lon="11.7965817"><ele>247.83333333333334</ele><time>2026-03-24T16:15:55.301Z</time></trkpt><trkpt lat="43.4131583" lon="11.7966783"><ele>247.66666666666669</ele><time>2026-03-24T16:15:57.3Z</time></trkpt><trkpt lat="43.4132167" lon="11.79677"><ele>247.5</ele><time>2026-03-24T16:15:59.298Z</time></trkpt><trkpt lat="43.413265" lon="11.7968633"><ele>247.33333333333331</ele><time>2026-03-24T16:16:01.298Z</time></trkpt><trkpt lat="43.4133117" lon="11.796945"><ele>247.16666666666666</ele><time>2026-03-24T16:16:03.301Z</time></trkpt><trkpt lat="43.4133667" lon="11.7970283"><ele>247.0</ele><time>2026-03-24T16:16:05.298Z</time></trkpt><trkpt lat="43.41342" lon="11.7971017"><ele>247.0</ele><time>2026-03-24T16:16:07.299Z</time></trkpt><trkpt lat="43.4134567" lon="11.79718"><ele>247.0</ele><time>2026-03-24T16:16:09.301Z</time></trkpt><trkpt lat="43.4135" lon="11.7972517"><ele>247.0</ele><time>2026-03-24T16:16:11.3Z</time></trkpt><trkpt lat="43.4135583" lon="11.7973283"><ele>247.0</ele><time>2026-03-24T16:16:14.299Z</time></trkpt><trkpt lat="43.41362" lon="11.79735"><ele>247.0</ele><time>2026-03-24T16:16:16.299Z</time></trkpt><trkpt lat="43.4136933" lon="11.79734"><ele>247.0</ele><time>2026-03-24T16:16:18.301Z</time></trkpt><trkpt lat="43.413765" lon="11.79729"><ele>247.0</ele><time>2026-03-24T16:16:20.301Z</time></trkpt><trkpt lat="43.41384" lon="11.7972283"><ele>246.99999999999997</ele><time>2026-03-24T16:16:22.299Z</time></trkpt><trkpt lat="43.4139217" lon="11.7971717"><ele>247.0</ele><time>2026-03-24T16:16:24.299Z</time></trkpt><trkpt lat="43.4140033" lon="11.7971183"><ele>247.0</ele><time>2026-03-24T16:16:26.3Z</time></trkpt><trkpt lat="43.4140767" lon="11.7970717"><ele>247.0</ele><time>2026-03-24T16:16:28.3Z</time></trkpt><trkpt lat="43.41415" lon="11.7970317"><ele>246.99999999999997</ele><time>2026-03-24T16:16:30.3Z</time></trkpt><trkpt lat="43.4142217" lon="11.796995"><ele>247.0</ele><time>2026-03-24T16:16:32.3Z</time></trkpt><trkpt lat="43.4142967" lon="11.7969633"><ele>246.99999999999997</ele><time>2026-03-24T16:16:34.3Z</time></trkpt><trkpt lat="43.414375" lon="11.7969367"><ele>247.0</ele><time>2026-03-24T16:16:36.301Z</time></trkpt><trkpt lat="43.41444" lon="11.7969467"><ele>247.0</ele><time>2026-03-24T16:16:38.301Z</time></trkpt><trkpt lat="43.414515" lon="11.796955"><ele>247.0</ele><time>2026-03-24T16:16:42.298Z</time></trkpt><trkpt lat="43.4145967" lon="11.79692"><ele>246.99999999999997</ele><time>2026-03-24T16:16:46.299Z</time></trkpt><trkpt lat="43.4146883" lon="11.796895"><ele>247.0</ele><time>2026-03-24T16:16:49.298Z</time></trkpt><trkpt lat="43.4147583" lon="11.7968617"><ele>246.99999999999997</ele><time>2026-03-24T16:16:51.298Z</time></trkpt><trkpt lat="43.41483" lon="11.7968267"><ele>247.0</ele><time>2026-03-24T16:16:53.301Z</time></trkpt><trkpt lat="43.41489" lon="11.7967983"><ele>247.0</ele><time>2026-03-24T16:16:55.302Z</time></trkpt><trkpt lat="43.41498" lon="11.7967667"><ele>247.0</ele><time>2026-03-24T16:16:58.3Z</time></trkpt><trkpt lat="43.415055" lon="11.7967783"><ele>246.99999999999997</ele><time>2026-03-24T16:17:02.298Z</time></trkpt><trkpt lat="43.415155" lon="11.7967617"><ele>247.0</ele><time>2026-03-24T16:17:15.298Z</time></trkpt><trkpt lat="43.41508" lon="11.7968133"><ele>246.66666666666666</ele><time>2026-03-24T16:17:48.3Z</time></trkpt><trkpt lat="43.4150817" lon="11.79691"><ele>246.33333333333331</ele><time>2026-03-24T16:17:51.299Z</time></trkpt><trkpt lat="43.4151" lon="11.797035"><ele>246.0</ele><time>2026-03-24T16:17:54.301Z</time></trkpt><trkpt lat="43.4151117" lon="11.7971633"><ele>245.66666666666669</ele><time>2026-03-24T16:17:57.3Z</time></trkpt><trkpt lat="43.4151283" lon="11.7972767"><ele>245.33333333333334</ele><time>2026-03-24T16:18:00.299Z</time></trkpt><trkpt lat="43.41514" lon="11.7973783"><ele>245.0</ele><time>2026-03-24T16:18:03.3Z</time></trkpt><trkpt lat="43.41514" lon="11.7974833"><ele>245.00000000000003</ele><time>2026-03-24T16:18:06.299Z</time></trkpt><trkpt lat="43.4151533" lon="11.79757"><ele>245.0</ele><time>2026-03-24T16:18:08.297Z</time></trkpt><trkpt lat="43.415165" lon="11.7976583"><ele>245.0</ele><time>2026-03-24T16:18:10.298Z</time></trkpt><trkpt lat="43.4151917" lon="11.797785"><ele>245.0</ele><time>2026-03-24T16:18:13.304Z</time></trkpt><trkpt lat="43.4152117" lon="11.7978867"><ele>245.00000000000003</ele><time>2026-03-24T16:18:15.299Z</time></trkpt><trkpt lat="43.4152267" lon="11.7979917"><ele>245.0</ele><time>2026-03-24T16:18:17.301Z</time></trkpt><trkpt lat="43.415245" lon="11.7980967"><ele>244.85714285714286</ele><time>2026-03-24T16:18:19.298Z</time></trkpt><trkpt lat="43.4152583" lon="11.7981983"><ele>244.71428571428572</ele><time>2026-03-24T16:18:21.299Z</time></trkpt><trkpt lat="43.4152733" lon="11.7982933"><ele>244.57142857142856</ele><time>2026-03-24T16:18:23.299Z</time></trkpt><trkpt lat="43.415285" lon="11.7983867"><ele>244.42857142857142</ele><time>2026-03-24T16:18:25.298Z</time></trkpt><trkpt lat="43.4153017" lon="11.7984783"><ele>244.28571428571428</ele><time>2026-03-24T16:18:27.304Z</time></trkpt><trkpt lat="43.4153133" lon="11.79857"><ele>244.1428571428571</ele><time>2026-03-24T16:18:29.3Z</time></trkpt><trkpt lat="43.41533" lon="11.7986567"><ele>243.99999999999997</ele><time>2026-03-24T16:18:31.301Z</time></trkpt><trkpt lat="43.4153483" lon="11.7987433"><ele>243.85714285714283</ele><time>2026-03-24T16:18:33.301Z</time></trkpt><trkpt lat="43.4153617" lon="11.7988383"><ele>243.71428571428572</ele><time>2026-03-24T16:18:35.301Z</time></trkpt><trkpt lat="43.4153767" lon="11.7989317"><ele>243.57142857142856</ele><time>2026-03-24T16:18:37.301Z</time></trkpt><trkpt lat="43.4153917" lon="11.7990217"><ele>243.42857142857142</ele><time>2026-03-24T16:18:39.301Z</time></trkpt><trkpt lat="43.41541" lon="11.7991117"><ele>243.28571428571428</ele><time>2026-03-24T16:18:41.3Z</time></trkpt><trkpt lat="43.4154267" lon="11.7992433"><ele>243.14285714285714</ele><time>2026-03-24T16:18:44.3Z</time></trkpt><trkpt lat="43.4154383" lon="11.799335"><ele>243.0</ele><time>2026-03-24T16:18:46.3Z</time></trkpt><trkpt lat="43.4154533" lon="11.7994233"><ele>243.0</ele><time>2026-03-24T16:18:48.3Z</time></trkpt><trkpt lat="43.415465" lon="11.7995167"><ele>243.0</ele><time>2026-03-24T16:18:50.301Z</time></trkpt><trkpt lat="43.4154783" lon="11.7996133"><ele>243.0</ele><time>2026-03-24T16:18:52.301Z</time></trkpt><trkpt lat="43.4154967" lon="11.79971"><ele>243.0</ele><time>2026-03-24T16:18:54.299Z</time></trkpt><trkpt lat="43.4155133" lon="11.799805"><ele>243.0</ele><time>2026-03-24T16:18:56.299Z</time></trkpt><trkpt lat="43.4155217" lon="11.7998933"><ele>243.0</ele><time>2026-03-24T16:18:58.299Z</time></trkpt><trkpt lat="43.4155383" lon="11.79998"><ele>243.0</ele><time>2026-03-24T16:19:00.301Z</time></trkpt><trkpt lat="43.41557" lon="11.8000933"><ele>243.28571428571428</ele><time>2026-03-24T16:19:03.3Z</time></trkpt><trkpt lat="43.4156367" lon="11.8001183"><ele>243.57142857142858</ele><time>2026-03-24T16:19:05.3Z</time></trkpt><trkpt lat="43.41571" lon="11.800045"><ele>243.85714285714286</ele><time>2026-03-24T16:19:08.298Z</time></trkpt><trkpt lat="43.4157533" lon="11.7999783"><ele>244.14285714285714</ele><time>2026-03-24T16:19:10.301Z</time></trkpt><trkpt lat="43.4157983" lon="11.799915"><ele>244.42857142857144</ele><time>2026-03-24T16:19:12.302Z</time></trkpt><trkpt lat="43.415845" lon="11.799855"><ele>244.71428571428572</ele><time>2026-03-24T16:19:14.299Z</time></trkpt><trkpt lat="43.4158917" lon="11.79979"><ele>245.0</ele><time>2026-03-24T16:19:16.299Z</time></trkpt><trkpt lat="43.4159417" lon="11.7997233"><ele>245.00000000000003</ele><time>2026-03-24T16:19:18.3Z</time></trkpt><trkpt lat="43.4159933" lon="11.799655"><ele>245.0</ele><time>2026-03-24T16:19:20.3Z</time></trkpt><trkpt lat="43.416045" lon="11.799585"><ele>245.0</ele><time>2026-03-24T16:19:22.298Z</time></trkpt><trkpt lat="43.4160983" lon="11.7995217"><ele>245.0</ele><time>2026-03-24T16:19:24.299Z</time></trkpt><trkpt lat="43.4161567" lon="11.79943"><ele>245.00000000000003</ele><time>2026-03-24T16:19:27.298Z</time></trkpt><trkpt lat="43.4162183" lon="11.7993383"><ele>245.0</ele><time>2026-03-24T16:19:30.298Z</time></trkpt><trkpt lat="43.4162833" lon="11.799245"><ele>245.16666666666669</ele><time>2026-03-24T16:19:33.3Z</time></trkpt><trkpt lat="43.416345" lon="11.7991583"><ele>245.33333333333334</ele><time>2026-03-24T16:19:36.301Z</time></trkpt><trkpt lat="43.4164167" lon="11.79908"><ele>245.5</ele><time>2026-03-24T16:19:39.3Z</time></trkpt><trkpt lat="43.4164633" lon="11.79902"><ele>245.66666666666669</ele><time>2026-03-24T16:19:41.3Z</time></trkpt><trkpt lat="43.4165317" lon="11.79895"><ele>245.83333333333334</ele><time>2026-03-24T16:19:44.301Z</time></trkpt><trkpt lat="43.4166033" lon="11.7988817"><ele>246.0</ele><time>2026-03-24T16:19:47.3Z</time></trkpt><trkpt lat="43.4166617" lon="11.7988433"><ele>246.0</ele><time>2026-03-24T16:19:49.301Z</time></trkpt><trkpt lat="43.416745" lon="11.7987983"><ele>246.0</ele><time>2026-03-24T16:19:52.303Z</time></trkpt><trkpt lat="43.416815" lon="11.7987483"><ele>246.0</ele><time>2026-03-24T16:19:56.3Z</time></trkpt><trkpt lat="43.41688" lon="11.7987033"><ele>246.0</ele><time>2026-03-24T16:20:01.302Z</time></trkpt><trkpt lat="43.4169383" lon="11.7986567"><ele>246.0</ele><time>2026-03-24T16:20:05.304Z</time></trkpt><trkpt lat="43.416875" lon="11.79872"><ele>246.0</ele><time>2026-03-24T16:20:56.3Z</time></trkpt><trkpt lat="43.4168583" lon="11.7988133"><ele>246.00000000000003</ele><time>2026-03-24T16:21:00.321Z</time></trkpt><trkpt lat="43.416885" lon="11.7988933"><ele>246.0</ele><time>2026-03-24T16:21:03.301Z</time></trkpt><trkpt lat="43.4169383" lon="11.7989683"><ele>246.00000000000003</ele><time>2026-03-24T16:21:07.303Z</time></trkpt><trkpt lat="43.4169817" lon="11.7990433"><ele>246.00000000000003</ele><time>2026-03-24T16:21:12.299Z</time></trkpt><trkpt lat="43.4170033" lon="11.7991367"><ele>246.0</ele><time>2026-03-24T16:21:16.301Z</time></trkpt><trkpt lat="43.4170167" lon="11.7992283"><ele>246.00000000000003</ele><time>2026-03-24T16:21:20.301Z</time></trkpt><trkpt lat="43.4170217" lon="11.79914"><ele>246.00000000000003</ele><time>2026-03-24T16:21:41.301Z</time></trkpt><trkpt lat="43.41701" lon="11.7990383"><ele>246.00000000000003</ele><time>2026-03-24T16:21:47.301Z</time></trkpt><trkpt lat="43.4170583" lon="11.7989783"><ele>246.0</ele><time>2026-03-24T16:21:58.298Z</time></trkpt><trkpt lat="43.4171017" lon="11.79905"><ele>246.00000000000003</ele><time>2026-03-24T16:22:03.3Z</time></trkpt><trkpt lat="43.41715" lon="11.79913"><ele>246.00000000000003</ele><time>2026-03-24T16:22:07.301Z</time></trkpt><trkpt lat="43.4171867" lon="11.799215"><ele>246.0</ele><time>2026-03-24T16:22:11.298Z</time></trkpt><trkpt lat="43.4172317" lon="11.7993017"><ele>246.00000000000003</ele><time>2026-03-24T16:22:15.302Z</time></trkpt><trkpt lat="43.4172733" lon="11.799385"><ele>246.00000000000003</ele><time>2026-03-24T16:22:19.299Z</time></trkpt><trkpt lat="43.4172333" lon="11.799305"><ele>246.0</ele><time>2026-03-24T16:22:45.301Z</time></trkpt><trkpt lat="43.4171967" lon="11.7992317"><ele>246.0</ele><time>2026-03-24T16:22:48.299Z</time></trkpt><trkpt lat="43.4171483" lon="11.7991383"><ele>246.0</ele><time>2026-03-24T16:22:52.301Z</time></trkpt><trkpt lat="43.417095" lon="11.799055"><ele>246.0</ele><time>2026-03-24T16:22:56.3Z</time></trkpt><trkpt lat="43.4170183" lon="11.799015"><ele>246.0</ele><time>2026-03-24T16:23:00.301Z</time></trkpt><trkpt lat="43.41695" lon="11.7989683"><ele>246.0</ele><time>2026-03-24T16:23:05.299Z</time></trkpt><trkpt lat="43.41689" lon="11.7989033"><ele>246.00000000000003</ele><time>2026-03-24T16:23:10.301Z</time></trkpt><trkpt lat="43.4168533" lon="11.79881"><ele>246.0</ele><time>2026-03-24T16:23:14.299Z</time></trkpt><trkpt lat="43.4168633" lon="11.7987183"><ele>246.00000000000003</ele><time>2026-03-24T16:23:18.298Z</time></trkpt><trkpt lat="43.4169167" lon="11.79867"><ele>246.00000000000003</ele><time>2026-03-24T16:23:23.299Z</time></trkpt><trkpt lat="43.41697" lon="11.7986233"><ele>246.0</ele><time>2026-03-24T16:23:29.301Z</time></trkpt><trkpt lat="43.4170117" lon="11.7985467"><ele>246.00000000000003</ele><time>2026-03-24T16:24:12.299Z</time></trkpt><trkpt lat="43.417065" lon="11.798475"><ele>246.00000000000003</ele><time>2026-03-24T16:24:15.299Z</time></trkpt><trkpt lat="43.4171083" lon="11.7983817"><ele>246.00000000000003</ele><time>2026-03-24T16:24:18.3Z</time></trkpt><trkpt lat="43.4171517" lon="11.7982733"><ele>246.0</ele><time>2026-03-24T16:24:21.301Z</time></trkpt><trkpt lat="43.41719" lon="11.7982033"><ele>246.00000000000003</ele><time>2026-03-24T16:24:24.299Z</time></trkpt><trkpt lat="43.4171283" lon="11.7982467"><ele>246.00000000000003</ele><time>2026-03-24T16:24:32.298Z</time></trkpt><trkpt lat="43.4171067" lon="11.79833"><ele>246.0</ele><time>2026-03-24T16:24:35.3Z</time></trkpt><trkpt lat="43.4170567" lon="11.798415"><ele>246.00000000000003</ele><time>2026-03-24T16:24:39.299Z</time></trkpt><trkpt lat="43.4170083" lon="11.7984967"><ele>246.00000000000003</ele><time>2026-03-24T16:24:43.299Z</time></trkpt><trkpt lat="43.41695" lon="11.7985683"><ele>246.00000000000003</ele><time>2026-03-24T16:24:47.3Z</time></trkpt><trkpt lat="43.4168867" lon="11.7986283"><ele>246.0</ele><time>2026-03-24T16:24:51.3Z</time></trkpt><trkpt lat="43.41683" lon="11.7986867"><ele>246.00000000000003</ele><time>2026-03-24T16:24:56.303Z</time></trkpt><trkpt lat="43.41676" lon="11.7987433"><ele>246.00000000000003</ele><time>2026-03-24T16:24:59.299Z</time></trkpt><trkpt lat="43.4167017" lon="11.7987783"><ele>246.0</ele><time>2026-03-24T16:25:01.301Z</time></trkpt><trkpt lat="43.41664" lon="11.7988233"><ele>246.00000000000003</ele><time>2026-03-24T16:25:03.299Z</time></trkpt><trkpt lat="43.4165633" lon="11.79887"><ele>246.00000000000003</ele><time>2026-03-24T16:25:05.298Z</time></trkpt><trkpt lat="43.4165067" lon="11.7989233"><ele>246.0</ele><time>2026-03-24T16:25:07.301Z</time></trkpt><trkpt lat="43.4164533" lon="11.7989833"><ele>246.0</ele><time>2026-03-24T16:25:09.302Z</time></trkpt><trkpt lat="43.4164117" lon="11.79905"><ele>246.0</ele><time>2026-03-24T16:25:11.299Z</time></trkpt><trkpt lat="43.4163417" lon="11.799135"><ele>246.0</ele><time>2026-03-24T16:25:14.3Z</time></trkpt><trkpt lat="43.41628" lon="11.79921"><ele>246.0</ele><time>2026-03-24T16:25:17.298Z</time></trkpt><trkpt lat="43.4162167" lon="11.799295"><ele>246.0</ele><time>2026-03-24T16:25:20.3Z</time></trkpt><trkpt lat="43.4161717" lon="11.79936"><ele>245.83333333333334</ele><time>2026-03-24T16:25:22.301Z</time></trkpt><trkpt lat="43.4161267" lon="11.7994217"><ele>245.66666666666669</ele><time>2026-03-24T16:25:24.299Z</time></trkpt><trkpt lat="43.4160667" lon="11.7994983"><ele>245.5</ele><time>2026-03-24T16:25:27.301Z</time></trkpt><trkpt lat="43.416005" lon="11.7995817"><ele>245.33333333333334</ele><time>2026-03-24T16:25:30.298Z</time></trkpt><trkpt lat="43.4159367" lon="11.7996683"><ele>245.16666666666669</ele><time>2026-03-24T16:25:33.301Z</time></trkpt><trkpt lat="43.41589" lon="11.7997283"><ele>245.0</ele><time>2026-03-24T16:25:35.299Z</time></trkpt><trkpt lat="43.41583" lon="11.79981"><ele>245.00000000000003</ele><time>2026-03-24T16:25:38.306Z</time></trkpt><trkpt lat="43.4157783" lon="11.79989"><ele>245.0</ele><time>2026-03-24T16:25:41.299Z</time></trkpt><trkpt lat="43.4157183" lon="11.7999733"><ele>245.0</ele><time>2026-03-24T16:25:44.298Z</time></trkpt><trkpt lat="43.4156617" lon="11.8000683"><ele>245.0</ele><time>2026-03-24T16:25:47.298Z</time></trkpt><trkpt lat="43.415595" lon="11.8001283"><ele>245.00000000000003</ele><time>2026-03-24T16:25:50.299Z</time></trkpt><trkpt lat="43.4155417" lon="11.800065"><ele>245.0</ele><time>2026-03-24T16:25:59.299Z</time></trkpt><trkpt lat="43.4155383" lon="11.799965"><ele>245.00000000000003</ele><time>2026-03-24T16:26:02.303Z</time></trkpt><trkpt lat="43.4155283" lon="11.79984"><ele>245.0</ele><time>2026-03-24T16:26:05.299Z</time></trkpt><trkpt lat="43.415515" lon="11.79972"><ele>245.0</ele><time>2026-03-24T16:26:08.302Z</time></trkpt><trkpt lat="43.4155" lon="11.7996017"><ele>245.0</ele><time>2026-03-24T16:26:11.298Z</time></trkpt><trkpt lat="43.4154833" lon="11.7995117"><ele>245.00000000000003</ele><time>2026-03-24T16:26:13.301Z</time></trkpt><trkpt lat="43.41547" lon="11.799425"><ele>245.0</ele><time>2026-03-24T16:26:15.305Z</time></trkpt><trkpt lat="43.4154467" lon="11.7993033"><ele>244.66666666666669</ele><time>2026-03-24T16:26:18.298Z</time></trkpt><trkpt lat="43.4154267" lon="11.7991767"><ele>244.33333333333334</ele><time>2026-03-24T16:26:21.3Z</time></trkpt><trkpt lat="43.4154083" lon="11.79906"><ele>244.0</ele><time>2026-03-24T16:26:24.3Z</time></trkpt><trkpt lat="43.41539" lon="11.7989433"><ele>243.66666666666669</ele><time>2026-03-24T16:26:27.299Z</time></trkpt><trkpt lat="43.4153717" lon="11.79882"><ele>243.33333333333334</ele><time>2026-03-24T16:26:30.298Z</time></trkpt><trkpt lat="43.4153467" lon="11.7987033"><ele>243.0</ele><time>2026-03-24T16:26:33.3Z</time></trkpt><trkpt lat="43.4153283" lon="11.79858"><ele>243.16666666666666</ele><time>2026-03-24T16:26:36.3Z</time></trkpt><trkpt lat="43.415315" lon="11.7984583"><ele>243.33333333333331</ele><time>2026-03-24T16:26:39.3Z</time></trkpt><trkpt lat="43.4153017" lon="11.7983483"><ele>243.5</ele><time>2026-03-24T16:26:42.3Z</time></trkpt><trkpt lat="43.4152867" lon="11.79823"><ele>243.66666666666666</ele><time>2026-03-24T16:26:45.3Z</time></trkpt><trkpt lat="43.41527" lon="11.7981117"><ele>243.83333333333331</ele><time>2026-03-24T16:26:48.302Z</time></trkpt><trkpt lat="43.4152567" lon="11.797995"><ele>244.0</ele><time>2026-03-24T16:26:51.299Z</time></trkpt><trkpt lat="43.41524" lon="11.797875"><ele>243.99999999999997</ele><time>2026-03-24T16:26:54.303Z</time></trkpt><trkpt lat="43.4152267" lon="11.797755"><ele>244.0</ele><time>2026-03-24T16:26:57.301Z</time></trkpt><trkpt lat="43.4152083" lon="11.797645"><ele>244.0</ele><time>2026-03-24T16:27:00.3Z</time></trkpt><trkpt lat="43.4151883" lon="11.797535"><ele>244.0</ele><time>2026-03-24T16:27:03.301Z</time></trkpt><trkpt lat="43.4151767" lon="11.79743"><ele>243.99999999999997</ele><time>2026-03-24T16:27:06.301Z</time></trkpt><trkpt lat="43.4151683" lon="11.797325"><ele>244.0</ele><time>2026-03-24T16:27:09.298Z</time></trkpt><trkpt lat="43.4151583" lon="11.7972117"><ele>244.16666666666666</ele><time>2026-03-24T16:27:12.3Z</time></trkpt><trkpt lat="43.4151417" lon="11.7970883"><ele>244.33333333333331</ele><time>2026-03-24T16:27:15.302Z</time></trkpt><trkpt lat="43.41512" lon="11.7969783"><ele>244.5</ele><time>2026-03-24T16:27:18.3Z</time></trkpt><trkpt lat="43.4151083" lon="11.7968817"><ele>244.66666666666669</ele><time>2026-03-24T16:27:21.299Z</time></trkpt><trkpt lat="43.415085" lon="11.7967983"><ele>244.83333333333334</ele><time>2026-03-24T16:27:24.299Z</time></trkpt><trkpt lat="43.4150233" lon="11.7967633"><ele>245.0</ele><time>2026-03-24T16:27:27.298Z</time></trkpt><trkpt lat="43.4149367" lon="11.7967733"><ele>245.00000000000003</ele><time>2026-03-24T16:27:30.3Z</time></trkpt><trkpt lat="43.41485" lon="11.7968033"><ele>245.0</ele><time>2026-03-24T16:27:33.302Z</time></trkpt><trkpt lat="43.4147717" lon="11.7968283"><ele>245.0</ele><time>2026-03-24T16:27:36.301Z</time></trkpt><trkpt lat="43.4147" lon="11.796845"><ele>245.0</ele><time>2026-03-24T16:27:39.3Z</time></trkpt><trkpt lat="43.4146167" lon="11.796865"><ele>245.00000000000003</ele><time>2026-03-24T16:27:42.301Z</time></trkpt><trkpt lat="43.4145483" lon="11.7969033"><ele>245.0</ele><time>2026-03-24T16:27:45.3Z</time></trkpt><trkpt lat="43.4144733" lon="11.79694"><ele>245.33333333333334</ele><time>2026-03-24T16:27:49.298Z</time></trkpt><trkpt lat="43.4145" lon="11.7968533"><ele>245.66666666666669</ele><time>2026-03-24T16:27:54.302Z</time></trkpt><trkpt lat="43.4145867" lon="11.7968267"><ele>246.0</ele><time>2026-03-24T16:27:57.301Z</time></trkpt><trkpt lat="43.4146767" lon="11.796795"><ele>246.33333333333331</ele><time>2026-03-24T16:28:00.298Z</time></trkpt><trkpt lat="43.41474" lon="11.7967733"><ele>246.66666666666666</ele><time>2026-03-24T16:28:02.299Z</time></trkpt><trkpt lat="43.4148117" lon="11.7967483"><ele>247.0</ele><time>2026-03-24T16:28:04.298Z</time></trkpt><trkpt lat="43.4148933" lon="11.7967183"><ele>247.0</ele><time>2026-03-24T16:28:06.297Z</time></trkpt><trkpt lat="43.4149783" lon="11.7966783"><ele>247.0</ele><time>2026-03-24T16:28:08.301Z</time></trkpt><trkpt lat="43.4150667" lon="11.79665"><ele>247.0</ele><time>2026-03-24T16:28:10.302Z</time></trkpt><trkpt lat="43.4151583" lon="11.796615"><ele>247.0</ele><time>2026-03-24T16:28:12.3Z</time></trkpt><trkpt lat="43.415245" lon="11.7965817"><ele>247.0</ele><time>2026-03-24T16:28:14.304Z</time></trkpt><trkpt lat="43.4153367" lon="11.7965483"><ele>247.0</ele><time>2026-03-24T16:28:16.301Z</time></trkpt><trkpt lat="43.41543" lon="11.7965233"><ele>247.0</ele><time>2026-03-24T16:28:18.299Z</time></trkpt><trkpt lat="43.4155217" lon="11.79651"><ele>247.0</ele><time>2026-03-24T16:28:20.299Z</time></trkpt><trkpt lat="43.415625" lon="11.7965"><ele>247.0</ele><time>2026-03-24T16:28:22.299Z</time></trkpt><trkpt lat="43.41572" lon="11.7964917"><ele>247.0</ele><time>2026-03-24T16:28:24.298Z</time></trkpt><trkpt lat="43.4158183" lon="11.7964917"><ele>246.99999999999997</ele><time>2026-03-24T16:28:26.298Z</time></trkpt><trkpt lat="43.4159067" lon="11.7965017"><ele>247.0</ele><time>2026-03-24T16:28:28.302Z</time></trkpt><trkpt lat="43.4159967" lon="11.7965183"><ele>247.0</ele><time>2026-03-24T16:28:30.299Z</time></trkpt><trkpt lat="43.416085" lon="11.79654"><ele>247.0</ele><time>2026-03-24T16:28:32.298Z</time></trkpt><trkpt lat="43.4161733" lon="11.79656"><ele>246.99999999999997</ele><time>2026-03-24T16:28:34.3Z</time></trkpt><trkpt lat="43.41625" lon="11.7965833"><ele>247.0</ele><time>2026-03-24T16:28:36.3Z</time></trkpt><trkpt lat="43.416325" lon="11.7966033"><ele>246.99999999999997</ele><time>2026-03-24T16:28:38.3Z</time></trkpt><trkpt lat="43.4163983" lon="11.7966267"><ele>247.0</ele><time>2026-03-24T16:28:40.3Z</time></trkpt><trkpt lat="43.41647" lon="11.7966467"><ele>247.0</ele><time>2026-03-24T16:28:42.301Z</time></trkpt><trkpt lat="43.4165517" lon="11.7966683"><ele>247.0</ele><time>2026-03-24T16:28:44.301Z</time></trkpt><trkpt lat="43.4166217" lon="11.79669"><ele>246.99999999999997</ele><time>2026-03-24T16:28:46.301Z</time></trkpt><trkpt lat="43.4166983" lon="11.796715"><ele>247.0</ele><time>2026-03-24T16:28:48.297Z</time></trkpt><trkpt lat="43.41677" lon="11.796735"><ele>246.99999999999997</ele><time>2026-03-24T16:28:50.298Z</time></trkpt><trkpt lat="43.4168483" lon="11.7967567"><ele>247.0</ele><time>2026-03-24T16:28:52.302Z</time></trkpt><trkpt lat="43.4169283" lon="11.7967733"><ele>247.0</ele><time>2026-03-24T16:28:54.299Z</time></trkpt><trkpt lat="43.4170117" lon="11.7967833"><ele>247.0</ele><time>2026-03-24T16:28:56.301Z</time></trkpt><trkpt lat="43.4170933" lon="11.796785"><ele>246.99999999999997</ele><time>2026-03-24T16:28:58.3Z</time></trkpt><trkpt lat="43.417175" lon="11.796785"><ele>247.0</ele><time>2026-03-24T16:29:00.299Z</time></trkpt><trkpt lat="43.4172983" lon="11.7967767"><ele>247.49999999999997</ele><time>2026-03-24T16:29:03.303Z</time></trkpt><trkpt lat="43.41739" lon="11.7967633"><ele>248.0</ele><time>2026-03-24T16:29:05.297Z</time></trkpt><trkpt lat="43.4174667" lon="11.7967417"><ele>248.5</ele><time>2026-03-24T16:29:07.3Z</time></trkpt><trkpt lat="43.4175417" lon="11.79672"><ele>249.0</ele><time>2026-03-24T16:29:09.302Z</time></trkpt><trkpt lat="43.4176183" lon="11.79669"><ele>249.49999999999997</ele><time>2026-03-24T16:29:11.298Z</time></trkpt><trkpt lat="43.417695" lon="11.7966683"><ele>250.0</ele><time>2026-03-24T16:29:13.297Z</time></trkpt><trkpt lat="43.4177717" lon="11.7966383"><ele>249.99999999999997</ele><time>2026-03-24T16:29:15.301Z</time></trkpt><trkpt lat="43.41784" lon="11.796625"><ele>250.0</ele><time>2026-03-24T16:29:17.299Z</time></trkpt><trkpt lat="43.417915" lon="11.7965967"><ele>250.0</ele><time>2026-03-24T16:29:19.299Z</time></trkpt><trkpt lat="43.4179817" lon="11.7965667"><ele>250.0</ele><time>2026-03-24T16:29:21.302Z</time></trkpt><trkpt lat="43.4180583" lon="11.7965383"><ele>249.99999999999997</ele><time>2026-03-24T16:29:23.298Z</time></trkpt><trkpt lat="43.4181417" lon="11.7965117"><ele>250.0</ele><time>2026-03-24T16:29:25.301Z</time></trkpt><trkpt lat="43.4182517" lon="11.7964833"><ele>250.2</ele><time>2026-03-24T16:29:27.3Z</time></trkpt><trkpt lat="43.4183533" lon="11.796465"><ele>250.4</ele><time>2026-03-24T16:29:29.299Z</time></trkpt><trkpt lat="43.4184617" lon="11.7964217"><ele>250.60000000000002</ele><time>2026-03-24T16:29:31.3Z</time></trkpt><trkpt lat="43.4185633" lon="11.7963783"><ele>250.8</ele><time>2026-03-24T16:29:33.3Z</time></trkpt><trkpt lat="43.4186667" lon="11.7963333"><ele>251.0</ele><time>2026-03-24T16:29:35.298Z</time></trkpt><trkpt lat="43.418765" lon="11.7962967"><ele>250.8</ele><time>2026-03-24T16:29:37.299Z</time></trkpt><trkpt lat="43.4188633" lon="11.7962667"><ele>250.60000000000002</ele><time>2026-03-24T16:29:39.299Z</time></trkpt><trkpt lat="43.418965" lon="11.7962333"><ele>250.4</ele><time>2026-03-24T16:29:41.3Z</time></trkpt><trkpt lat="43.4190617" lon="11.7962033"><ele>250.2</ele><time>2026-03-24T16:29:43.3Z</time></trkpt><trkpt lat="43.4191583" lon="11.796165"><ele>250.0</ele><time>2026-03-24T16:29:45.301Z</time></trkpt><trkpt lat="43.4192483" lon="11.79613"><ele>249.99999999999997</ele><time>2026-03-24T16:29:47.298Z</time></trkpt><trkpt lat="43.419335" lon="11.7961"><ele>250.0</ele><time>2026-03-24T16:29:49.3Z</time></trkpt><trkpt lat="43.419415" lon="11.7960867"><ele>250.0</ele><time>2026-03-24T16:29:51.299Z</time></trkpt><trkpt lat="43.4195017" lon="11.7960667"><ele>250.0</ele><time>2026-03-24T16:29:53.3Z</time></trkpt><trkpt lat="43.4195833" lon="11.7960467"><ele>249.99999999999997</ele><time>2026-03-24T16:29:55.299Z</time></trkpt><trkpt lat="43.419665" lon="11.79603"><ele>250.0</ele><time>2026-03-24T16:29:57.298Z</time></trkpt><trkpt lat="43.41975" lon="11.7960167"><ele>250.33333333333331</ele><time>2026-03-24T16:29:59.3Z</time></trkpt><trkpt lat="43.4198283" lon="11.7959967"><ele>250.66666666666666</ele><time>2026-03-24T16:30:01.298Z</time></trkpt><trkpt lat="43.4199067" lon="11.7959783"><ele>251.0</ele><time>2026-03-24T16:30:03.3Z</time></trkpt><trkpt lat="43.4199883" lon="11.79595"><ele>251.33333333333331</ele><time>2026-03-24T16:30:05.303Z</time></trkpt><trkpt lat="43.42007" lon="11.795925"><ele>251.66666666666666</ele><time>2026-03-24T16:30:07.299Z</time></trkpt><trkpt lat="43.4201517" lon="11.7959"><ele>252.0</ele><time>2026-03-24T16:30:09.298Z</time></trkpt><trkpt lat="43.4202333" lon="11.79588"><ele>252.0</ele><time>2026-03-24T16:30:11.301Z</time></trkpt><trkpt lat="43.4203133" lon="11.7958633"><ele>252.0</ele><time>2026-03-24T16:30:13.298Z</time></trkpt><trkpt lat="43.4203933" lon="11.795845"><ele>252.0</ele><time>2026-03-24T16:30:15.299Z</time></trkpt><trkpt lat="43.420475" lon="11.7958233"><ele>252.0</ele><time>2026-03-24T16:30:17.3Z</time></trkpt><trkpt lat="43.4205533" lon="11.7958017"><ele>252.0</ele><time>2026-03-24T16:30:19.301Z</time></trkpt><trkpt lat="43.4206383" lon="11.7957767"><ele>252.0</ele><time>2026-03-24T16:30:21.301Z</time></trkpt><trkpt lat="43.42072" lon="11.7957533"><ele>252.0</ele><time>2026-03-24T16:30:23.297Z</time></trkpt><trkpt lat="43.4208" lon="11.79573"><ele>252.0</ele><time>2026-03-24T16:30:25.297Z</time></trkpt><trkpt lat="43.4208833" lon="11.7957083"><ele>252.0</ele><time>2026-03-24T16:30:27.298Z</time></trkpt><trkpt lat="43.4209717" lon="11.79569"><ele>252.0</ele><time>2026-03-24T16:30:29.298Z</time></trkpt><trkpt lat="43.421055" lon="11.7956617"><ele>252.0</ele><time>2026-03-24T16:30:31.301Z</time></trkpt><trkpt lat="43.42114" lon="11.7956317"><ele>252.0</ele><time>2026-03-24T16:30:33.299Z</time></trkpt><trkpt lat="43.421225" lon="11.795605"><ele>252.0</ele><time>2026-03-24T16:30:35.299Z</time></trkpt><trkpt lat="43.421315" lon="11.7955733"><ele>252.0</ele><time>2026-03-24T16:30:37.302Z</time></trkpt><trkpt lat="43.42141" lon="11.7955417"><ele>252.0</ele><time>2026-03-24T16:30:39.304Z</time></trkpt><trkpt lat="43.4214983" lon="11.79551"><ele>252.0</ele><time>2026-03-24T16:30:41.3Z</time></trkpt><trkpt lat="43.42159" lon="11.79548"><ele>252.0</ele><time>2026-03-24T16:30:43.299Z</time></trkpt><trkpt lat="43.4216833" lon="11.79545"><ele>252.0</ele><time>2026-03-24T16:30:45.299Z</time></trkpt><trkpt lat="43.421775" lon="11.79542"><ele>252.0</ele><time>2026-03-24T16:30:47.299Z</time></trkpt><trkpt lat="43.4218667" lon="11.7953883"><ele>252.0</ele><time>2026-03-24T16:30:49.298Z</time></trkpt><trkpt lat="43.42196" lon="11.7953567"><ele>252.0</ele><time>2026-03-24T16:30:51.299Z</time></trkpt><trkpt lat="43.422055" lon="11.7953217"><ele>252.0</ele><time>2026-03-24T16:30:53.299Z</time></trkpt><trkpt lat="43.4221483" lon="11.7952867"><ele>252.0</ele><time>2026-03-24T16:30:55.299Z</time></trkpt><trkpt lat="43.42224" lon="11.795255"><ele>252.0</ele><time>2026-03-24T16:30:57.299Z</time></trkpt><trkpt lat="43.4223333" lon="11.795225"><ele>252.0</ele><time>2026-03-24T16:30:59.301Z</time></trkpt><trkpt lat="43.4224267" lon="11.795195"><ele>252.0</ele><time>2026-03-24T16:31:01.3Z</time></trkpt><trkpt lat="43.4225233" lon="11.7951633"><ele>252.0</ele><time>2026-03-24T16:31:03.3Z</time></trkpt><trkpt lat="43.42262" lon="11.7951283"><ele>252.2</ele><time>2026-03-24T16:31:05.299Z</time></trkpt><trkpt lat="43.4227167" lon="11.7950983"><ele>252.39999999999998</ele><time>2026-03-24T16:31:07.299Z</time></trkpt><trkpt lat="43.42281" lon="11.795065"><ele>252.60000000000002</ele><time>2026-03-24T16:31:09.298Z</time></trkpt><trkpt lat="43.4229033" lon="11.79503"><ele>252.8</ele><time>2026-03-24T16:31:11.299Z</time></trkpt><trkpt lat="43.4229967" lon="11.794995"><ele>253.0</ele><time>2026-03-24T16:31:13.301Z</time></trkpt><trkpt lat="43.4230883" lon="11.7949667"><ele>253.60000000000002</ele><time>2026-03-24T16:31:15.299Z</time></trkpt><trkpt lat="43.42318" lon="11.7949333"><ele>254.20000000000002</ele><time>2026-03-24T16:31:17.299Z</time></trkpt><trkpt lat="43.42327" lon="11.794905"><ele>254.8</ele><time>2026-03-24T16:31:19.3Z</time></trkpt><trkpt lat="43.423365" lon="11.7948817"><ele>255.4</ele><time>2026-03-24T16:31:21.3Z</time></trkpt><trkpt lat="43.4234617" lon="11.79486"><ele>256.0</ele><time>2026-03-24T16:31:23.298Z</time></trkpt><trkpt lat="43.4235533" lon="11.79482"><ele>255.99999999999997</ele><time>2026-03-24T16:31:25.299Z</time></trkpt><trkpt lat="43.42365" lon="11.7947917"><ele>256.0</ele><time>2026-03-24T16:31:27.3Z</time></trkpt><trkpt lat="43.423735" lon="11.7947733"><ele>256.0</ele><time>2026-03-24T16:31:29.299Z</time></trkpt><trkpt lat="43.42382" lon="11.79476"><ele>256.0</ele><time>2026-03-24T16:31:31.299Z</time></trkpt><trkpt lat="43.4239033" lon="11.7947483"><ele>255.99999999999997</ele><time>2026-03-24T16:31:33.3Z</time></trkpt><trkpt lat="43.423985" lon="11.794745"><ele>256.0</ele><time>2026-03-24T16:31:35.298Z</time></trkpt><trkpt lat="43.4240683" lon="11.79474"><ele>256.6</ele><time>2026-03-24T16:31:37.301Z</time></trkpt><trkpt lat="43.4241667" lon="11.7947367"><ele>257.20000000000005</ele><time>2026-03-24T16:31:39.302Z</time></trkpt><trkpt lat="43.42426" lon="11.7947117"><ele>257.79999999999995</ele><time>2026-03-24T16:31:41.299Z</time></trkpt><trkpt lat="43.4243433" lon="11.7946983"><ele>258.4</ele><time>2026-03-24T16:31:43.3Z</time></trkpt><trkpt lat="43.424435" lon="11.7946883"><ele>259.0</ele><time>2026-03-24T16:31:45.299Z</time></trkpt><trkpt lat="43.4245217" lon="11.79468"><ele>259.0</ele><time>2026-03-24T16:31:47.297Z</time></trkpt><trkpt lat="43.4246133" lon="11.7946633"><ele>259.0</ele><time>2026-03-24T16:31:49.301Z</time></trkpt><trkpt lat="43.4247" lon="11.7946583"><ele>259.0</ele><time>2026-03-24T16:31:51.299Z</time></trkpt><trkpt lat="43.4247833" lon="11.7946533"><ele>259.0</ele><time>2026-03-24T16:31:53.298Z</time></trkpt><trkpt lat="43.4248683" lon="11.7946533"><ele>259.0</ele><time>2026-03-24T16:31:55.298Z</time></trkpt><trkpt lat="43.4249483" lon="11.794655"><ele>259.0</ele><time>2026-03-24T16:31:57.298Z</time></trkpt><trkpt lat="43.425025" lon="11.7946583"><ele>258.3333333333333</ele><time>2026-03-24T16:31:59.297Z</time></trkpt><trkpt lat="43.42511" lon="11.7946633"><ele>257.66666666666663</ele><time>2026-03-24T16:32:01.302Z</time></trkpt><trkpt lat="43.4251967" lon="11.7946767"><ele>257.0</ele><time>2026-03-24T16:32:03.302Z</time></trkpt><trkpt lat="43.425285" lon="11.7946883"><ele>256.3333333333333</ele><time>2026-03-24T16:32:05.299Z</time></trkpt><trkpt lat="43.425375" lon="11.794705"><ele>255.66666666666666</ele><time>2026-03-24T16:32:07.298Z</time></trkpt><trkpt lat="43.4254567" lon="11.79473"><ele>255.0</ele><time>2026-03-24T16:32:09.3Z</time></trkpt><trkpt lat="43.4255483" lon="11.7947617"><ele>254.8</ele><time>2026-03-24T16:32:11.299Z</time></trkpt><trkpt lat="43.4256417" lon="11.794815"><ele>254.6</ele><time>2026-03-24T16:32:13.298Z</time></trkpt><trkpt lat="43.4257333" lon="11.7948567"><ele>254.39999999999998</ele><time>2026-03-24T16:32:15.3Z</time></trkpt><trkpt lat="43.4258333" lon="11.79491"><ele>254.2</ele><time>2026-03-24T16:32:17.297Z</time></trkpt><trkpt lat="43.4259417" lon="11.7949717"><ele>254.0</ele><time>2026-03-24T16:32:19.299Z</time></trkpt><trkpt lat="43.4260533" lon="11.79503"><ele>254.0</ele><time>2026-03-24T16:32:21.299Z</time></trkpt><trkpt lat="43.4261633" lon="11.7950917"><ele>254.0</ele><time>2026-03-24T16:32:23.299Z</time></trkpt><trkpt lat="43.4262733" lon="11.79515"><ele>254.0</ele><time>2026-03-24T16:32:25.299Z</time></trkpt><trkpt lat="43.4263867" lon="11.795215"><ele>254.0</ele><time>2026-03-24T16:32:27.299Z</time></trkpt><trkpt lat="43.4265017" lon="11.7952783"><ele>253.16666666666669</ele><time>2026-03-24T16:32:29.297Z</time></trkpt><trkpt lat="43.4266167" lon="11.795345"><ele>252.33333333333334</ele><time>2026-03-24T16:32:31.299Z</time></trkpt><trkpt lat="43.4267317" lon="11.7954083"><ele>251.5</ele><time>2026-03-24T16:32:33.298Z</time></trkpt><trkpt lat="43.42679" lon="11.7954433"><ele>250.66666666666669</ele><time>2026-03-24T16:32:34.298Z</time></trkpt><trkpt lat="43.4268517" lon="11.7954733"><ele>249.83333333333334</ele><time>2026-03-24T16:32:35.298Z</time></trkpt><trkpt lat="43.42691" lon="11.7955117"><ele>249.0</ele><time>2026-03-24T16:32:36.298Z</time></trkpt><trkpt lat="43.42697" lon="11.7955483"><ele>249.0</ele><time>2026-03-24T16:32:37.3Z</time></trkpt><trkpt lat="43.4270317" lon="11.7955833"><ele>249.0</ele><time>2026-03-24T16:32:38.305Z</time></trkpt><trkpt lat="43.4270933" lon="11.795615"><ele>249.0</ele><time>2026-03-24T16:32:39.298Z</time></trkpt><trkpt lat="43.427155" lon="11.7956467"><ele>249.0</ele><time>2026-03-24T16:32:40.3Z</time></trkpt><trkpt lat="43.427215" lon="11.79568"><ele>249.0</ele><time>2026-03-24T16:32:41.298Z</time></trkpt><trkpt lat="43.427275" lon="11.795715"><ele>249.0</ele><time>2026-03-24T16:32:42.298Z</time></trkpt><trkpt lat="43.42739" lon="11.7957783"><ele>249.0</ele><time>2026-03-24T16:32:44.301Z</time></trkpt><trkpt lat="43.4275067" lon="11.7958433"><ele>249.0</ele><time>2026-03-24T16:32:46.298Z</time></trkpt><trkpt lat="43.4276167" lon="11.795915"><ele>249.0</ele><time>2026-03-24T16:32:48.299Z</time></trkpt><trkpt lat="43.42773" lon="11.7959783"><ele>249.0</ele><time>2026-03-24T16:32:50.297Z</time></trkpt><trkpt lat="43.42784" lon="11.7960417"><ele>249.0</ele><time>2026-03-24T16:32:52.297Z</time></trkpt><trkpt lat="43.4279483" lon="11.7961017"><ele>249.0</ele><time>2026-03-24T16:32:54.298Z</time></trkpt><trkpt lat="43.4280483" lon="11.796175"><ele>249.0</ele><time>2026-03-24T16:32:56.298Z</time></trkpt><trkpt lat="43.4281483" lon="11.79624"><ele>249.0</ele><time>2026-03-24T16:32:58.301Z</time></trkpt><trkpt lat="43.4282517" lon="11.7963017"><ele>249.25</ele><time>2026-03-24T16:33:00.299Z</time></trkpt><trkpt lat="43.4283567" lon="11.7963633"><ele>249.5</ele><time>2026-03-24T16:33:02.298Z</time></trkpt><trkpt lat="43.4284667" lon="11.7964183"><ele>249.75</ele><time>2026-03-24T16:33:04.3Z</time></trkpt><trkpt lat="43.4285717" lon="11.79647"><ele>250.0</ele><time>2026-03-24T16:33:06.298Z</time></trkpt><trkpt lat="43.4286767" lon="11.796525"><ele>250.0</ele><time>2026-03-24T16:33:08.298Z</time></trkpt><trkpt lat="43.4287667" lon="11.7965867"><ele>250.0</ele><time>2026-03-24T16:33:10.297Z</time></trkpt><trkpt lat="43.428855" lon="11.7966417"><ele>250.0</ele><time>2026-03-24T16:33:12.297Z</time></trkpt><trkpt lat="43.428945" lon="11.7966867"><ele>250.0</ele><time>2026-03-24T16:33:14.298Z</time></trkpt><trkpt lat="43.4290267" lon="11.7967233"><ele>250.0</ele><time>2026-03-24T16:33:16.301Z</time></trkpt><trkpt lat="43.4290933" lon="11.7967633"><ele>249.83333333333331</ele><time>2026-03-24T16:33:19.3Z</time></trkpt><trkpt lat="43.429145" lon="11.796845"><ele>249.66666666666666</ele><time>2026-03-24T16:34:30.3Z</time></trkpt><trkpt lat="43.4292283" lon="11.796885"><ele>249.5</ele><time>2026-03-24T16:34:33.301Z</time></trkpt><trkpt lat="43.4292967" lon="11.7969233"><ele>249.33333333333331</ele><time>2026-03-24T16:34:35.3Z</time></trkpt><trkpt lat="43.42938" lon="11.7969567"><ele>249.16666666666666</ele><time>2026-03-24T16:34:37.302Z</time></trkpt><trkpt lat="43.4294583" lon="11.796995"><ele>249.0</ele><time>2026-03-24T16:34:39.297Z</time></trkpt><trkpt lat="43.4295383" lon="11.7970367"><ele>249.0</ele><time>2026-03-24T16:34:41.299Z</time></trkpt><trkpt lat="43.4296233" lon="11.797075"><ele>249.0</ele><time>2026-03-24T16:34:43.298Z</time></trkpt><trkpt lat="43.429705" lon="11.7971117"><ele>249.0</ele><time>2026-03-24T16:34:45.3Z</time></trkpt><trkpt lat="43.4297867" lon="11.7971567"><ele>249.0</ele><time>2026-03-24T16:34:47.297Z</time></trkpt><trkpt lat="43.42987" lon="11.7971983"><ele>249.0</ele><time>2026-03-24T16:34:49.299Z</time></trkpt><trkpt lat="43.4299533" lon="11.7972333"><ele>249.0</ele><time>2026-03-24T16:34:51.299Z</time></trkpt><trkpt lat="43.4300183" lon="11.7972867"><ele>249.0</ele><time>2026-03-24T16:34:53.304Z</time></trkpt><trkpt lat="43.430045" lon="11.7973817"><ele>248.99999999999997</ele><time>2026-03-24T16:34:55.302Z</time></trkpt><trkpt lat="43.43004" lon="11.7975083"><ele>248.99999999999997</ele><time>2026-03-24T16:34:57.299Z</time></trkpt><trkpt lat="43.4300233" lon="11.7976467"><ele>249.0</ele><time>2026-03-24T16:34:59.298Z</time></trkpt><trkpt lat="43.4299983" lon="11.7977867"><ele>249.0</ele><time>2026-03-24T16:35:01.3Z</time></trkpt><trkpt lat="43.429975" lon="11.7979233"><ele>249.0</ele><time>2026-03-24T16:35:03.301Z</time></trkpt><trkpt lat="43.4299583" lon="11.7980633"><ele>248.99999999999997</ele><time>2026-03-24T16:35:05.298Z</time></trkpt><trkpt lat="43.4299383" lon="11.7982067"><ele>248.99999999999997</ele><time>2026-03-24T16:35:07.299Z</time></trkpt><trkpt lat="43.4299183" lon="11.798355"><ele>249.0</ele><time>2026-03-24T16:35:09.298Z</time></trkpt><trkpt lat="43.429895" lon="11.7985083"><ele>249.0</ele><time>2026-03-24T16:35:11.299Z</time></trkpt><trkpt lat="43.4298733" lon="11.7986617"><ele>248.5</ele><time>2026-03-24T16:35:13.302Z</time></trkpt><trkpt lat="43.4298483" lon="11.7988183"><ele>248.0</ele><time>2026-03-24T16:35:15.298Z</time></trkpt><trkpt lat="43.429825" lon="11.79898"><ele>247.5</ele><time>2026-03-24T16:35:17.298Z</time></trkpt><trkpt lat="43.4298017" lon="11.7991383"><ele>247.0</ele><time>2026-03-24T16:35:19.299Z</time></trkpt><trkpt lat="43.4297767" lon="11.799295"><ele>246.8</ele><time>2026-03-24T16:35:21.299Z</time></trkpt><trkpt lat="43.4297533" lon="11.7994533"><ele>246.6</ele><time>2026-03-24T16:35:23.298Z</time></trkpt><trkpt lat="43.4297283" lon="11.7995983"><ele>246.40000000000003</ele><time>2026-03-24T16:35:25.301Z</time></trkpt><trkpt lat="43.4297033" lon="11.7997433"><ele>246.20000000000002</ele><time>2026-03-24T16:35:27.301Z</time></trkpt><trkpt lat="43.4296783" lon="11.7998933"><ele>246.0</ele><time>2026-03-24T16:35:29.298Z</time></trkpt><trkpt lat="43.429655" lon="11.8000467"><ele>245.8</ele><time>2026-03-24T16:35:31.301Z</time></trkpt><trkpt lat="43.42963" lon="11.8002017"><ele>245.60000000000002</ele><time>2026-03-24T16:35:33.298Z</time></trkpt><trkpt lat="43.4296033" lon="11.8003533"><ele>245.4</ele><time>2026-03-24T16:35:35.298Z</time></trkpt><trkpt lat="43.4295783" lon="11.8005033"><ele>245.2</ele><time>2026-03-24T16:35:37.298Z</time></trkpt><trkpt lat="43.429555" lon="11.8006483"><ele>245.0</ele><time>2026-03-24T16:35:39.3Z</time></trkpt><trkpt lat="43.42953" lon="11.800785"><ele>245.0</ele><time>2026-03-24T16:35:41.299Z</time></trkpt><trkpt lat="43.4295067" lon="11.800915"><ele>245.0</ele><time>2026-03-24T16:35:43.3Z</time></trkpt><trkpt lat="43.429485" lon="11.8010383"><ele>245.0</ele><time>2026-03-24T16:35:45.298Z</time></trkpt><trkpt lat="43.429465" lon="11.80116"><ele>245.0</ele><time>2026-03-24T16:35:47.297Z</time></trkpt><trkpt lat="43.4294517" lon="11.8012933"><ele>245.0</ele><time>2026-03-24T16:35:49.299Z</time></trkpt><trkpt lat="43.429445" lon="11.8014267"><ele>244.8</ele><time>2026-03-24T16:35:51.301Z</time></trkpt><trkpt lat="43.4294483" lon="11.8015583"><ele>244.6</ele><time>2026-03-24T16:35:53.298Z</time></trkpt><trkpt lat="43.4294533" lon="11.8016883"><ele>244.39999999999998</ele><time>2026-03-24T16:35:55.298Z</time></trkpt><trkpt lat="43.42946" lon="11.8018183"><ele>244.2</ele><time>2026-03-24T16:35:57.299Z</time></trkpt><trkpt lat="43.4294717" lon="11.801955"><ele>244.0</ele><time>2026-03-24T16:35:59.297Z</time></trkpt><trkpt lat="43.4294783" lon="11.8020933"><ele>244.39999999999998</ele><time>2026-03-24T16:36:01.3Z</time></trkpt><trkpt lat="43.429485" lon="11.802235"><ele>244.79999999999998</ele><time>2026-03-24T16:36:03.299Z</time></trkpt><trkpt lat="43.4294967" lon="11.80238"><ele>245.20000000000002</ele><time>2026-03-24T16:36:05.297Z</time></trkpt><trkpt lat="43.42951" lon="11.8025217"><ele>245.60000000000002</ele><time>2026-03-24T16:36:07.301Z</time></trkpt><trkpt lat="43.4295217" lon="11.8026667"><ele>246.0</ele><time>2026-03-24T16:36:09.301Z</time></trkpt><trkpt lat="43.4295283" lon="11.8028033"><ele>246.0</ele><time>2026-03-24T16:36:11.299Z</time></trkpt><trkpt lat="43.4295333" lon="11.8029467"><ele>246.00000000000003</ele><time>2026-03-24T16:36:13.298Z</time></trkpt><trkpt lat="43.4295367" lon="11.8030917"><ele>246.00000000000003</ele><time>2026-03-24T16:36:15.298Z</time></trkpt><trkpt lat="43.4295433" lon="11.8032367"><ele>246.0</ele><time>2026-03-24T16:36:17.297Z</time></trkpt><trkpt lat="43.4295533" lon="11.8033917"><ele>246.0</ele><time>2026-03-24T16:36:19.299Z</time></trkpt><trkpt lat="43.4295583" lon="11.803535"><ele>245.60000000000002</ele><time>2026-03-24T16:36:21.298Z</time></trkpt><trkpt lat="43.429575" lon="11.80368"><ele>245.20000000000002</ele><time>2026-03-24T16:36:23.298Z</time></trkpt><trkpt lat="43.4295783" lon="11.80383"><ele>244.79999999999998</ele><time>2026-03-24T16:36:25.298Z</time></trkpt><trkpt lat="43.4295767" lon="11.8039733"><ele>244.39999999999998</ele><time>2026-03-24T16:36:27.298Z</time></trkpt><trkpt lat="43.4295783" lon="11.804115"><ele>244.0</ele><time>2026-03-24T16:36:29.298Z</time></trkpt><trkpt lat="43.4295817" lon="11.8042567"><ele>244.0</ele><time>2026-03-24T16:36:31.302Z</time></trkpt><trkpt lat="43.4295883" lon="11.804475"><ele>244.0</ele><time>2026-03-24T16:36:34.299Z</time></trkpt><trkpt lat="43.4296017" lon="11.8046167"><ele>244.0</ele><time>2026-03-24T16:36:36.299Z</time></trkpt><trkpt lat="43.42961" lon="11.8047633"><ele>244.0</ele><time>2026-03-24T16:36:38.3Z</time></trkpt><trkpt lat="43.429625" lon="11.804915"><ele>244.0</ele><time>2026-03-24T16:36:40.299Z</time></trkpt><trkpt lat="43.4296317" lon="11.8050683"><ele>243.99999999999997</ele><time>2026-03-24T16:36:42.299Z</time></trkpt><trkpt lat="43.4296367" lon="11.805215"><ele>243.99999999999997</ele><time>2026-03-24T16:36:44.299Z</time></trkpt><trkpt lat="43.4296383" lon="11.8053583"><ele>244.0</ele><time>2026-03-24T16:36:46.297Z</time></trkpt><trkpt lat="43.4296533" lon="11.8055167"><ele>244.0</ele><time>2026-03-24T16:36:48.297Z</time></trkpt><trkpt lat="43.4296633" lon="11.80566"><ele>244.39999999999998</ele><time>2026-03-24T16:36:50.298Z</time></trkpt><trkpt lat="43.429665" lon="11.8057933"><ele>244.79999999999998</ele><time>2026-03-24T16:36:52.298Z</time></trkpt><trkpt lat="43.42967" lon="11.805925"><ele>245.20000000000002</ele><time>2026-03-24T16:36:54.297Z</time></trkpt><trkpt lat="43.4296783" lon="11.8060517"><ele>245.60000000000002</ele><time>2026-03-24T16:36:56.299Z</time></trkpt><trkpt lat="43.4296883" lon="11.8061833"><ele>246.0</ele><time>2026-03-24T16:36:58.3Z</time></trkpt><trkpt lat="43.4297017" lon="11.8063267"><ele>246.0</ele><time>2026-03-24T16:37:00.301Z</time></trkpt><trkpt lat="43.4297133" lon="11.8064667"><ele>246.00000000000003</ele><time>2026-03-24T16:37:02.299Z</time></trkpt><trkpt lat="43.42972" lon="11.806595"><ele>246.00000000000003</ele><time>2026-03-24T16:37:04.304Z</time></trkpt><trkpt lat="43.4297217" lon="11.8067267"><ele>246.0</ele><time>2026-03-24T16:37:06.298Z</time></trkpt><trkpt lat="43.4297267" lon="11.8068567"><ele>246.0</ele><time>2026-03-24T16:37:08.301Z</time></trkpt><trkpt lat="43.42973" lon="11.806975"><ele>246.0</ele><time>2026-03-24T16:37:10.299Z</time></trkpt><trkpt lat="43.42973" lon="11.8070867"><ele>246.0</ele><time>2026-03-24T16:37:12.298Z</time></trkpt><trkpt lat="43.4297367" lon="11.8071983"><ele>246.0</ele><time>2026-03-24T16:37:14.301Z</time></trkpt><trkpt lat="43.4297383" lon="11.8073133"><ele>246.0</ele><time>2026-03-24T16:37:16.299Z</time></trkpt><trkpt lat="43.4297433" lon="11.8074217"><ele>246.0</ele><time>2026-03-24T16:37:18.3Z</time></trkpt><trkpt lat="43.4297467" lon="11.8075183"><ele>246.0</ele><time>2026-03-24T16:37:20.299Z</time></trkpt><trkpt lat="43.4297783" lon="11.8076167"><ele>246.0</ele><time>2026-03-24T16:37:22.299Z</time></trkpt><trkpt lat="43.42979" lon="11.8077233"><ele>246.0</ele><time>2026-03-24T16:37:24.298Z</time></trkpt><trkpt lat="43.429795" lon="11.8078333"><ele>246.0</ele><time>2026-03-24T16:37:26.3Z</time></trkpt><trkpt lat="43.4297867" lon="11.8079583"><ele>246.0</ele><time>2026-03-24T16:37:28.3Z</time></trkpt><trkpt lat="43.4297717" lon="11.8080833"><ele>246.0</ele><time>2026-03-24T16:37:30.299Z</time></trkpt><trkpt lat="43.429725" lon="11.8081667"><ele>246.0</ele><time>2026-03-24T16:37:32.299Z</time></trkpt><trkpt lat="43.4296933" lon="11.8082717"><ele>246.0</ele><time>2026-03-24T16:37:34.3Z</time></trkpt><trkpt lat="43.429665" lon="11.808375"><ele>246.0</ele><time>2026-03-24T16:37:36.298Z</time></trkpt><trkpt lat="43.4296533" lon="11.8084833"><ele>246.0</ele><time>2026-03-24T16:37:38.298Z</time></trkpt><trkpt lat="43.4296567" lon="11.8085833"><ele>246.0</ele><time>2026-03-24T16:37:40.298Z</time></trkpt><trkpt lat="43.4296583" lon="11.8086967"><ele>246.0</ele><time>2026-03-24T16:37:43.299Z</time></trkpt><trkpt lat="43.4297017" lon="11.8087883"><ele>246.0</ele><time>2026-03-24T16:37:47.299Z</time></trkpt><trkpt lat="43.4297817" lon="11.8088167"><ele>245.5</ele><time>2026-03-24T16:37:50.3Z</time></trkpt><trkpt lat="43.429855" lon="11.808855"><ele>245.0</ele><time>2026-03-24T16:37:53.3Z</time></trkpt><trkpt lat="43.429905" lon="11.8089733"><ele>244.5</ele><time>2026-03-24T16:37:56.299Z</time></trkpt><trkpt lat="43.4299417" lon="11.8090533"><ele>244.0</ele><time>2026-03-24T16:37:58.301Z</time></trkpt><trkpt lat="43.4299967" lon="11.8091383"><ele>243.5</ele><time>2026-03-24T16:38:00.298Z</time></trkpt><trkpt lat="43.4300283" lon="11.8092367"><ele>243.0</ele><time>2026-03-24T16:38:02.297Z</time></trkpt><trkpt lat="43.43005" lon="11.8093467"><ele>243.0</ele><time>2026-03-24T16:38:04.299Z</time></trkpt><trkpt lat="43.43006" lon="11.80946"><ele>243.0</ele><time>2026-03-24T16:38:06.299Z</time></trkpt><trkpt lat="43.43007" lon="11.80957"><ele>243.0</ele><time>2026-03-24T16:38:08.301Z</time></trkpt><trkpt lat="43.430075" lon="11.8096967"><ele>243.0</ele><time>2026-03-24T16:38:10.3Z</time></trkpt><trkpt lat="43.4300867" lon="11.8098283"><ele>243.0</ele><time>2026-03-24T16:38:12.299Z</time></trkpt><trkpt lat="43.4300917" lon="11.809945"><ele>243.0</ele><time>2026-03-24T16:38:14.297Z</time></trkpt><trkpt lat="43.430095" lon="11.8100683"><ele>243.0</ele><time>2026-03-24T16:38:16.299Z</time></trkpt><trkpt lat="43.430105" lon="11.8101833"><ele>243.0</ele><time>2026-03-24T16:38:18.299Z</time></trkpt><trkpt lat="43.430115" lon="11.8102917"><ele>243.0</ele><time>2026-03-24T16:38:20.301Z</time></trkpt><trkpt lat="43.4301233" lon="11.8104067"><ele>243.0</ele><time>2026-03-24T16:38:22.3Z</time></trkpt><trkpt lat="43.4301317" lon="11.8105267"><ele>243.0</ele><time>2026-03-24T16:38:24.299Z</time></trkpt><trkpt lat="43.43014" lon="11.8106467"><ele>243.0</ele><time>2026-03-24T16:38:26.298Z</time></trkpt><trkpt lat="43.43015" lon="11.81077"><ele>243.0</ele><time>2026-03-24T16:38:28.299Z</time></trkpt><trkpt lat="43.4301617" lon="11.8108917"><ele>243.0</ele><time>2026-03-24T16:38:30.301Z</time></trkpt><trkpt lat="43.43017" lon="11.811015"><ele>243.0</ele><time>2026-03-24T16:38:32.298Z</time></trkpt><trkpt lat="43.430175" lon="11.8111433"><ele>243.0</ele><time>2026-03-24T16:38:34.299Z</time></trkpt><trkpt lat="43.4301867" lon="11.81127"><ele>243.0</ele><time>2026-03-24T16:38:36.298Z</time></trkpt><trkpt lat="43.4302033" lon="11.811405"><ele>242.8</ele><time>2026-03-24T16:38:38.3Z</time></trkpt><trkpt lat="43.4302133" lon="11.81153"><ele>242.60000000000002</ele><time>2026-03-24T16:38:40.299Z</time></trkpt><trkpt lat="43.4302183" lon="11.8116567"><ele>242.39999999999998</ele><time>2026-03-24T16:38:42.3Z</time></trkpt><trkpt lat="43.4302383" lon="11.8118117"><ele>242.2</ele><time>2026-03-24T16:38:44.298Z</time></trkpt><trkpt lat="43.4302417" lon="11.8119367"><ele>242.0</ele><time>2026-03-24T16:38:46.299Z</time></trkpt><trkpt lat="43.4302483" lon="11.8120667"><ele>242.00000000000003</ele><time>2026-03-24T16:38:48.301Z</time></trkpt><trkpt lat="43.4302517" lon="11.81219"><ele>242.0</ele><time>2026-03-24T16:38:50.297Z</time></trkpt><trkpt lat="43.4302617" lon="11.8123133"><ele>242.0</ele><time>2026-03-24T16:38:52.3Z</time></trkpt><trkpt lat="43.4302683" lon="11.81244"><ele>242.0</ele><time>2026-03-24T16:38:54.299Z</time></trkpt><trkpt lat="43.4302783" lon="11.8125617"><ele>242.00000000000003</ele><time>2026-03-24T16:38:56.299Z</time></trkpt><trkpt lat="43.4302833" lon="11.8126833"><ele>242.0</ele><time>2026-03-24T16:38:58.301Z</time></trkpt><trkpt lat="43.43029" lon="11.8128017"><ele>241.83333333333334</ele><time>2026-03-24T16:39:00.297Z</time></trkpt><trkpt lat="43.430305" lon="11.812915"><ele>241.66666666666669</ele><time>2026-03-24T16:39:02.299Z</time></trkpt><trkpt lat="43.430315" lon="11.8130133"><ele>241.5</ele><time>2026-03-24T16:39:04.299Z</time></trkpt><trkpt lat="43.43033" lon="11.813105"><ele>241.33333333333331</ele><time>2026-03-24T16:39:06.296Z</time></trkpt><trkpt lat="43.4303383" lon="11.813235"><ele>241.16666666666666</ele><time>2026-03-24T16:39:09.3Z</time></trkpt><trkpt lat="43.4303467" lon="11.813355"><ele>241.0</ele><time>2026-03-24T16:39:12.299Z</time></trkpt><trkpt lat="43.4303433" lon="11.8134533"><ele>240.33333333333331</ele><time>2026-03-24T16:39:15.298Z</time></trkpt><trkpt lat="43.4303467" lon="11.8135467"><ele>239.66666666666666</ele><time>2026-03-24T16:39:18.296Z</time></trkpt><trkpt lat="43.430365" lon="11.8136483"><ele>239.0</ele><time>2026-03-24T16:39:21.296Z</time></trkpt><trkpt lat="43.4303717" lon="11.8137483"><ele>238.33333333333331</ele><time>2026-03-24T16:39:24.297Z</time></trkpt><trkpt lat="43.430375" lon="11.8138383"><ele>237.66666666666666</ele><time>2026-03-24T16:39:26.298Z</time></trkpt><trkpt lat="43.4303867" lon="11.8139433"><ele>237.0</ele><time>2026-03-24T16:39:28.298Z</time></trkpt><trkpt lat="43.4304473" lon="11.8140534"><ele>237.2</ele><time>2026-03-24T16:39:31.34Z</time></trkpt><trkpt lat="43.4305409" lon="11.8140767"><ele>237.39999999999998</ele><time>2026-03-24T16:39:33.32Z</time></trkpt><trkpt lat="43.430625" lon="11.8140183"><ele>237.60000000000002</ele><time>2026-03-24T16:39:34.299Z</time></trkpt><trkpt lat="43.43073" lon="11.813995"><ele>237.8</ele><time>2026-03-24T16:39:36.3Z</time></trkpt><trkpt lat="43.43083" lon="11.81399"><ele>238.0</ele><time>2026-03-24T16:39:38.3Z</time></trkpt><trkpt lat="43.430925" lon="11.8139883"><ele>238.0</ele><time>2026-03-24T16:39:40.299Z</time></trkpt><trkpt lat="43.4310167" lon="11.8139867"><ele>238.0</ele><time>2026-03-24T16:39:42.301Z</time></trkpt><trkpt lat="43.4311083" lon="11.8139883"><ele>238.0</ele><time>2026-03-24T16:39:44.299Z</time></trkpt><trkpt lat="43.4312083" lon="11.8139833"><ele>238.0</ele><time>2026-03-24T16:39:46.298Z</time></trkpt><trkpt lat="43.4313" lon="11.8139733"><ele>238.0</ele><time>2026-03-24T16:39:48.298Z</time></trkpt><trkpt lat="43.4313883" lon="11.8139717"><ele>237.8</ele><time>2026-03-24T16:39:50.301Z</time></trkpt><trkpt lat="43.4314817" lon="11.8139717"><ele>237.60000000000002</ele><time>2026-03-24T16:39:52.299Z</time></trkpt><trkpt lat="43.4315767" lon="11.8139667"><ele>237.39999999999998</ele><time>2026-03-24T16:39:54.301Z</time></trkpt><trkpt lat="43.4316767" lon="11.8139633"><ele>237.2</ele><time>2026-03-24T16:39:56.301Z</time></trkpt><trkpt lat="43.43178" lon="11.8139567"><ele>237.0</ele><time>2026-03-24T16:39:58.3Z</time></trkpt><trkpt lat="43.43188" lon="11.8139433"><ele>237.0</ele><time>2026-03-24T16:40:00.3Z</time></trkpt><trkpt lat="43.4319833" lon="11.8139267"><ele>237.0</ele><time>2026-03-24T16:40:02.299Z</time></trkpt><trkpt lat="43.43208" lon="11.813915"><ele>237.0</ele><time>2026-03-24T16:40:04.297Z</time></trkpt><trkpt lat="43.4321767" lon="11.813905"><ele>237.0</ele><time>2026-03-24T16:40:06.299Z</time></trkpt><trkpt lat="43.4322683" lon="11.8139"><ele>237.0</ele><time>2026-03-24T16:40:08.299Z</time></trkpt><trkpt lat="43.4323667" lon="11.81389"><ele>237.0</ele><time>2026-03-24T16:40:10.3Z</time></trkpt><trkpt lat="43.4324667" lon="11.8138817"><ele>237.0</ele><time>2026-03-24T16:40:12.298Z</time></trkpt><trkpt lat="43.4325683" lon="11.8138767"><ele>237.0</ele><time>2026-03-24T16:40:14.301Z</time></trkpt><trkpt lat="43.43267" lon="11.8138717"><ele>237.0</ele><time>2026-03-24T16:40:16.3Z</time></trkpt><trkpt lat="43.432775" lon="11.8138667"><ele>237.0</ele><time>2026-03-24T16:40:18.298Z</time></trkpt><trkpt lat="43.4328767" lon="11.8138533"><ele>236.6</ele><time>2026-03-24T16:40:20.299Z</time></trkpt><trkpt lat="43.4329767" lon="11.8138417"><ele>236.2</ele><time>2026-03-24T16:40:22.299Z</time></trkpt><trkpt lat="43.4330817" lon="11.8138333"><ele>235.8</ele><time>2026-03-24T16:40:24.299Z</time></trkpt><trkpt lat="43.433185" lon="11.8138267"><ele>235.4</ele><time>2026-03-24T16:40:26.298Z</time></trkpt><trkpt lat="43.4332883" lon="11.8138167"><ele>235.0</ele><time>2026-03-24T16:40:28.3Z</time></trkpt><trkpt lat="43.4333883" lon="11.81381"><ele>235.0</ele><time>2026-03-24T16:40:30.301Z</time></trkpt><trkpt lat="43.4334933" lon="11.8138"><ele>235.0</ele><time>2026-03-24T16:40:32.3Z</time></trkpt><trkpt lat="43.4336017" lon="11.8137967"><ele>235.0</ele><time>2026-03-24T16:40:34.3Z</time></trkpt><trkpt lat="43.4337083" lon="11.8137967"><ele>235.0</ele><time>2026-03-24T16:40:36.3Z</time></trkpt><trkpt lat="43.4338167" lon="11.8137883"><ele>235.0</ele><time>2026-03-24T16:40:38.299Z</time></trkpt><trkpt lat="43.4339267" lon="11.8137783"><ele>235.6</ele><time>2026-03-24T16:40:40.301Z</time></trkpt><trkpt lat="43.4340383" lon="11.813765"><ele>236.2</ele><time>2026-03-24T16:40:42.297Z</time></trkpt><trkpt lat="43.43415" lon="11.8137617"><ele>236.8</ele><time>2026-03-24T16:40:44.299Z</time></trkpt><trkpt lat="43.4342617" lon="11.81376"><ele>237.4</ele><time>2026-03-24T16:40:46.301Z</time></trkpt><trkpt lat="43.43437" lon="11.8137517"><ele>238.0</ele><time>2026-03-24T16:40:48.299Z</time></trkpt><trkpt lat="43.4344817" lon="11.81374"><ele>238.0</ele><time>2026-03-24T16:40:50.298Z</time></trkpt><trkpt lat="43.4345917" lon="11.8137283"><ele>238.0</ele><time>2026-03-24T16:40:52.299Z</time></trkpt><trkpt lat="43.4347067" lon="11.813715"><ele>238.0</ele><time>2026-03-24T16:40:54.3Z</time></trkpt><trkpt lat="43.434815" lon="11.8137017"><ele>238.0</ele><time>2026-03-24T16:40:56.299Z</time></trkpt><trkpt lat="43.434925" lon="11.8136933"><ele>238.0</ele><time>2026-03-24T16:40:58.299Z</time></trkpt><trkpt lat="43.4350383" lon="11.8136883"><ele>238.0</ele><time>2026-03-24T16:41:00.299Z</time></trkpt><trkpt lat="43.4351533" lon="11.8136783"><ele>238.0</ele><time>2026-03-24T16:41:02.298Z</time></trkpt><trkpt lat="43.435265" lon="11.8136683"><ele>238.0</ele><time>2026-03-24T16:41:04.299Z</time></trkpt><trkpt lat="43.435375" lon="11.8136517"><ele>238.0</ele><time>2026-03-24T16:41:06.298Z</time></trkpt><trkpt lat="43.4354817" lon="11.8136433"><ele>238.0</ele><time>2026-03-24T16:41:08.298Z</time></trkpt><trkpt lat="43.4355917" lon="11.8136317"><ele>237.8</ele><time>2026-03-24T16:41:10.299Z</time></trkpt><trkpt lat="43.4357067" lon="11.813615"><ele>237.60000000000002</ele><time>2026-03-24T16:41:12.301Z</time></trkpt><trkpt lat="43.4358183" lon="11.8136017"><ele>237.39999999999998</ele><time>2026-03-24T16:41:14.3Z</time></trkpt><trkpt lat="43.4359283" lon="11.8135967"><ele>237.2</ele><time>2026-03-24T16:41:16.298Z</time></trkpt><trkpt lat="43.4360367" lon="11.8135917"><ele>237.0</ele><time>2026-03-24T16:41:18.299Z</time></trkpt><trkpt lat="43.436145" lon="11.8135817"><ele>237.0</ele><time>2026-03-24T16:41:20.302Z</time></trkpt><trkpt lat="43.436255" lon="11.81357"><ele>237.0</ele><time>2026-03-24T16:41:22.3Z</time></trkpt><trkpt lat="43.4363667" lon="11.81356"><ele>237.0</ele><time>2026-03-24T16:41:24.301Z</time></trkpt><trkpt lat="43.4364817" lon="11.8135433"><ele>237.0</ele><time>2026-03-24T16:41:26.3Z</time></trkpt><trkpt lat="43.4365883" lon="11.8135367"><ele>237.0</ele><time>2026-03-24T16:41:28.299Z</time></trkpt><trkpt lat="43.43669" lon="11.8135333"><ele>237.0</ele><time>2026-03-24T16:41:30.3Z</time></trkpt><trkpt lat="43.4367917" lon="11.813535"><ele>237.0</ele><time>2026-03-24T16:41:32.301Z</time></trkpt><trkpt lat="43.4368967" lon="11.813525"><ele>237.0</ele><time>2026-03-24T16:41:34.301Z</time></trkpt><trkpt lat="43.4370017" lon="11.813505"><ele>237.0</ele><time>2026-03-24T16:41:36.298Z</time></trkpt><trkpt lat="43.437115" lon="11.8134883"><ele>237.0</ele><time>2026-03-24T16:41:38.3Z</time></trkpt><trkpt lat="43.4372233" lon="11.813465"><ele>237.6</ele><time>2026-03-24T16:41:40.3Z</time></trkpt><trkpt lat="43.4373317" lon="11.8134433"><ele>238.2</ele><time>2026-03-24T16:41:42.301Z</time></trkpt><trkpt lat="43.4374483" lon="11.8134233"><ele>238.8</ele><time>2026-03-24T16:41:44.3Z</time></trkpt><trkpt lat="43.4375533" lon="11.8134133"><ele>239.4</ele><time>2026-03-24T16:41:46.303Z</time></trkpt><trkpt lat="43.437665" lon="11.8134033"><ele>240.0</ele><time>2026-03-24T16:41:48.303Z</time></trkpt><trkpt lat="43.43773" lon="11.81339"><ele>240.0</ele><time>2026-03-24T16:41:49.301Z</time></trkpt><trkpt lat="43.437845" lon="11.8133917"><ele>240.0</ele><time>2026-03-24T16:41:51.3Z</time></trkpt><trkpt lat="43.4379617" lon="11.813385"><ele>240.0</ele><time>2026-03-24T16:41:53.298Z</time></trkpt><trkpt lat="43.4380817" lon="11.8133767"><ele>240.0</ele><time>2026-03-24T16:41:55.3Z</time></trkpt><trkpt lat="43.4382" lon="11.8133717"><ele>240.0</ele><time>2026-03-24T16:41:57.304Z</time></trkpt><trkpt lat="43.438315" lon="11.8133683"><ele>240.0</ele><time>2026-03-24T16:41:59.3Z</time></trkpt><trkpt lat="43.4384317" lon="11.81336"><ele>240.0</ele><time>2026-03-24T16:42:01.299Z</time></trkpt><trkpt lat="43.438545" lon="11.8133467"><ele>240.0</ele><time>2026-03-24T16:42:03.301Z</time></trkpt><trkpt lat="43.43866" lon="11.813335"><ele>240.0</ele><time>2026-03-24T16:42:05.298Z</time></trkpt><trkpt lat="43.4387733" lon="11.8133283"><ele>240.0</ele><time>2026-03-24T16:42:07.298Z</time></trkpt><trkpt lat="43.4388867" lon="11.8133167"><ele>240.0</ele><time>2026-03-24T16:42:09.299Z</time></trkpt><trkpt lat="43.439" lon="11.8133167"><ele>240.0</ele><time>2026-03-24T16:42:11.301Z</time></trkpt><trkpt lat="43.4391083" lon="11.8133083"><ele>240.0</ele><time>2026-03-24T16:42:13.299Z</time></trkpt><trkpt lat="43.4392217" lon="11.8132867"><ele>239.8</ele><time>2026-03-24T16:42:15.3Z</time></trkpt><trkpt lat="43.4393167" lon="11.8132817"><ele>239.6</ele><time>2026-03-24T16:42:17.299Z</time></trkpt><trkpt lat="43.4394083" lon="11.8132783"><ele>239.39999999999998</ele><time>2026-03-24T16:42:19.299Z</time></trkpt><trkpt lat="43.43951" lon="11.8132683"><ele>239.2</ele><time>2026-03-24T16:42:21.3Z</time></trkpt><trkpt lat="43.4396183" lon="11.8132517"><ele>239.0</ele><time>2026-03-24T16:42:23.298Z</time></trkpt><trkpt lat="43.4397183" lon="11.8132417"><ele>239.0</ele><time>2026-03-24T16:42:25.299Z</time></trkpt><trkpt lat="43.4398183" lon="11.813235"><ele>238.99999999999997</ele><time>2026-03-24T16:42:27.3Z</time></trkpt><trkpt lat="43.439915" lon="11.8132317"><ele>238.99999999999997</ele><time>2026-03-24T16:42:29.299Z</time></trkpt><trkpt lat="43.4400117" lon="11.8132283"><ele>239.0</ele><time>2026-03-24T16:42:31.299Z</time></trkpt><trkpt lat="43.4401117" lon="11.8132183"><ele>239.0</ele><time>2026-03-24T16:42:33.3Z</time></trkpt><trkpt lat="43.44021" lon="11.8132333"><ele>239.0</ele><time>2026-03-24T16:42:35.298Z</time></trkpt><trkpt lat="43.4403017" lon="11.81325"><ele>238.99999999999997</ele><time>2026-03-24T16:42:37.301Z</time></trkpt><trkpt lat="43.4403983" lon="11.81325"><ele>238.99999999999997</ele><time>2026-03-24T16:42:39.299Z</time></trkpt><trkpt lat="43.4404933" lon="11.8132483"><ele>239.0</ele><time>2026-03-24T16:42:41.3Z</time></trkpt><trkpt lat="43.4405917" lon="11.8132333"><ele>239.0</ele><time>2026-03-24T16:42:43.299Z</time></trkpt><trkpt lat="43.4407" lon="11.8132183"><ele>239.0</ele><time>2026-03-24T16:42:45.301Z</time></trkpt><trkpt lat="43.440805" lon="11.81321"><ele>238.99999999999997</ele><time>2026-03-24T16:42:47.3Z</time></trkpt><trkpt lat="43.44091" lon="11.8132067"><ele>238.99999999999997</ele><time>2026-03-24T16:42:49.3Z</time></trkpt><trkpt lat="43.4410183" lon="11.8131983"><ele>239.0</ele><time>2026-03-24T16:42:51.302Z</time></trkpt><trkpt lat="43.4411367" lon="11.813185"><ele>239.0</ele><time>2026-03-24T16:42:53.298Z</time></trkpt><trkpt lat="43.441255" lon="11.8131783"><ele>238.75</ele><time>2026-03-24T16:42:55.297Z</time></trkpt><trkpt lat="43.4413733" lon="11.8131733"><ele>238.5</ele><time>2026-03-24T16:42:57.3Z</time></trkpt><trkpt lat="43.441495" lon="11.81316"><ele>238.25</ele><time>2026-03-24T16:42:59.299Z</time></trkpt><trkpt lat="43.4416083" lon="11.81315"><ele>238.0</ele><time>2026-03-24T16:43:01.298Z</time></trkpt><trkpt lat="43.4417283" lon="11.8131417"><ele>238.0</ele><time>2026-03-24T16:43:03.301Z</time></trkpt><trkpt lat="43.4418483" lon="11.81313"><ele>238.0</ele><time>2026-03-24T16:43:05.3Z</time></trkpt><trkpt lat="43.4419633" lon="11.8131183"><ele>238.0</ele><time>2026-03-24T16:43:07.301Z</time></trkpt><trkpt lat="43.4420717" lon="11.8131067"><ele>238.0</ele><time>2026-03-24T16:43:09.3Z</time></trkpt><trkpt lat="43.4421867" lon="11.8130867"><ele>238.0</ele><time>2026-03-24T16:43:11.299Z</time></trkpt><trkpt lat="43.4423017" lon="11.8130833"><ele>238.0</ele><time>2026-03-24T16:43:13.301Z</time></trkpt><trkpt lat="43.4424217" lon="11.8130767"><ele>238.0</ele><time>2026-03-24T16:43:15.299Z</time></trkpt><trkpt lat="43.442535" lon="11.8130717"><ele>238.0</ele><time>2026-03-24T16:43:17.299Z</time></trkpt><trkpt lat="43.44265" lon="11.81307"><ele>238.0</ele><time>2026-03-24T16:43:19.3Z</time></trkpt><trkpt lat="43.44277" lon="11.8130583"><ele>238.0</ele><time>2026-03-24T16:43:21.301Z</time></trkpt><trkpt lat="43.44288" lon="11.81305"><ele>238.0</ele><time>2026-03-24T16:43:23.299Z</time></trkpt><trkpt lat="43.4429917" lon="11.81305"><ele>238.0</ele><time>2026-03-24T16:43:25.298Z</time></trkpt><trkpt lat="43.4431" lon="11.813035"><ele>237.8</ele><time>2026-03-24T16:43:27.299Z</time></trkpt><trkpt lat="43.4432067" lon="11.813025"><ele>237.60000000000002</ele><time>2026-03-24T16:43:29.3Z</time></trkpt><trkpt lat="43.4433167" lon="11.8130017"><ele>237.39999999999998</ele><time>2026-03-24T16:43:31.3Z</time></trkpt><trkpt lat="43.44342" lon="11.812985"><ele>237.2</ele><time>2026-03-24T16:43:33.299Z</time></trkpt><trkpt lat="43.4435167" lon="11.8129767"><ele>237.0</ele><time>2026-03-24T16:43:35.295Z</time></trkpt><trkpt lat="43.4436" lon="11.8129833"><ele>237.0</ele><time>2026-03-24T16:43:37.3Z</time></trkpt><trkpt lat="43.4436667" lon="11.8129817"><ele>237.0</ele><time>2026-03-24T16:43:39.298Z</time></trkpt><trkpt lat="43.4437317" lon="11.8129683"><ele>237.0</ele><time>2026-03-24T16:43:41.301Z</time></trkpt><trkpt lat="43.4438217" lon="11.8129533"><ele>237.0</ele><time>2026-03-24T16:43:43.301Z</time></trkpt><trkpt lat="43.4439133" lon="11.8129533"><ele>237.0</ele><time>2026-03-24T16:43:45.299Z</time></trkpt><trkpt lat="43.4439983" lon="11.8129567"><ele>237.0</ele><time>2026-03-24T16:43:47.3Z</time></trkpt><trkpt lat="43.4440833" lon="11.8129433"><ele>237.2</ele><time>2026-03-24T16:43:49.3Z</time></trkpt><trkpt lat="43.44417" lon="11.81293"><ele>237.39999999999998</ele><time>2026-03-24T16:43:51.299Z</time></trkpt><trkpt lat="43.444255" lon="11.8129117"><ele>237.60000000000002</ele><time>2026-03-24T16:43:53.301Z</time></trkpt><trkpt lat="43.4443367" lon="11.8129317"><ele>237.8</ele><time>2026-03-24T16:43:56.3Z</time></trkpt><trkpt lat="43.4444933" lon="11.813015"><ele>238.0</ele><time>2026-03-24T16:44:17.298Z</time></trkpt><trkpt lat="43.4446533" lon="11.81294"><ele>238.0</ele><time>2026-03-24T16:44:23.3Z</time></trkpt><trkpt lat="43.4447683" lon="11.8129633"><ele>238.0</ele><time>2026-03-24T16:44:25.3Z</time></trkpt><trkpt lat="43.4448567" lon="11.8129817"><ele>238.0</ele><time>2026-03-24T16:44:26.298Z</time></trkpt><trkpt lat="43.44494" lon="11.8129867"><ele>238.0</ele><time>2026-03-24T16:44:28.297Z</time></trkpt><trkpt lat="43.4450983" lon="11.8130533"><ele>238.0</ele><time>2026-03-24T16:44:31.295Z</time></trkpt><trkpt lat="43.4449767" lon="11.8129383"><ele>238.0</ele><time>2026-03-24T16:44:36.295Z</time></trkpt><trkpt lat="43.4449167" lon="11.81291"><ele>238.0</ele><time>2026-03-24T16:44:38.296Z</time></trkpt><trkpt lat="43.444655" lon="11.81284"><ele>237.99999999999997</ele><time>2026-03-24T16:44:43.298Z</time></trkpt><trkpt lat="43.44451" lon="11.8128533"><ele>238.0</ele><time>2026-03-24T16:44:53.298Z</time></trkpt><trkpt lat="43.4444433" lon="11.81286"><ele>238.0</ele><time>2026-03-24T16:46:04.3Z</time></trkpt><trkpt lat="43.4445183" lon="11.8128767"><ele>238.0</ele><time>2026-03-24T16:46:08.299Z</time></trkpt><trkpt lat="43.44459" lon="11.81289"><ele>237.99999999999997</ele><time>2026-03-24T16:46:11.298Z</time></trkpt><trkpt lat="43.4446783" lon="11.8129017"><ele>238.0</ele><time>2026-03-24T16:46:14.298Z</time></trkpt><trkpt lat="43.4447417" lon="11.8129117"><ele>237.99999999999997</ele><time>2026-03-24T16:46:16.299Z</time></trkpt><trkpt lat="43.4448083" lon="11.8129233"><ele>238.0</ele><time>2026-03-24T16:46:18.299Z</time></trkpt><trkpt lat="43.4448883" lon="11.81293"><ele>238.0</ele><time>2026-03-24T16:46:21.3Z</time></trkpt><trkpt lat="43.44497" lon="11.81294"><ele>238.0</ele><time>2026-03-24T16:46:24.298Z</time></trkpt><trkpt lat="43.4450617" lon="11.8129617"><ele>237.99999999999997</ele><time>2026-03-24T16:46:27.3Z</time></trkpt><trkpt lat="43.4451517" lon="11.8129867"><ele>238.0</ele><time>2026-03-24T16:46:30.298Z</time></trkpt><trkpt lat="43.4452383" lon="11.8130067"><ele>238.0</ele><time>2026-03-24T16:46:33.299Z</time></trkpt><trkpt lat="43.4453133" lon="11.813025"><ele>238.0</ele><time>2026-03-24T16:46:36.298Z</time></trkpt><trkpt lat="43.4453817" lon="11.8130067"><ele>238.0</ele><time>2026-03-24T16:46:39.298Z</time></trkpt><trkpt lat="43.44545" lon="11.8129983"><ele>238.0</ele><time>2026-03-24T16:46:42.298Z</time></trkpt><trkpt lat="43.4455133" lon="11.8129867"><ele>238.0</ele><time>2026-03-24T16:46:45.297Z</time></trkpt><trkpt lat="43.4455867" lon="11.8129883"><ele>238.0</ele><time>2026-03-24T16:46:49.301Z</time></trkpt><trkpt lat="43.4456733" lon="11.812935"><ele>238.0</ele><time>2026-03-24T16:47:12.304Z</time></trkpt><trkpt lat="43.4456917" lon="11.812845"><ele>238.49999999999997</ele><time>2026-03-24T16:47:15.305Z</time></trkpt><trkpt lat="43.44571" lon="11.8126983"><ele>239.0</ele><time>2026-03-24T16:47:18.3Z</time></trkpt><trkpt lat="43.4457067" lon="11.8125683"><ele>239.5</ele><time>2026-03-24T16:47:21.3Z</time></trkpt><trkpt lat="43.4457117" lon="11.812465"><ele>240.0</ele><time>2026-03-24T16:47:23.3Z</time></trkpt><trkpt lat="43.4457183" lon="11.8123533"><ele>240.49999999999997</ele><time>2026-03-24T16:47:25.299Z</time></trkpt><trkpt lat="43.44572" lon="11.8122433"><ele>241.0</ele><time>2026-03-24T16:47:27.302Z</time></trkpt><trkpt lat="43.44572" lon="11.8121383"><ele>241.49999999999997</ele><time>2026-03-24T16:47:29.299Z</time></trkpt><trkpt lat="43.4457167" lon="11.81202"><ele>242.0</ele><time>2026-03-24T16:47:31.3Z</time></trkpt><trkpt lat="43.4457217" lon="11.8119017"><ele>242.5</ele><time>2026-03-24T16:47:33.299Z</time></trkpt><trkpt lat="43.44572" lon="11.8117867"><ele>243.0</ele><time>2026-03-24T16:47:35.3Z</time></trkpt><trkpt lat="43.4457183" lon="11.8116783"><ele>243.49999999999997</ele><time>2026-03-24T16:47:37.301Z</time></trkpt><trkpt lat="43.445715" lon="11.811575"><ele>244.0</ele><time>2026-03-24T16:47:39.299Z</time></trkpt><trkpt lat="43.4457067" lon="11.811475"><ele>243.99999999999997</ele><time>2026-03-24T16:47:41.298Z</time></trkpt><trkpt lat="43.4457083" lon="11.8113833"><ele>244.0</ele><time>2026-03-24T16:47:43.303Z</time></trkpt><trkpt lat="43.4457083" lon="11.81129"><ele>243.99999999999997</ele><time>2026-03-24T16:47:45.301Z</time></trkpt><trkpt lat="43.4457083" lon="11.811185"><ele>243.99999999999997</ele><time>2026-03-24T16:47:47.297Z</time></trkpt><trkpt lat="43.4457083" lon="11.811085"><ele>244.0</ele><time>2026-03-24T16:47:49.299Z</time></trkpt><trkpt lat="43.445725" lon="11.810995"><ele>243.99999999999997</ele><time>2026-03-24T16:47:52.302Z</time></trkpt><trkpt lat="43.445715" lon="11.8109"><ele>243.99999999999997</ele><time>2026-03-24T16:48:41.301Z</time></trkpt><trkpt lat="43.4456667" lon="11.8107967"><ele>244.28571428571425</ele><time>2026-03-24T16:48:44.298Z</time></trkpt><trkpt lat="43.4456167" lon="11.8107333"><ele>244.57142857142856</ele><time>2026-03-24T16:48:46.301Z</time></trkpt><trkpt lat="43.44556" lon="11.8106733"><ele>244.85714285714286</ele><time>2026-03-24T16:48:48.299Z</time></trkpt><trkpt lat="43.4455067" lon="11.8106167"><ele>245.14285714285714</ele><time>2026-03-24T16:48:50.302Z</time></trkpt><trkpt lat="43.44545" lon="11.8105667"><ele>245.42857142857144</ele><time>2026-03-24T16:48:52.3Z</time></trkpt><trkpt lat="43.4453883" lon="11.8105183"><ele>245.71428571428575</ele><time>2026-03-24T16:48:54.299Z</time></trkpt><trkpt lat="43.445325" lon="11.810475"><ele>246.00000000000003</ele><time>2026-03-24T16:48:56.298Z</time></trkpt><trkpt lat="43.44527" lon="11.8104283"><ele>246.0</ele><time>2026-03-24T16:48:58.299Z</time></trkpt><trkpt lat="43.4452117" lon="11.810385"><ele>246.0</ele><time>2026-03-24T16:49:00.301Z</time></trkpt><trkpt lat="43.4451333" lon="11.8103183"><ele>246.0</ele><time>2026-03-24T16:49:03.304Z</time></trkpt><trkpt lat="43.4450533" lon="11.8102567"><ele>246.0</ele><time>2026-03-24T16:49:06.3Z</time></trkpt><trkpt lat="43.44497" lon="11.81021"><ele>246.0</ele><time>2026-03-24T16:49:09.3Z</time></trkpt><trkpt lat="43.4449033" lon="11.8101783"><ele>246.0</ele><time>2026-03-24T16:49:11.299Z</time></trkpt><trkpt lat="43.4448183" lon="11.8101433"><ele>245.83333333333334</ele><time>2026-03-24T16:49:14.3Z</time></trkpt><trkpt lat="43.4447367" lon="11.810105"><ele>245.66666666666669</ele><time>2026-03-24T16:49:17.298Z</time></trkpt><trkpt lat="43.4446633" lon="11.8100733"><ele>245.5</ele><time>2026-03-24T16:49:20.303Z</time></trkpt><trkpt lat="43.4445817" lon="11.81004"><ele>245.33333333333334</ele><time>2026-03-24T16:49:23.299Z</time></trkpt><trkpt lat="43.4444833" lon="11.8100117"><ele>245.16666666666669</ele><time>2026-03-24T16:49:27.299Z</time></trkpt><trkpt lat="43.444415" lon="11.8099833"><ele>245.0</ele><time>2026-03-24T16:49:30.3Z</time></trkpt><trkpt lat="43.4443533" lon="11.809935"><ele>245.0</ele><time>2026-03-24T16:49:32.3Z</time></trkpt><trkpt lat="43.4442983" lon="11.80989"><ele>245.0</ele><time>2026-03-24T16:49:34.3Z</time></trkpt><trkpt lat="43.444245" lon="11.80983"><ele>245.0</ele><time>2026-03-24T16:49:36.299Z</time></trkpt><trkpt lat="43.44419" lon="11.8097767"><ele>245.0</ele><time>2026-03-24T16:49:38.3Z</time></trkpt><trkpt lat="43.4441383" lon="11.8097133"><ele>245.0</ele><time>2026-03-24T16:49:40.299Z</time></trkpt><trkpt lat="43.4440867" lon="11.809635"><ele>245.0</ele><time>2026-03-24T16:49:42.301Z</time></trkpt><trkpt lat="43.4440433" lon="11.8095667"><ele>245.0</ele><time>2026-03-24T16:49:44.3Z</time></trkpt><trkpt lat="43.4439817" lon="11.8094683"><ele>245.00000000000003</ele><time>2026-03-24T16:49:47.3Z</time></trkpt><trkpt lat="43.4439333" lon="11.8094067"><ele>245.0</ele><time>2026-03-24T16:49:49.3Z</time></trkpt><trkpt lat="43.4438667" lon="11.8093283"><ele>245.0</ele><time>2026-03-24T16:49:52.298Z</time></trkpt><trkpt lat="43.44382" lon="11.8092533"><ele>245.0</ele><time>2026-03-24T16:49:54.3Z</time></trkpt><trkpt lat="43.4437533" lon="11.8091583"><ele>245.00000000000003</ele><time>2026-03-24T16:49:57.301Z</time></trkpt><trkpt lat="43.4436817" lon="11.8090783"><ele>245.0</ele><time>2026-03-24T16:49:59.299Z</time></trkpt><trkpt lat="43.4436183" lon="11.8090133"><ele>244.83333333333334</ele><time>2026-03-24T16:50:01.298Z</time></trkpt><trkpt lat="43.4435567" lon="11.80896"><ele>244.66666666666669</ele><time>2026-03-24T16:50:03.299Z</time></trkpt><trkpt lat="43.4434983" lon="11.8088883"><ele>244.5</ele><time>2026-03-24T16:50:05.3Z</time></trkpt><trkpt lat="43.44344" lon="11.8088217"><ele>244.33333333333331</ele><time>2026-03-24T16:50:07.3Z</time></trkpt><trkpt lat="43.4433867" lon="11.8087567"><ele>244.16666666666666</ele><time>2026-03-24T16:50:09.299Z</time></trkpt><trkpt lat="43.4433283" lon="11.8086917"><ele>244.0</ele><time>2026-03-24T16:50:11.301Z</time></trkpt><trkpt lat="43.4432583" lon="11.8086283"><ele>243.99999999999997</ele><time>2026-03-24T16:50:13.299Z</time></trkpt><trkpt lat="43.4432017" lon="11.80858"><ele>244.0</ele><time>2026-03-24T16:50:15.3Z</time></trkpt><trkpt lat="43.4431333" lon="11.8085233"><ele>244.0</ele><time>2026-03-24T16:50:17.299Z</time></trkpt><trkpt lat="43.4430767" lon="11.80848"><ele>244.0</ele><time>2026-03-24T16:50:19.301Z</time></trkpt><trkpt lat="43.4429967" lon="11.808415"><ele>243.99999999999997</ele><time>2026-03-24T16:50:22.299Z</time></trkpt><trkpt lat="43.4429167" lon="11.808365"><ele>244.0</ele><time>2026-03-24T16:50:24.3Z</time></trkpt><trkpt lat="43.442845" lon="11.8083167"><ele>244.16666666666666</ele><time>2026-03-24T16:50:26.3Z</time></trkpt><trkpt lat="43.442775" lon="11.8082717"><ele>244.33333333333331</ele><time>2026-03-24T16:50:28.3Z</time></trkpt><trkpt lat="43.44271" lon="11.808235"><ele>244.5</ele><time>2026-03-24T16:50:30.301Z</time></trkpt><trkpt lat="43.442635" lon="11.8081883"><ele>244.66666666666669</ele><time>2026-03-24T16:50:33.3Z</time></trkpt><trkpt lat="43.44258" lon="11.80814"><ele>244.83333333333334</ele><time>2026-03-24T16:50:35.299Z</time></trkpt><trkpt lat="43.4425133" lon="11.80809"><ele>245.0</ele><time>2026-03-24T16:50:37.299Z</time></trkpt><trkpt lat="43.44243" lon="11.80803"><ele>245.00000000000003</ele><time>2026-03-24T16:50:40.298Z</time></trkpt><trkpt lat="43.44237" lon="11.807985"><ele>245.0</ele><time>2026-03-24T16:50:42.299Z</time></trkpt><trkpt lat="43.442315" lon="11.80794"><ele>245.0</ele><time>2026-03-24T16:50:44.299Z</time></trkpt><trkpt lat="43.4422317" lon="11.8078867"><ele>245.0</ele><time>2026-03-24T16:50:47.298Z</time></trkpt><trkpt lat="43.4421583" lon="11.8078217"><ele>245.00000000000003</ele><time>2026-03-24T16:50:50.298Z</time></trkpt><trkpt lat="43.4420967" lon="11.8077583"><ele>245.0</ele><time>2026-03-24T16:50:53.3Z</time></trkpt><trkpt lat="43.4420083" lon="11.8076767"><ele>245.0</ele><time>2026-03-24T16:50:56.3Z</time></trkpt><trkpt lat="43.4419233" lon="11.8076083"><ele>245.0</ele><time>2026-03-24T16:50:58.299Z</time></trkpt><trkpt lat="43.4418367" lon="11.80753"><ele>245.0</ele><time>2026-03-24T16:51:00.298Z</time></trkpt><trkpt lat="43.4417483" lon="11.80745"><ele>245.0</ele><time>2026-03-24T16:51:02.3Z</time></trkpt><trkpt lat="43.4416667" lon="11.8073733"><ele>245.0</ele><time>2026-03-24T16:51:04.3Z</time></trkpt><trkpt lat="43.441585" lon="11.8072917"><ele>245.0</ele><time>2026-03-24T16:51:06.299Z</time></trkpt><trkpt lat="43.4414933" lon="11.8072167"><ele>245.0</ele><time>2026-03-24T16:51:08.303Z</time></trkpt><trkpt lat="43.4413983" lon="11.80714"><ele>245.0</ele><time>2026-03-24T16:51:10.299Z</time></trkpt><trkpt lat="43.441305" lon="11.80706"><ele>245.0</ele><time>2026-03-24T16:51:12.302Z</time></trkpt><trkpt lat="43.4412417" lon="11.8070233"><ele>245.0</ele><time>2026-03-24T16:51:13.298Z</time></trkpt><trkpt lat="43.44116" lon="11.80694"><ele>245.0</ele><time>2026-03-24T16:51:15.298Z</time></trkpt><trkpt lat="43.4410817" lon="11.80686"><ele>245.0</ele><time>2026-03-24T16:51:17.3Z</time></trkpt><trkpt lat="43.440985" lon="11.806795"><ele>245.0</ele><time>2026-03-24T16:51:19.303Z</time></trkpt><trkpt lat="43.4408967" lon="11.80672"><ele>245.0</ele><time>2026-03-24T16:51:21.301Z</time></trkpt><trkpt lat="43.4408033" lon="11.806645"><ele>245.0</ele><time>2026-03-24T16:51:23.298Z</time></trkpt><trkpt lat="43.440705" lon="11.806575"><ele>245.2</ele><time>2026-03-24T16:51:25.298Z</time></trkpt><trkpt lat="43.4406167" lon="11.8064967"><ele>245.4</ele><time>2026-03-24T16:51:27.304Z</time></trkpt><trkpt lat="43.44054" lon="11.8064217"><ele>245.60000000000002</ele><time>2026-03-24T16:51:29.301Z</time></trkpt><trkpt lat="43.4404667" lon="11.8063483"><ele>245.8</ele><time>2026-03-24T16:51:31.299Z</time></trkpt><trkpt lat="43.4404017" lon="11.8062717"><ele>246.0</ele><time>2026-03-24T16:51:33.3Z</time></trkpt><trkpt lat="43.44033" lon="11.806215"><ele>245.83333333333334</ele><time>2026-03-24T16:51:35.299Z</time></trkpt><trkpt lat="43.440265" lon="11.8061583"><ele>245.66666666666669</ele><time>2026-03-24T16:51:37.298Z</time></trkpt><trkpt lat="43.4401883" lon="11.806115"><ele>245.5</ele><time>2026-03-24T16:51:39.299Z</time></trkpt><trkpt lat="43.44013" lon="11.806075"><ele>245.33333333333334</ele><time>2026-03-24T16:51:41.299Z</time></trkpt><trkpt lat="43.4400717" lon="11.8060217"><ele>245.16666666666669</ele><time>2026-03-24T16:51:43.301Z</time></trkpt><trkpt lat="43.4400017" lon="11.805965"><ele>245.0</ele><time>2026-03-24T16:51:45.301Z</time></trkpt><trkpt lat="43.439915" lon="11.8059183"><ele>245.00000000000003</ele><time>2026-03-24T16:51:47.301Z</time></trkpt><trkpt lat="43.43986" lon="11.805865"><ele>245.0</ele><time>2026-03-24T16:51:49.3Z</time></trkpt><trkpt lat="43.439785" lon="11.805795"><ele>245.0</ele><time>2026-03-24T16:51:52.301Z</time></trkpt><trkpt lat="43.43973" lon="11.8057483"><ele>245.0</ele><time>2026-03-24T16:51:54.301Z</time></trkpt><trkpt lat="43.4396517" lon="11.805685"><ele>245.00000000000003</ele><time>2026-03-24T16:51:57.303Z</time></trkpt><trkpt lat="43.4395833" lon="11.80563"><ele>245.0</ele><time>2026-03-24T16:52:00.299Z</time></trkpt><trkpt lat="43.4396367" lon="11.8055533"><ele>245.0</ele><time>2026-03-24T16:52:58.299Z</time></trkpt><trkpt lat="43.439715" lon="11.8055067"><ele>245.0</ele><time>2026-03-24T16:53:01.3Z</time></trkpt><trkpt lat="43.4397817" lon="11.8054883"><ele>245.0</ele><time>2026-03-24T16:53:03.3Z</time></trkpt><trkpt lat="43.4398467" lon="11.805465"><ele>245.0</ele><time>2026-03-24T16:53:05.3Z</time></trkpt><trkpt lat="43.43991" lon="11.80544"><ele>245.0</ele><time>2026-03-24T16:53:07.3Z</time></trkpt><trkpt lat="43.439975" lon="11.80541"><ele>245.0</ele><time>2026-03-24T16:53:09.301Z</time></trkpt><trkpt lat="43.44005" lon="11.8053767"><ele>245.0</ele><time>2026-03-24T16:53:11.298Z</time></trkpt><trkpt lat="43.44013" lon="11.8053383"><ele>245.0</ele><time>2026-03-24T16:53:13.3Z</time></trkpt><trkpt lat="43.4402233" lon="11.8052917"><ele>245.0</ele><time>2026-03-24T16:53:15.299Z</time></trkpt><trkpt lat="43.4403233" lon="11.8052567"><ele>245.0</ele><time>2026-03-24T16:53:17.3Z</time></trkpt><trkpt lat="43.440425" lon="11.805215"><ele>245.0</ele><time>2026-03-24T16:53:19.3Z</time></trkpt><trkpt lat="43.4405267" lon="11.8051567"><ele>245.0</ele><time>2026-03-24T16:53:21.301Z</time></trkpt><trkpt lat="43.440625" lon="11.8051117"><ele>245.0</ele><time>2026-03-24T16:53:23.298Z</time></trkpt><trkpt lat="43.4407283" lon="11.805075"><ele>245.0</ele><time>2026-03-24T16:53:25.302Z</time></trkpt><trkpt lat="43.4408283" lon="11.8050383"><ele>245.0</ele><time>2026-03-24T16:53:27.3Z</time></trkpt><trkpt lat="43.4409233" lon="11.804995"><ele>245.0</ele><time>2026-03-24T16:53:29.298Z</time></trkpt><trkpt lat="43.44102" lon="11.8049483"><ele>245.0</ele><time>2026-03-24T16:53:31.303Z</time></trkpt><trkpt lat="43.441115" lon="11.804905"><ele>245.00000000000003</ele><time>2026-03-24T16:53:33.302Z</time></trkpt><trkpt lat="43.4412067" lon="11.80487"><ele>245.0</ele><time>2026-03-24T16:53:35.3Z</time></trkpt><trkpt lat="43.4412983" lon="11.8048517"><ele>245.0</ele><time>2026-03-24T16:53:37.3Z</time></trkpt><trkpt lat="43.4413933" lon="11.80483"><ele>245.0</ele><time>2026-03-24T16:53:39.298Z</time></trkpt><trkpt lat="43.4414667" lon="11.804815"><ele>245.00000000000003</ele><time>2026-03-24T16:53:41.299Z</time></trkpt><trkpt lat="43.4415467" lon="11.8048017"><ele>245.0</ele><time>2026-03-24T16:53:43.299Z</time></trkpt><trkpt lat="43.4416333" lon="11.8047567"><ele>244.8</ele><time>2026-03-24T16:53:45.299Z</time></trkpt><trkpt lat="43.441715" lon="11.804705"><ele>244.6</ele><time>2026-03-24T16:53:47.298Z</time></trkpt><trkpt lat="43.4418" lon="11.8046583"><ele>244.39999999999998</ele><time>2026-03-24T16:53:49.299Z</time></trkpt><trkpt lat="43.44189" lon="11.804605"><ele>244.2</ele><time>2026-03-24T16:53:51.3Z</time></trkpt><trkpt lat="43.441975" lon="11.80453"><ele>244.0</ele><time>2026-03-24T16:53:53.3Z</time></trkpt><trkpt lat="43.442055" lon="11.8044333"><ele>244.0</ele><time>2026-03-24T16:53:55.305Z</time></trkpt><trkpt lat="43.44212" lon="11.804335"><ele>243.99999999999997</ele><time>2026-03-24T16:53:57.299Z</time></trkpt><trkpt lat="43.4421733" lon="11.80422"><ele>243.99999999999997</ele><time>2026-03-24T16:53:59.3Z</time></trkpt><trkpt lat="43.4422283" lon="11.8041017"><ele>244.0</ele><time>2026-03-24T16:54:01.299Z</time></trkpt><trkpt lat="43.44228" lon="11.80397"><ele>244.0</ele><time>2026-03-24T16:54:03.297Z</time></trkpt><trkpt lat="43.4423317" lon="11.80385"><ele>244.0</ele><time>2026-03-24T16:54:05.3Z</time></trkpt><trkpt lat="43.442375" lon="11.803725"><ele>243.99999999999997</ele><time>2026-03-24T16:54:07.298Z</time></trkpt><trkpt lat="43.4424267" lon="11.8036"><ele>243.99999999999997</ele><time>2026-03-24T16:54:09.298Z</time></trkpt><trkpt lat="43.4424767" lon="11.80348"><ele>244.0</ele><time>2026-03-24T16:54:11.297Z</time></trkpt><trkpt lat="43.442525" lon="11.8033583"><ele>244.0</ele><time>2026-03-24T16:54:13.296Z</time></trkpt><trkpt lat="43.44257" lon="11.803245"><ele>244.0</ele><time>2026-03-24T16:54:15.299Z</time></trkpt><trkpt lat="43.4426167" lon="11.8031117"><ele>243.99999999999997</ele><time>2026-03-24T16:54:17.296Z</time></trkpt><trkpt lat="43.4426633" lon="11.8029983"><ele>243.99999999999997</ele><time>2026-03-24T16:54:19.299Z</time></trkpt><trkpt lat="43.44271" lon="11.8028867"><ele>244.0</ele><time>2026-03-24T16:54:21.295Z</time></trkpt><trkpt lat="43.4427533" lon="11.8027633"><ele>244.0</ele><time>2026-03-24T16:54:23.296Z</time></trkpt><trkpt lat="43.442795" lon="11.8026467"><ele>244.0</ele><time>2026-03-24T16:54:25.302Z</time></trkpt><trkpt lat="43.4428417" lon="11.8025383"><ele>243.99999999999997</ele><time>2026-03-24T16:54:27.297Z</time></trkpt><trkpt lat="43.4428833" lon="11.8024283"><ele>243.99999999999997</ele><time>2026-03-24T16:54:29.298Z</time></trkpt><trkpt lat="43.4429267" lon="11.8023217"><ele>244.0</ele><time>2026-03-24T16:54:31.299Z</time></trkpt><trkpt lat="43.4429667" lon="11.8022117"><ele>244.0</ele><time>2026-03-24T16:54:33.3Z</time></trkpt><trkpt lat="43.4430133" lon="11.802095"><ele>244.2</ele><time>2026-03-24T16:54:35.297Z</time></trkpt><trkpt lat="43.4430533" lon="11.8019833"><ele>244.39999999999998</ele><time>2026-03-24T16:54:37.303Z</time></trkpt><trkpt lat="43.4431017" lon="11.8018783"><ele>244.6</ele><time>2026-03-24T16:54:39.302Z</time></trkpt><trkpt lat="43.44314" lon="11.8017667"><ele>244.8</ele><time>2026-03-24T16:54:41.299Z</time></trkpt><trkpt lat="43.4431817" lon="11.801655"><ele>245.0</ele><time>2026-03-24T16:54:43.298Z</time></trkpt><trkpt lat="43.443225" lon="11.8015467"><ele>245.0</ele><time>2026-03-24T16:54:45.3Z</time></trkpt><trkpt lat="43.4432683" lon="11.8014433"><ele>245.0</ele><time>2026-03-24T16:54:47.3Z</time></trkpt><trkpt lat="43.443345" lon="11.8012867"><ele>245.0</ele><time>2026-03-24T16:54:50.298Z</time></trkpt><trkpt lat="43.4434033" lon="11.8011667"><ele>245.0</ele><time>2026-03-24T16:54:52.299Z</time></trkpt><trkpt lat="43.4434533" lon="11.8010467"><ele>245.0</ele><time>2026-03-24T16:54:54.303Z</time></trkpt><trkpt lat="43.4435" lon="11.8009233"><ele>245.00000000000003</ele><time>2026-03-24T16:54:56.299Z</time></trkpt><trkpt lat="43.443535" lon="11.8007967"><ele>245.0</ele><time>2026-03-24T16:54:58.298Z</time></trkpt><trkpt lat="43.4435767" lon="11.8006767"><ele>245.0</ele><time>2026-03-24T16:55:00.299Z</time></trkpt><trkpt lat="43.4436167" lon="11.80055"><ele>245.0</ele><time>2026-03-24T16:55:02.297Z</time></trkpt><trkpt lat="43.4436417" lon="11.8004583"><ele>245.00000000000003</ele><time>2026-03-24T16:55:04.295Z</time></trkpt><trkpt lat="43.44368" lon="11.8003567"><ele>245.0</ele><time>2026-03-24T16:55:06.298Z</time></trkpt><trkpt lat="43.44373" lon="11.8002367"><ele>245.0</ele><time>2026-03-24T16:55:08.297Z</time></trkpt><trkpt lat="43.4437933" lon="11.8001383"><ele>245.0</ele><time>2026-03-24T16:55:10.298Z</time></trkpt><trkpt lat="43.44386" lon="11.8000667"><ele>245.0</ele><time>2026-03-24T16:55:12.299Z</time></trkpt><trkpt lat="43.4439317" lon="11.79999"><ele>245.0</ele><time>2026-03-24T16:55:14.301Z</time></trkpt><trkpt lat="43.4440033" lon="11.79991"><ele>245.0</ele><time>2026-03-24T16:55:16.298Z</time></trkpt><trkpt lat="43.4440717" lon="11.7998283"><ele>245.00000000000003</ele><time>2026-03-24T16:55:18.3Z</time></trkpt><trkpt lat="43.4441483" lon="11.7997567"><ele>245.0</ele><time>2026-03-24T16:55:20.301Z</time></trkpt><trkpt lat="43.444225" lon="11.7996933"><ele>245.0</ele><time>2026-03-24T16:55:22.298Z</time></trkpt><trkpt lat="43.4442917" lon="11.79964"><ele>245.0</ele><time>2026-03-24T16:55:24.3Z</time></trkpt><trkpt lat="43.4443567" lon="11.7995867"><ele>245.00000000000003</ele><time>2026-03-24T16:55:26.299Z</time></trkpt><trkpt lat="43.4444233" lon="11.79953"><ele>245.0</ele><time>2026-03-24T16:55:28.303Z</time></trkpt><trkpt lat="43.4444917" lon="11.7994783"><ele>245.00000000000003</ele><time>2026-03-24T16:55:30.297Z</time></trkpt><trkpt lat="43.4445583" lon="11.799425"><ele>245.0</ele><time>2026-03-24T16:55:32.299Z</time></trkpt><trkpt lat="43.4446217" lon="11.7993733"><ele>245.0</ele><time>2026-03-24T16:55:34.299Z</time></trkpt><trkpt lat="43.4446883" lon="11.7993233"><ele>245.0</ele><time>2026-03-24T16:55:36.297Z</time></trkpt><trkpt lat="43.4447567" lon="11.7992683"><ele>245.00000000000003</ele><time>2026-03-24T16:55:38.296Z</time></trkpt><trkpt lat="43.444815" lon="11.79921"><ele>245.0</ele><time>2026-03-24T16:55:40.299Z</time></trkpt><trkpt lat="43.4448567" lon="11.7991217"><ele>245.16666666666669</ele><time>2026-03-24T16:55:42.299Z</time></trkpt><trkpt lat="43.44486" lon="11.7990267"><ele>245.33333333333334</ele><time>2026-03-24T16:55:44.301Z</time></trkpt><trkpt lat="43.444815" lon="11.7989217"><ele>245.5</ele><time>2026-03-24T16:55:47.297Z</time></trkpt><trkpt lat="43.444765" lon="11.7988667"><ele>245.66666666666669</ele><time>2026-03-24T16:55:49.299Z</time></trkpt><trkpt lat="43.4447133" lon="11.79881"><ele>245.83333333333334</ele><time>2026-03-24T16:55:51.299Z</time></trkpt><trkpt lat="43.444625" lon="11.7987217"><ele>246.0</ele><time>2026-03-24T16:55:54.298Z</time></trkpt><trkpt lat="43.4445717" lon="11.7986483"><ele>246.0</ele><time>2026-03-24T16:55:56.3Z</time></trkpt><trkpt lat="43.444505" lon="11.7985883"><ele>246.0</ele><time>2026-03-24T16:55:58.298Z</time></trkpt><trkpt lat="43.4444383" lon="11.7985283"><ele>246.0</ele><time>2026-03-24T16:56:00.301Z</time></trkpt><trkpt lat="43.4443617" lon="11.798475"><ele>246.0</ele><time>2026-03-24T16:56:02.302Z</time></trkpt><trkpt lat="43.4442883" lon="11.79841"><ele>246.0</ele><time>2026-03-24T16:56:04.3Z</time></trkpt><trkpt lat="43.4442133" lon="11.7983433"><ele>246.0</ele><time>2026-03-24T16:56:06.298Z</time></trkpt><trkpt lat="43.444135" lon="11.79829"><ele>246.16666666666666</ele><time>2026-03-24T16:56:08.298Z</time></trkpt><trkpt lat="43.4440567" lon="11.7982333"><ele>246.33333333333331</ele><time>2026-03-24T16:56:10.3Z</time></trkpt><trkpt lat="43.4439817" lon="11.79818"><ele>246.5</ele><time>2026-03-24T16:56:12.299Z</time></trkpt><trkpt lat="43.4439017" lon="11.7981283"><ele>246.66666666666666</ele><time>2026-03-24T16:56:14.3Z</time></trkpt><trkpt lat="43.44382" lon="11.7980833"><ele>246.83333333333331</ele><time>2026-03-24T16:56:16.299Z</time></trkpt><trkpt lat="43.443745" lon="11.7980367"><ele>247.0</ele><time>2026-03-24T16:56:18.299Z</time></trkpt><trkpt lat="43.4436683" lon="11.7979933"><ele>247.0</ele><time>2026-03-24T16:56:20.302Z</time></trkpt><trkpt lat="43.44359" lon="11.7979533"><ele>247.0</ele><time>2026-03-24T16:56:22.301Z</time></trkpt><trkpt lat="43.443495" lon="11.7979217"><ele>247.0</ele><time>2026-03-24T16:56:24.298Z</time></trkpt><trkpt lat="43.4434067" lon="11.7978817"><ele>247.0</ele><time>2026-03-24T16:56:26.298Z</time></trkpt><trkpt lat="43.4433117" lon="11.79784"><ele>247.0</ele><time>2026-03-24T16:56:28.3Z</time></trkpt><trkpt lat="43.443215" lon="11.7977983"><ele>247.0</ele><time>2026-03-24T16:56:30.298Z</time></trkpt><trkpt lat="43.4431233" lon="11.7977583"><ele>247.0</ele><time>2026-03-24T16:56:32.297Z</time></trkpt><trkpt lat="43.443025" lon="11.7977067"><ele>247.0</ele><time>2026-03-24T16:56:34.298Z</time></trkpt><trkpt lat="43.4429267" lon="11.7976683"><ele>247.0</ele><time>2026-03-24T16:56:36.3Z</time></trkpt><trkpt lat="43.44284" lon="11.7976217"><ele>247.0</ele><time>2026-03-24T16:56:38.299Z</time></trkpt><trkpt lat="43.4427533" lon="11.7975783"><ele>246.99999999999997</ele><time>2026-03-24T16:56:40.299Z</time></trkpt><trkpt lat="43.4426633" lon="11.79755"><ele>247.0</ele><time>2026-03-24T16:56:42.3Z</time></trkpt><trkpt lat="43.44257" lon="11.7975217"><ele>247.0</ele><time>2026-03-24T16:56:44.3Z</time></trkpt><trkpt lat="43.442485" lon="11.7974833"><ele>247.0</ele><time>2026-03-24T16:56:46.299Z</time></trkpt><trkpt lat="43.4424017" lon="11.797455"><ele>246.99999999999997</ele><time>2026-03-24T16:56:48.301Z</time></trkpt><trkpt lat="43.4423267" lon="11.79743"><ele>247.0</ele><time>2026-03-24T16:56:50.3Z</time></trkpt><trkpt lat="43.442255" lon="11.7974083"><ele>247.0</ele><time>2026-03-24T16:56:52.302Z</time></trkpt><trkpt lat="43.4421883" lon="11.7973983"><ele>247.0</ele><time>2026-03-24T16:56:54.3Z</time></trkpt><trkpt lat="43.442125" lon="11.7973967"><ele>247.0</ele><time>2026-03-24T16:56:56.301Z</time></trkpt><trkpt lat="43.4420617" lon="11.7973967"><ele>247.0</ele><time>2026-03-24T16:56:58.299Z</time></trkpt><trkpt lat="43.44199" lon="11.7973517"><ele>247.0</ele><time>2026-03-24T16:57:01.299Z</time></trkpt><trkpt lat="43.44192" lon="11.7973283"><ele>247.0</ele><time>2026-03-24T16:57:05.299Z</time></trkpt><trkpt lat="43.4419017" lon="11.7972367"><ele>247.0</ele><time>2026-03-24T16:59:37.303Z</time></trkpt><trkpt lat="43.4418967" lon="11.7971483"><ele>246.83333333333331</ele><time>2026-03-24T16:59:42.299Z</time></trkpt><trkpt lat="43.4419083" lon="11.79703"><ele>246.66666666666666</ele><time>2026-03-24T16:59:46.298Z</time></trkpt><trkpt lat="43.4419" lon="11.79691"><ele>246.5</ele><time>2026-03-24T16:59:49.298Z</time></trkpt><trkpt lat="43.4418933" lon="11.796815"><ele>246.33333333333331</ele><time>2026-03-24T16:59:51.301Z</time></trkpt><trkpt lat="43.441895" lon="11.7967117"><ele>246.16666666666666</ele><time>2026-03-24T16:59:53.3Z</time></trkpt><trkpt lat="43.44191" lon="11.7966033"><ele>246.0</ele><time>2026-03-24T16:59:55.298Z</time></trkpt><trkpt lat="43.44192" lon="11.7964867"><ele>246.0</ele><time>2026-03-24T16:59:57.301Z</time></trkpt><trkpt lat="43.4419317" lon="11.7963817"><ele>246.0</ele><time>2026-03-24T16:59:59.298Z</time></trkpt><trkpt lat="43.4419367" lon="11.7962767"><ele>246.0</ele><time>2026-03-24T17:00:01.3Z</time></trkpt><trkpt lat="43.4419283" lon="11.7961517"><ele>246.0</ele><time>2026-03-24T17:00:04.301Z</time></trkpt><trkpt lat="43.441915" lon="11.7960483"><ele>246.0</ele><time>2026-03-24T17:00:06.3Z</time></trkpt><trkpt lat="43.44189" lon="11.7959433"><ele>246.0</ele><time>2026-03-24T17:00:08.3Z</time></trkpt><trkpt lat="43.441875" lon="11.795835"><ele>246.0</ele><time>2026-03-24T17:00:10.3Z</time></trkpt><trkpt lat="43.4418617" lon="11.7957233"><ele>246.0</ele><time>2026-03-24T17:00:12.3Z</time></trkpt><trkpt lat="43.441855" lon="11.7956067"><ele>246.0</ele><time>2026-03-24T17:00:14.299Z</time></trkpt><trkpt lat="43.44186" lon="11.79548"><ele>246.0</ele><time>2026-03-24T17:00:16.299Z</time></trkpt><trkpt lat="43.44185" lon="11.7953517"><ele>246.0</ele><time>2026-03-24T17:00:18.3Z</time></trkpt><trkpt lat="43.441835" lon="11.7952383"><ele>246.0</ele><time>2026-03-24T17:00:20.3Z</time></trkpt><trkpt lat="43.441825" lon="11.795135"><ele>246.66666666666666</ele><time>2026-03-24T17:00:22.3Z</time></trkpt><trkpt lat="43.441805" lon="11.7950283"><ele>247.33333333333331</ele><time>2026-03-24T17:00:24.302Z</time></trkpt><trkpt lat="43.4417833" lon="11.7949267"><ele>248.0</ele><time>2026-03-24T17:00:26.3Z</time></trkpt><trkpt lat="43.4417717" lon="11.794825"><ele>248.66666666666666</ele><time>2026-03-24T17:00:28.299Z</time></trkpt><trkpt lat="43.4417617" lon="11.7947133"><ele>249.33333333333331</ele><time>2026-03-24T17:00:30.3Z</time></trkpt><trkpt lat="43.4417583" lon="11.7946067"><ele>250.0</ele><time>2026-03-24T17:00:32.299Z</time></trkpt><trkpt lat="43.4417417" lon="11.7945167"><ele>250.0</ele><time>2026-03-24T17:00:34.298Z</time></trkpt><trkpt lat="43.44171" lon="11.7943967"><ele>250.0</ele><time>2026-03-24T17:00:37.299Z</time></trkpt><trkpt lat="43.4416567" lon="11.794285"><ele>250.0</ele><time>2026-03-24T17:01:08.299Z</time></trkpt><trkpt lat="43.4415917" lon="11.7942683"><ele>250.0</ele><time>2026-03-24T17:01:10.304Z</time></trkpt><trkpt lat="43.441495" lon="11.7942633"><ele>250.0</ele><time>2026-03-24T17:01:12.298Z</time></trkpt><trkpt lat="43.4413583" lon="11.7942517"><ele>250.0</ele><time>2026-03-24T17:01:15.302Z</time></trkpt><trkpt lat="43.4412583" lon="11.7942367"><ele>250.0</ele><time>2026-03-24T17:01:17.301Z</time></trkpt><trkpt lat="43.441155" lon="11.7942317"><ele>250.0</ele><time>2026-03-24T17:01:19.301Z</time></trkpt><trkpt lat="43.4410433" lon="11.794215"><ele>250.0</ele><time>2026-03-24T17:01:21.302Z</time></trkpt><trkpt lat="43.44094" lon="11.7941967"><ele>250.0</ele><time>2026-03-24T17:01:23.302Z</time></trkpt><trkpt lat="43.440835" lon="11.794175"><ele>250.0</ele><time>2026-03-24T17:01:25.303Z</time></trkpt><trkpt lat="43.4407267" lon="11.7941567"><ele>250.0</ele><time>2026-03-24T17:01:27.299Z</time></trkpt><trkpt lat="43.4406233" lon="11.7941333"><ele>250.0</ele><time>2026-03-24T17:01:29.3Z</time></trkpt><trkpt lat="43.44052" lon="11.79411"><ele>250.0</ele><time>2026-03-24T17:01:31.302Z</time></trkpt><trkpt lat="43.440425" lon="11.7940883"><ele>250.0</ele><time>2026-03-24T17:01:33.3Z</time></trkpt><trkpt lat="43.4403367" lon="11.7940683"><ele>249.83333333333331</ele><time>2026-03-24T17:01:35.298Z</time></trkpt><trkpt lat="43.440245" lon="11.7940467"><ele>249.66666666666666</ele><time>2026-03-24T17:01:37.299Z</time></trkpt><trkpt lat="43.44015" lon="11.7940317"><ele>249.5</ele><time>2026-03-24T17:01:39.299Z</time></trkpt><trkpt lat="43.4400633" lon="11.7940183"><ele>249.33333333333331</ele><time>2026-03-24T17:01:41.304Z</time></trkpt><trkpt lat="43.44" lon="11.7939683"><ele>249.16666666666666</ele><time>2026-03-24T17:01:43.301Z</time></trkpt><trkpt lat="43.440055" lon="11.793885"><ele>249.0</ele><time>2026-03-24T17:01:45.301Z</time></trkpt><trkpt lat="43.4401533" lon="11.79383"><ele>249.0</ele><time>2026-03-24T17:01:47.298Z</time></trkpt><trkpt lat="43.4402433" lon="11.7937567"><ele>248.99999999999997</ele><time>2026-03-24T17:01:49.301Z</time></trkpt><trkpt lat="43.4403283" lon="11.7936633"><ele>248.99999999999997</ele><time>2026-03-24T17:01:51.299Z</time></trkpt><trkpt lat="43.4404033" lon="11.7935617"><ele>249.0</ele><time>2026-03-24T17:01:53.3Z</time></trkpt><trkpt lat="43.4404767" lon="11.7934533"><ele>249.0</ele><time>2026-03-24T17:01:55.299Z</time></trkpt><trkpt lat="43.4405433" lon="11.79333"><ele>249.75</ele><time>2026-03-24T17:01:57.297Z</time></trkpt><trkpt lat="43.4406" lon="11.79319"><ele>250.5</ele><time>2026-03-24T17:01:59.3Z</time></trkpt><trkpt lat="43.4406283" lon="11.7930183"><ele>251.25</ele><time>2026-03-24T17:02:01.301Z</time></trkpt><trkpt lat="43.4406167" lon="11.7928667"><ele>252.0</ele><time>2026-03-24T17:02:03.3Z</time></trkpt><trkpt lat="43.44057" lon="11.7927367"><ele>252.0</ele><time>2026-03-24T17:02:05.3Z</time></trkpt><trkpt lat="43.4405017" lon="11.7926433"><ele>252.0</ele><time>2026-03-24T17:02:07.3Z</time></trkpt><trkpt lat="43.440425" lon="11.7925633"><ele>252.0</ele><time>2026-03-24T17:02:09.297Z</time></trkpt><trkpt lat="43.440345" lon="11.79249"><ele>252.0</ele><time>2026-03-24T17:02:11.298Z</time></trkpt><trkpt lat="43.4402883" lon="11.79241"><ele>252.0</ele><time>2026-03-24T17:02:13.3Z</time></trkpt><trkpt lat="43.440255" lon="11.7923233"><ele>252.0</ele><time>2026-03-24T17:02:15.301Z</time></trkpt><trkpt lat="43.4402317" lon="11.7922283"><ele>252.28571428571428</ele><time>2026-03-24T17:02:17.302Z</time></trkpt><trkpt lat="43.4402367" lon="11.7921333"><ele>252.57142857142856</ele><time>2026-03-24T17:02:19.301Z</time></trkpt><trkpt lat="43.44025" lon="11.792035"><ele>252.85714285714286</ele><time>2026-03-24T17:02:21.298Z</time></trkpt><trkpt lat="43.4402683" lon="11.7919483"><ele>253.14285714285714</ele><time>2026-03-24T17:02:23.299Z</time></trkpt><trkpt lat="43.4402983" lon="11.79186"><ele>253.42857142857142</ele><time>2026-03-24T17:02:25.3Z</time></trkpt><trkpt lat="43.4403233" lon="11.791765"><ele>253.71428571428572</ele><time>2026-03-24T17:02:27.302Z</time></trkpt><trkpt lat="43.4403483" lon="11.791675"><ele>254.0</ele><time>2026-03-24T17:02:29.299Z</time></trkpt><trkpt lat="43.4403767" lon="11.79159"><ele>254.33333333333334</ele><time>2026-03-24T17:02:31.298Z</time></trkpt><trkpt lat="43.4403933" lon="11.79149"><ele>254.66666666666669</ele><time>2026-03-24T17:02:33.299Z</time></trkpt><trkpt lat="43.4404017" lon="11.7913933"><ele>255.0</ele><time>2026-03-24T17:02:35.299Z</time></trkpt><trkpt lat="43.4404" lon="11.79128"><ele>255.33333333333331</ele><time>2026-03-24T17:02:37.301Z</time></trkpt><trkpt lat="43.4403917" lon="11.79116"><ele>255.66666666666666</ele><time>2026-03-24T17:02:39.303Z</time></trkpt><trkpt lat="43.44037" lon="11.7910467"><ele>256.0</ele><time>2026-03-24T17:02:41.302Z</time></trkpt><trkpt lat="43.44034" lon="11.7909317"><ele>256.5</ele><time>2026-03-24T17:02:43.301Z</time></trkpt><trkpt lat="43.4403" lon="11.7908317"><ele>257.0</ele><time>2026-03-24T17:02:45.305Z</time></trkpt><trkpt lat="43.4402517" lon="11.7907433"><ele>257.5</ele><time>2026-03-24T17:02:47.3Z</time></trkpt><trkpt lat="43.4402017" lon="11.7906617"><ele>258.0</ele><time>2026-03-24T17:02:49.3Z</time></trkpt><trkpt lat="43.4401483" lon="11.7905867"><ele>258.5</ele><time>2026-03-24T17:02:51.302Z</time></trkpt><trkpt lat="43.4401033" lon="11.7905117"><ele>259.0</ele><time>2026-03-24T17:02:53.299Z</time></trkpt><trkpt lat="43.4400633" lon="11.790425"><ele>259.0</ele><time>2026-03-24T17:02:55.299Z</time></trkpt><trkpt lat="43.4400133" lon="11.790345"><ele>259.0</ele><time>2026-03-24T17:02:57.303Z</time></trkpt><trkpt lat="43.43995" lon="11.7902667"><ele>259.0</ele><time>2026-03-24T17:02:59.299Z</time></trkpt><trkpt lat="43.4398833" lon="11.7901983"><ele>259.0</ele><time>2026-03-24T17:03:01.301Z</time></trkpt><trkpt lat="43.4398283" lon="11.7901317"><ele>259.0</ele><time>2026-03-24T17:03:03.299Z</time></trkpt><trkpt lat="43.43978" lon="11.7900633"><ele>259.0</ele><time>2026-03-24T17:03:05.303Z</time></trkpt><trkpt lat="43.43973" lon="11.7899983"><ele>259.14285714285717</ele><time>2026-03-24T17:03:07.301Z</time></trkpt><trkpt lat="43.4396833" lon="11.7899383"><ele>259.2857142857143</ele><time>2026-03-24T17:03:09.301Z</time></trkpt><trkpt lat="43.4396233" lon="11.7898633"><ele>259.42857142857144</ele><time>2026-03-24T17:03:12.302Z</time></trkpt><trkpt lat="43.43958" lon="11.7897817"><ele>259.57142857142856</ele><time>2026-03-24T17:03:15.302Z</time></trkpt><trkpt lat="43.4395583" lon="11.7896983"><ele>259.7142857142857</ele><time>2026-03-24T17:03:18.297Z</time></trkpt><trkpt lat="43.4395717" lon="11.789605"><ele>259.8571428571429</ele><time>2026-03-24T17:03:22.297Z</time></trkpt><trkpt lat="43.4396333" lon="11.7895083"><ele>260.0</ele><time>2026-03-24T17:03:27.301Z</time></trkpt><trkpt lat="43.439665" lon="11.7894333"><ele>260.00000000000006</ele><time>2026-03-24T17:03:30.3Z</time></trkpt><trkpt lat="43.4396983" lon="11.7893533"><ele>260.0</ele><time>2026-03-24T17:03:33.299Z</time></trkpt><trkpt lat="43.43972" lon="11.78926"><ele>260.0</ele><time>2026-03-24T17:03:35.296Z</time></trkpt><trkpt lat="43.439755" lon="11.78917"><ele>260.0</ele><time>2026-03-24T17:03:38.301Z</time></trkpt><trkpt lat="43.4398017" lon="11.7890767"><ele>260.0</ele><time>2026-03-24T17:03:42.296Z</time></trkpt><trkpt lat="43.4398533" lon="11.7890017"><ele>260.00000000000006</ele><time>2026-03-24T17:03:46.298Z</time></trkpt><trkpt lat="43.4398933" lon="11.7889333"><ele>260.0</ele><time>2026-03-24T17:03:49.299Z</time></trkpt><trkpt lat="43.4399417" lon="11.788855"><ele>260.7142857142857</ele><time>2026-03-24T17:03:54.298Z</time></trkpt><trkpt lat="43.4399883" lon="11.788785"><ele>261.42857142857144</ele><time>2026-03-24T17:03:58.301Z</time></trkpt><trkpt lat="43.4400517" lon="11.7887317"><ele>262.1428571428571</ele><time>2026-03-24T17:04:04.301Z</time></trkpt><trkpt lat="43.4401117" lon="11.7886667"><ele>262.8571428571429</ele><time>2026-03-24T17:04:09.303Z</time></trkpt><trkpt lat="43.4401717" lon="11.788615"><ele>263.57142857142856</ele><time>2026-03-24T17:04:13.301Z</time></trkpt><trkpt lat="43.44023" lon="11.788545"><ele>264.2857142857143</ele><time>2026-03-24T17:04:16.302Z</time></trkpt><trkpt lat="43.440285" lon="11.788465"><ele>265.0</ele><time>2026-03-24T17:04:19.299Z</time></trkpt><trkpt lat="43.4403367" lon="11.7883817"><ele>265.8333333333333</ele><time>2026-03-24T17:04:22.3Z</time></trkpt><trkpt lat="43.4403933" lon="11.78829"><ele>266.66666666666663</ele><time>2026-03-24T17:04:25.301Z</time></trkpt><trkpt lat="43.4404483" lon="11.7882"><ele>267.5</ele><time>2026-03-24T17:04:28.305Z</time></trkpt><trkpt lat="43.440495" lon="11.788115"><ele>268.3333333333333</ele><time>2026-03-24T17:04:31.298Z</time></trkpt><trkpt lat="43.4405383" lon="11.7880483"><ele>269.1666666666667</ele><time>2026-03-24T17:04:34.299Z</time></trkpt><trkpt lat="43.4405733" lon="11.78797"><ele>270.0</ele><time>2026-03-24T17:04:37.304Z</time></trkpt><trkpt lat="43.44063" lon="11.7878817"><ele>270.0</ele><time>2026-03-24T17:04:40.299Z</time></trkpt><trkpt lat="43.440665" lon="11.7878083"><ele>270.0</ele><time>2026-03-24T17:04:42.3Z</time></trkpt><trkpt lat="43.4407067" lon="11.78773"><ele>270.0</ele><time>2026-03-24T17:04:45.3Z</time></trkpt><trkpt lat="43.440715" lon="11.7876283"><ele>270.0</ele><time>2026-03-24T17:04:47.298Z</time></trkpt><trkpt lat="43.4407133" lon="11.787535"><ele>270.0</ele><time>2026-03-24T17:04:49.301Z</time></trkpt><trkpt lat="43.4406983" lon="11.7874133"><ele>270.0</ele><time>2026-03-24T17:04:52.299Z</time></trkpt><trkpt lat="43.4406783" lon="11.787315"><ele>270.0</ele><time>2026-03-24T17:04:55.298Z</time></trkpt><trkpt lat="43.4406567" lon="11.7872333"><ele>270.8333333333333</ele><time>2026-03-24T17:05:00.299Z</time></trkpt><trkpt lat="43.44062" lon="11.7871267"><ele>271.6666666666667</ele><time>2026-03-24T17:05:12.297Z</time></trkpt><trkpt lat="43.440565" lon="11.78708"><ele>272.5</ele><time>2026-03-24T17:05:59.301Z</time></trkpt><trkpt lat="43.4406583" lon="11.787095"><ele>273.33333333333337</ele><time>2026-03-24T17:06:08.301Z</time></trkpt><trkpt lat="43.440745" lon="11.7870267"><ele>274.1666666666667</ele><time>2026-03-24T17:06:10.3Z</time></trkpt><trkpt lat="43.440825" lon="11.7869667"><ele>275.0</ele><time>2026-03-24T17:06:12.3Z</time></trkpt><trkpt lat="43.4408983" lon="11.7868883"><ele>275.0</ele><time>2026-03-24T17:06:14.298Z</time></trkpt><trkpt lat="43.440975" lon="11.7868217"><ele>275.0</ele><time>2026-03-24T17:06:16.301Z</time></trkpt><trkpt lat="43.44106" lon="11.786755"><ele>275.0</ele><time>2026-03-24T17:06:18.301Z</time></trkpt><trkpt lat="43.4411383" lon="11.78669"><ele>275.0</ele><time>2026-03-24T17:06:20.299Z</time></trkpt><trkpt lat="43.441215" lon="11.7866367"><ele>275.0</ele><time>2026-03-24T17:06:22.3Z</time></trkpt><trkpt lat="43.4412933" lon="11.7865767"><ele>275.0</ele><time>2026-03-24T17:06:24.302Z</time></trkpt><trkpt lat="43.441375" lon="11.786505"><ele>275.0</ele><time>2026-03-24T17:06:26.301Z</time></trkpt><trkpt lat="43.4414383" lon="11.786415"><ele>275.0</ele><time>2026-03-24T17:06:28.298Z</time></trkpt><trkpt lat="43.4414767" lon="11.7862817"><ele>275.0</ele><time>2026-03-24T17:06:30.3Z</time></trkpt><trkpt lat="43.44151" lon="11.7861233"><ele>275.0</ele><time>2026-03-24T17:06:32.298Z</time></trkpt><trkpt lat="43.4415233" lon="11.786035"><ele>274.5</ele><time>2026-03-24T17:06:33.3Z</time></trkpt><trkpt lat="43.44154" lon="11.7859483"><ele>274.0</ele><time>2026-03-24T17:06:34.302Z</time></trkpt><trkpt lat="43.4415583" lon="11.7858633"><ele>273.5</ele><time>2026-03-24T17:06:35.297Z</time></trkpt><trkpt lat="43.4415833" lon="11.7857817"><ele>273.0</ele><time>2026-03-24T17:06:36.299Z</time></trkpt><trkpt lat="43.44164" lon="11.7856367"><ele>272.5</ele><time>2026-03-24T17:06:38.3Z</time></trkpt><trkpt lat="43.4417033" lon="11.785505"><ele>272.0</ele><time>2026-03-24T17:06:40.3Z</time></trkpt><trkpt lat="43.4417783" lon="11.7853983"><ele>272.0</ele><time>2026-03-24T17:06:42.298Z</time></trkpt><trkpt lat="43.4418517" lon="11.78532"><ele>272.0</ele><time>2026-03-24T17:06:44.297Z</time></trkpt><trkpt lat="43.44191" lon="11.7852683"><ele>272.0</ele><time>2026-03-24T17:06:46.3Z</time></trkpt><trkpt lat="43.4419883" lon="11.7852217"><ele>272.0</ele><time>2026-03-24T17:06:50.3Z</time></trkpt><trkpt lat="43.44206" lon="11.7851783"><ele>272.0</ele><time>2026-03-24T17:06:54.3Z</time></trkpt><trkpt lat="43.44212" lon="11.7851333"><ele>272.0</ele><time>2026-03-24T17:06:57.302Z</time></trkpt><trkpt lat="43.442195" lon="11.7851033"><ele>273.1666666666667</ele><time>2026-03-24T17:07:00.297Z</time></trkpt><trkpt lat="43.442255" lon="11.78506"><ele>274.33333333333337</ele><time>2026-03-24T17:07:03.299Z</time></trkpt><trkpt lat="43.4423267" lon="11.7849983"><ele>275.5</ele><time>2026-03-24T17:07:07.297Z</time></trkpt><trkpt lat="43.4423817" lon="11.78494"><ele>276.6666666666667</ele><time>2026-03-24T17:07:10.3Z</time></trkpt><trkpt lat="43.4424117" lon="11.7848267"><ele>277.8333333333333</ele><time>2026-03-24T17:07:14.3Z</time></trkpt><trkpt lat="43.442445" lon="11.7847233"><ele>279.0</ele><time>2026-03-24T17:07:17.303Z</time></trkpt><trkpt lat="43.442475" lon="11.78464"><ele>278.99999999999994</ele><time>2026-03-24T17:07:20.303Z</time></trkpt><trkpt lat="43.4425133" lon="11.784565"><ele>279.0</ele><time>2026-03-24T17:07:25.302Z</time></trkpt><trkpt lat="43.4425467" lon="11.7844633"><ele>279.0</ele><time>2026-03-24T17:07:29.299Z</time></trkpt><trkpt lat="43.44259" lon="11.7843633"><ele>279.0</ele><time>2026-03-24T17:07:32.301Z</time></trkpt><trkpt lat="43.4426483" lon="11.7843233"><ele>279.0</ele><time>2026-03-24T17:07:34.301Z</time></trkpt><trkpt lat="43.4427233" lon="11.784295"><ele>278.99999999999994</ele><time>2026-03-24T17:07:36.3Z</time></trkpt><trkpt lat="43.4427917" lon="11.784305"><ele>279.0</ele><time>2026-03-24T17:07:39.299Z</time></trkpt><trkpt lat="43.442845" lon="11.7842433"><ele>279.5</ele><time>2026-03-24T17:07:46.297Z</time></trkpt><trkpt lat="43.442855" lon="11.784145"><ele>280.0</ele><time>2026-03-24T17:07:54.3Z</time></trkpt><trkpt lat="43.4428583" lon="11.784055"><ele>280.5</ele><time>2026-03-24T17:07:57.304Z</time></trkpt><trkpt lat="43.4428383" lon="11.7839567"><ele>281.0</ele><time>2026-03-24T17:08:01.3Z</time></trkpt><trkpt lat="43.4427967" lon="11.7838717"><ele>281.5</ele><time>2026-03-24T17:08:04.298Z</time></trkpt><trkpt lat="43.4427383" lon="11.7837633"><ele>282.0</ele><time>2026-03-24T17:08:07.3Z</time></trkpt><trkpt lat="43.44269" lon="11.7836767"><ele>282.0</ele><time>2026-03-24T17:08:09.3Z</time></trkpt><trkpt lat="43.4426267" lon="11.7835817"><ele>282.0</ele><time>2026-03-24T17:08:11.298Z</time></trkpt><trkpt lat="43.4425483" lon="11.783475"><ele>282.0</ele><time>2026-03-24T17:08:13.3Z</time></trkpt><trkpt lat="43.44244" lon="11.7833633"><ele>282.0</ele><time>2026-03-24T17:08:15.299Z</time></trkpt><trkpt lat="43.4423817" lon="11.7832933"><ele>282.0</ele><time>2026-03-24T17:08:16.298Z</time></trkpt><trkpt lat="43.4423283" lon="11.78322"><ele>281.6666666666667</ele><time>2026-03-24T17:08:17.298Z</time></trkpt><trkpt lat="43.4422733" lon="11.78313"><ele>281.3333333333333</ele><time>2026-03-24T17:08:18.298Z</time></trkpt><trkpt lat="43.4422167" lon="11.78303"><ele>281.0</ele><time>2026-03-24T17:08:19.298Z</time></trkpt><trkpt lat="43.4421767" lon="11.7829267"><ele>280.66666666666663</ele><time>2026-03-24T17:08:20.3Z</time></trkpt><trkpt lat="43.44214" lon="11.78281"><ele>280.3333333333333</ele><time>2026-03-24T17:08:21.297Z</time></trkpt><trkpt lat="43.44211" lon="11.78269"><ele>280.0</ele><time>2026-03-24T17:08:22.3Z</time></trkpt><trkpt lat="43.4420833" lon="11.78257"><ele>278.2</ele><time>2026-03-24T17:08:23.298Z</time></trkpt><trkpt lat="43.4420533" lon="11.78245"><ele>276.4</ele><time>2026-03-24T17:08:24.299Z</time></trkpt><trkpt lat="43.4420183" lon="11.7823317"><ele>274.6</ele><time>2026-03-24T17:08:25.298Z</time></trkpt><trkpt lat="43.4419833" lon="11.7822117"><ele>272.8</ele><time>2026-03-24T17:08:26.303Z</time></trkpt><trkpt lat="43.44193" lon="11.78209"><ele>271.0</ele><time>2026-03-24T17:08:27.299Z</time></trkpt><trkpt lat="43.4418767" lon="11.7819767"><ele>271.0</ele><time>2026-03-24T17:08:28.298Z</time></trkpt><trkpt lat="43.44182" lon="11.781865"><ele>271.0</ele><time>2026-03-24T17:08:29.3Z</time></trkpt><trkpt lat="43.441765" lon="11.78175"><ele>271.0</ele><time>2026-03-24T17:08:30.297Z</time></trkpt><trkpt lat="43.4417083" lon="11.781635"><ele>271.0</ele><time>2026-03-24T17:08:31.3Z</time></trkpt><trkpt lat="43.4416483" lon="11.78152"><ele>271.0</ele><time>2026-03-24T17:08:32.299Z</time></trkpt><trkpt lat="43.4415833" lon="11.7814117"><ele>270.8</ele><time>2026-03-24T17:08:33.299Z</time></trkpt><trkpt lat="43.4415083" lon="11.7813183"><ele>270.6</ele><time>2026-03-24T17:08:34.302Z</time></trkpt><trkpt lat="43.441425" lon="11.7812333"><ele>270.4</ele><time>2026-03-24T17:08:35.298Z</time></trkpt><trkpt lat="43.441335" lon="11.7811617"><ele>270.2</ele><time>2026-03-24T17:08:36.298Z</time></trkpt><trkpt lat="43.44124" lon="11.781105"><ele>270.0</ele><time>2026-03-24T17:08:37.299Z</time></trkpt><trkpt lat="43.44114" lon="11.7810583"><ele>269.2</ele><time>2026-03-24T17:08:38.301Z</time></trkpt><trkpt lat="43.4410433" lon="11.7810167"><ele>268.4</ele><time>2026-03-24T17:08:39.301Z</time></trkpt><trkpt lat="43.4409467" lon="11.7809733"><ele>267.6</ele><time>2026-03-24T17:08:40.3Z</time></trkpt><trkpt lat="43.4408517" lon="11.7809317"><ele>266.8</ele><time>2026-03-24T17:08:41.299Z</time></trkpt><trkpt lat="43.44076" lon="11.7808883"><ele>266.0</ele><time>2026-03-24T17:08:42.299Z</time></trkpt><trkpt lat="43.4406667" lon="11.7808483"><ele>266.0</ele><time>2026-03-24T17:08:43.3Z</time></trkpt><trkpt lat="43.440575" lon="11.7808083"><ele>266.0</ele><time>2026-03-24T17:08:44.299Z</time></trkpt><trkpt lat="43.4404817" lon="11.7807733"><ele>266.0</ele><time>2026-03-24T17:08:45.299Z</time></trkpt><trkpt lat="43.440395" lon="11.7807267"><ele>266.0</ele><time>2026-03-24T17:08:46.3Z</time></trkpt><trkpt lat="43.440315" lon="11.7806833"><ele>266.0</ele><time>2026-03-24T17:08:47.297Z</time></trkpt><trkpt lat="43.4402317" lon="11.7806417"><ele>265.6</ele><time>2026-03-24T17:08:48.299Z</time></trkpt><trkpt lat="43.44015" lon="11.7806033"><ele>265.20000000000005</ele><time>2026-03-24T17:08:49.298Z</time></trkpt><trkpt lat="43.4399917" lon="11.78052"><ele>264.79999999999995</ele><time>2026-03-24T17:08:51.3Z</time></trkpt><trkpt lat="43.439925" lon="11.7804767"><ele>264.4</ele><time>2026-03-24T17:08:52.3Z</time></trkpt><trkpt lat="43.43986" lon="11.7804317"><ele>264.0</ele><time>2026-03-24T17:08:53.301Z</time></trkpt><trkpt lat="43.4397933" lon="11.780385"><ele>264.0</ele><time>2026-03-24T17:08:54.298Z</time></trkpt><trkpt lat="43.4397267" lon="11.7803333"><ele>264.0</ele><time>2026-03-24T17:08:55.298Z</time></trkpt><trkpt lat="43.4396683" lon="11.7802817"><ele>264.0</ele><time>2026-03-24T17:08:56.298Z</time></trkpt><trkpt lat="43.4396133" lon="11.7802317"><ele>264.0</ele><time>2026-03-24T17:08:57.299Z</time></trkpt><trkpt lat="43.43956" lon="11.7801833"><ele>264.0</ele><time>2026-03-24T17:08:58.301Z</time></trkpt><trkpt lat="43.439485" lon="11.780125"><ele>264.0</ele><time>2026-03-24T17:09:00.298Z</time></trkpt><trkpt lat="43.439435" lon="11.780195"><ele>264.0</ele><time>2026-03-24T17:09:03.299Z</time></trkpt><trkpt lat="43.439505" lon="11.78025"><ele>264.0</ele><time>2026-03-24T17:09:06.297Z</time></trkpt><trkpt lat="43.4395767" lon="11.7802833"><ele>264.0</ele><time>2026-03-24T17:09:08.297Z</time></trkpt><trkpt lat="43.43965" lon="11.780335"><ele>264.0</ele><time>2026-03-24T17:09:10.299Z</time></trkpt><trkpt lat="43.4397367" lon="11.7803817"><ele>264.0</ele><time>2026-03-24T17:09:12.297Z</time></trkpt><trkpt lat="43.4398283" lon="11.7804167"><ele>264.0</ele><time>2026-03-24T17:09:14.3Z</time></trkpt><trkpt lat="43.4399183" lon="11.7804567"><ele>264.0</ele><time>2026-03-24T17:09:16.301Z</time></trkpt><trkpt lat="43.4400067" lon="11.7805067"><ele>264.0</ele><time>2026-03-24T17:09:18.304Z</time></trkpt><trkpt lat="43.4400967" lon="11.7805617"><ele>264.0</ele><time>2026-03-24T17:09:20.299Z</time></trkpt><trkpt lat="43.44018" lon="11.7806"><ele>264.0</ele><time>2026-03-24T17:09:22.299Z</time></trkpt><trkpt lat="43.44025" lon="11.7806017"><ele>264.0</ele><time>2026-03-24T17:09:24.299Z</time></trkpt><trkpt lat="43.440335" lon="11.78029"><ele>264.25</ele><time>2026-03-24T17:09:44.296Z</time></trkpt><trkpt lat="43.4402833" lon="11.7801583"><ele>264.5</ele><time>2026-03-24T17:09:47.301Z</time></trkpt><trkpt lat="43.440375" lon="11.7800933"><ele>264.75</ele><time>2026-03-24T17:09:53.297Z</time></trkpt><trkpt lat="43.4405583" lon="11.779995"><ele>265.0</ele><time>2026-03-24T17:09:55.3Z</time></trkpt><trkpt lat="43.4405367" lon="11.78015"><ele>264.8</ele><time>2026-03-24T17:10:02.295Z</time></trkpt><trkpt lat="43.440445" lon="11.7802933"><ele>264.6</ele><time>2026-03-24T17:10:12.298Z</time></trkpt><trkpt lat="43.44037" lon="11.7804383"><ele>264.4</ele><time>2026-03-24T17:10:24.296Z</time></trkpt><trkpt lat="43.440375" lon="11.7805833"><ele>264.2</ele><time>2026-03-24T17:12:28.302Z</time></trkpt><trkpt lat="43.4403317" lon="11.780655"><ele>264.0</ele><time>2026-03-24T17:12:32.299Z</time></trkpt><trkpt lat="43.44025" lon="11.7806333"><ele>264.0</ele><time>2026-03-24T17:12:35.298Z</time></trkpt><trkpt lat="43.44016" lon="11.780595"><ele>264.0</ele><time>2026-03-24T17:12:38.3Z</time></trkpt><trkpt lat="43.4400883" lon="11.7805483"><ele>264.0</ele><time>2026-03-24T17:12:40.297Z</time></trkpt><trkpt lat="43.440005" lon="11.7804967"><ele>264.0</ele><time>2026-03-24T17:12:42.297Z</time></trkpt><trkpt lat="43.4399183" lon="11.780445"><ele>264.0</ele><time>2026-03-24T17:12:44.297Z</time></trkpt><trkpt lat="43.4398333" lon="11.780385"><ele>264.0</ele><time>2026-03-24T17:12:46.301Z</time></trkpt><trkpt lat="43.439745" lon="11.7803233"><ele>264.0</ele><time>2026-03-24T17:12:48.299Z</time></trkpt><trkpt lat="43.4396583" lon="11.7802533"><ele>264.0</ele><time>2026-03-24T17:12:50.3Z</time></trkpt><trkpt lat="43.43957" lon="11.7801833"><ele>264.0</ele><time>2026-03-24T17:12:52.3Z</time></trkpt><trkpt lat="43.43949" lon="11.7801117"><ele>264.0</ele><time>2026-03-24T17:12:54.301Z</time></trkpt><trkpt lat="43.43941" lon="11.7800367"><ele>263.2</ele><time>2026-03-24T17:12:56.3Z</time></trkpt><trkpt lat="43.4393317" lon="11.7799617"><ele>262.4</ele><time>2026-03-24T17:12:58.299Z</time></trkpt><trkpt lat="43.4392467" lon="11.7798883"><ele>261.6</ele><time>2026-03-24T17:13:00.302Z</time></trkpt><trkpt lat="43.4391717" lon="11.7798083"><ele>260.8</ele><time>2026-03-24T17:13:02.298Z</time></trkpt><trkpt lat="43.4391033" lon="11.7797233"><ele>260.0</ele><time>2026-03-24T17:13:04.299Z</time></trkpt><trkpt lat="43.4390417" lon="11.7796267"><ele>260.0</ele><time>2026-03-24T17:13:06.298Z</time></trkpt><trkpt lat="43.438945" lon="11.7794667"><ele>260.0</ele><time>2026-03-24T17:13:09.3Z</time></trkpt><trkpt lat="43.4388733" lon="11.7793633"><ele>260.0</ele><time>2026-03-24T17:13:11.297Z</time></trkpt><trkpt lat="43.438795" lon="11.7792583"><ele>260.0</ele><time>2026-03-24T17:13:13.299Z</time></trkpt><trkpt lat="43.43873" lon="11.7791567"><ele>260.33333333333337</ele><time>2026-03-24T17:13:15.298Z</time></trkpt><trkpt lat="43.43866" lon="11.77906"><ele>260.6666666666667</ele><time>2026-03-24T17:13:17.299Z</time></trkpt><trkpt lat="43.4386" lon="11.77897"><ele>261.0</ele><time>2026-03-24T17:13:19.303Z</time></trkpt><trkpt lat="43.43855" lon="11.7788883"><ele>261.3333333333333</ele><time>2026-03-24T17:13:21.298Z</time></trkpt><trkpt lat="43.4385" lon="11.7788083"><ele>261.66666666666663</ele><time>2026-03-24T17:13:23.298Z</time></trkpt><trkpt lat="43.4384517" lon="11.7787433"><ele>262.0</ele><time>2026-03-24T17:13:25.3Z</time></trkpt><trkpt lat="43.438395" lon="11.77866"><ele>262.0</ele><time>2026-03-24T17:13:28.297Z</time></trkpt><trkpt lat="43.43835" lon="11.7785917"><ele>262.0</ele><time>2026-03-24T17:13:31.301Z</time></trkpt><trkpt lat="43.4383033" lon="11.7785333"><ele>262.0</ele><time>2026-03-24T17:13:34.299Z</time></trkpt><trkpt lat="43.4382633" lon="11.7784617"><ele>262.0</ele><time>2026-03-24T17:13:37.302Z</time></trkpt><trkpt lat="43.438225" lon="11.7783833"><ele>262.0</ele><time>2026-03-24T17:13:41.298Z</time></trkpt><trkpt lat="43.4382067" lon="11.778265"><ele>262.0</ele><time>2026-03-24T17:13:56.299Z</time></trkpt><trkpt lat="43.438165" lon="11.7781717"><ele>262.0</ele><time>2026-03-24T17:13:58.298Z</time></trkpt><trkpt lat="43.4381083" lon="11.7780867"><ele>262.16666666666663</ele><time>2026-03-24T17:14:00.302Z</time></trkpt><trkpt lat="43.438045" lon="11.7780417"><ele>262.3333333333333</ele><time>2026-03-24T17:14:02.297Z</time></trkpt><trkpt lat="43.4379767" lon="11.7779783"><ele>262.5</ele><time>2026-03-24T17:14:04.299Z</time></trkpt><trkpt lat="43.4379133" lon="11.7778917"><ele>262.6666666666667</ele><time>2026-03-24T17:14:06.298Z</time></trkpt><trkpt lat="43.437865" lon="11.7778033"><ele>262.83333333333337</ele><time>2026-03-24T17:14:08.298Z</time></trkpt><trkpt lat="43.43781" lon="11.7777183"><ele>263.0</ele><time>2026-03-24T17:14:10.302Z</time></trkpt><trkpt lat="43.4377633" lon="11.7776183"><ele>263.33333333333337</ele><time>2026-03-24T17:14:13.3Z</time></trkpt><trkpt lat="43.4377183" lon="11.7775417"><ele>263.6666666666667</ele><time>2026-03-24T17:14:19.298Z</time></trkpt><trkpt lat="43.4376333" lon="11.777545"><ele>264.0</ele><time>2026-03-24T17:14:22.299Z</time></trkpt><trkpt lat="43.4375667" lon="11.7775483"><ele>264.3333333333333</ele><time>2026-03-24T17:14:24.297Z</time></trkpt><trkpt lat="43.4374917" lon="11.777555"><ele>264.66666666666663</ele><time>2026-03-24T17:14:26.298Z</time></trkpt><trkpt lat="43.4374117" lon="11.7775733"><ele>265.0</ele><time>2026-03-24T17:14:28.3Z</time></trkpt><trkpt lat="43.4373133" lon="11.7775983"><ele>265.0</ele><time>2026-03-24T17:14:30.3Z</time></trkpt><trkpt lat="43.4372" lon="11.7776317"><ele>265.0</ele><time>2026-03-24T17:14:32.303Z</time></trkpt><trkpt lat="43.43714" lon="11.777665"><ele>265.0</ele><time>2026-03-24T17:14:33.301Z</time></trkpt><trkpt lat="43.43707" lon="11.7777133"><ele>265.0</ele><time>2026-03-24T17:14:34.301Z</time></trkpt><trkpt lat="43.4370083" lon="11.777765"><ele>265.0</ele><time>2026-03-24T17:14:35.298Z</time></trkpt><trkpt lat="43.43695" lon="11.7778233"><ele>265.0</ele><time>2026-03-24T17:14:36.297Z</time></trkpt><trkpt lat="43.43689" lon="11.777885"><ele>264.4285714285714</ele><time>2026-03-24T17:14:37.297Z</time></trkpt><trkpt lat="43.43683" lon="11.777945"><ele>263.85714285714283</ele><time>2026-03-24T17:14:38.3Z</time></trkpt><trkpt lat="43.4367767" lon="11.7780067"><ele>263.2857142857143</ele><time>2026-03-24T17:14:39.3Z</time></trkpt><trkpt lat="43.4367233" lon="11.77807"><ele>262.71428571428567</ele><time>2026-03-24T17:14:40.298Z</time></trkpt><trkpt lat="43.4366683" lon="11.778135"><ele>262.1428571428571</ele><time>2026-03-24T17:14:41.298Z</time></trkpt><trkpt lat="43.43662" lon="11.7782"><ele>261.57142857142856</ele><time>2026-03-24T17:14:42.298Z</time></trkpt><trkpt lat="43.43657" lon="11.7782633"><ele>261.0</ele><time>2026-03-24T17:14:43.296Z</time></trkpt><trkpt lat="43.4365167" lon="11.7783267"><ele>261.0</ele><time>2026-03-24T17:14:44.297Z</time></trkpt><trkpt lat="43.4364683" lon="11.7783933"><ele>261.0</ele><time>2026-03-24T17:14:45.299Z</time></trkpt><trkpt lat="43.4364217" lon="11.7784583"><ele>261.0</ele><time>2026-03-24T17:14:46.297Z</time></trkpt><trkpt lat="43.4363733" lon="11.7785283"><ele>261.0</ele><time>2026-03-24T17:14:47.298Z</time></trkpt><trkpt lat="43.4363267" lon="11.7786"><ele>261.0</ele><time>2026-03-24T17:14:48.296Z</time></trkpt><trkpt lat="43.4362817" lon="11.7786733"><ele>261.0</ele><time>2026-03-24T17:14:49.298Z</time></trkpt><trkpt lat="43.4362333" lon="11.7787433"><ele>261.0</ele><time>2026-03-24T17:14:50.299Z</time></trkpt><trkpt lat="43.4361867" lon="11.7788033"><ele>261.0</ele><time>2026-03-24T17:14:51.297Z</time></trkpt><trkpt lat="43.4361417" lon="11.7788667"><ele>261.0</ele><time>2026-03-24T17:14:52.299Z</time></trkpt><trkpt lat="43.4360983" lon="11.77894"><ele>261.0</ele><time>2026-03-24T17:14:53.298Z</time></trkpt><trkpt lat="43.4360533" lon="11.77901"><ele>261.0</ele><time>2026-03-24T17:14:54.298Z</time></trkpt><trkpt lat="43.4360067" lon="11.779075"><ele>261.0</ele><time>2026-03-24T17:14:55.298Z</time></trkpt><trkpt lat="43.4359617" lon="11.779145"><ele>261.0</ele><time>2026-03-24T17:14:56.299Z</time></trkpt><trkpt lat="43.4359167" lon="11.77922"><ele>261.0</ele><time>2026-03-24T17:14:57.299Z</time></trkpt><trkpt lat="43.4358717" lon="11.779295"><ele>261.0</ele><time>2026-03-24T17:14:58.295Z</time></trkpt><trkpt lat="43.4358283" lon="11.7793633"><ele>261.0</ele><time>2026-03-24T17:14:59.298Z</time></trkpt><trkpt lat="43.4357833" lon="11.7794517"><ele>261.0</ele><time>2026-03-24T17:15:00.295Z</time></trkpt><trkpt lat="43.43574" lon="11.7795433"><ele>261.0</ele><time>2026-03-24T17:15:01.299Z</time></trkpt><trkpt lat="43.4356917" lon="11.7796283"><ele>261.0</ele><time>2026-03-24T17:15:02.295Z</time></trkpt><trkpt lat="43.435645" lon="11.7797117"><ele>261.0</ele><time>2026-03-24T17:15:03.299Z</time></trkpt><trkpt lat="43.4355983" lon="11.7797783"><ele>261.0</ele><time>2026-03-24T17:15:04.295Z</time></trkpt><trkpt lat="43.43552" lon="11.7798883"><ele>261.0</ele><time>2026-03-24T17:15:06.298Z</time></trkpt><trkpt lat="43.4354733" lon="11.77996"><ele>261.0</ele><time>2026-03-24T17:15:07.297Z</time></trkpt><trkpt lat="43.435425" lon="11.78003"><ele>261.0</ele><time>2026-03-24T17:15:08.299Z</time></trkpt><trkpt lat="43.435375" lon="11.780095"><ele>261.0</ele><time>2026-03-24T17:15:09.298Z</time></trkpt><trkpt lat="43.4353267" lon="11.7801567"><ele>261.0</ele><time>2026-03-24T17:15:10.296Z</time></trkpt><trkpt lat="43.435275" lon="11.780215"><ele>261.0</ele><time>2026-03-24T17:15:11.299Z</time></trkpt><trkpt lat="43.4352233" lon="11.780275"><ele>261.0</ele><time>2026-03-24T17:15:12.297Z</time></trkpt><trkpt lat="43.4351683" lon="11.7803383"><ele>260.6666666666667</ele><time>2026-03-24T17:15:13.298Z</time></trkpt><trkpt lat="43.4351117" lon="11.7804"><ele>260.3333333333333</ele><time>2026-03-24T17:15:14.3Z</time></trkpt><trkpt lat="43.4350533" lon="11.7804683"><ele>260.0</ele><time>2026-03-24T17:15:15.297Z</time></trkpt><trkpt lat="43.434995" lon="11.780545"><ele>259.66666666666663</ele><time>2026-03-24T17:15:16.298Z</time></trkpt><trkpt lat="43.4349367" lon="11.78062"><ele>259.3333333333333</ele><time>2026-03-24T17:15:17.298Z</time></trkpt><trkpt lat="43.43488" lon="11.780695"><ele>259.0</ele><time>2026-03-24T17:15:18.296Z</time></trkpt><trkpt lat="43.4348267" lon="11.78077"><ele>259.0</ele><time>2026-03-24T17:15:19.297Z</time></trkpt><trkpt lat="43.4347733" lon="11.7808433"><ele>259.0</ele><time>2026-03-24T17:15:20.298Z</time></trkpt><trkpt lat="43.4347217" lon="11.780915"><ele>259.0</ele><time>2026-03-24T17:15:21.298Z</time></trkpt><trkpt lat="43.43467" lon="11.7809867"><ele>259.0</ele><time>2026-03-24T17:15:22.298Z</time></trkpt><trkpt lat="43.43462" lon="11.78106"><ele>259.0</ele><time>2026-03-24T17:15:23.298Z</time></trkpt><trkpt lat="43.434565" lon="11.7811333"><ele>259.0</ele><time>2026-03-24T17:15:24.3Z</time></trkpt><trkpt lat="43.4345117" lon="11.781205"><ele>259.0</ele><time>2026-03-24T17:15:25.299Z</time></trkpt><trkpt lat="43.43446" lon="11.7812767"><ele>259.0</ele><time>2026-03-24T17:15:26.301Z</time></trkpt><trkpt lat="43.4344083" lon="11.78135"><ele>259.0</ele><time>2026-03-24T17:15:27.299Z</time></trkpt><trkpt lat="43.4343567" lon="11.7814217"><ele>259.0</ele><time>2026-03-24T17:15:28.3Z</time></trkpt><trkpt lat="43.4343083" lon="11.7814967"><ele>259.0</ele><time>2026-03-24T17:15:29.3Z</time></trkpt><trkpt lat="43.43426" lon="11.7815783"><ele>259.0</ele><time>2026-03-24T17:15:30.299Z</time></trkpt><trkpt lat="43.43421" lon="11.7816533"><ele>259.0</ele><time>2026-03-24T17:15:31.3Z</time></trkpt><trkpt lat="43.4341583" lon="11.7817283"><ele>259.0</ele><time>2026-03-24T17:15:32.298Z</time></trkpt><trkpt lat="43.4341067" lon="11.7818017"><ele>259.14285714285717</ele><time>2026-03-24T17:15:33.299Z</time></trkpt><trkpt lat="43.4340533" lon="11.781875"><ele>259.2857142857143</ele><time>2026-03-24T17:15:34.3Z</time></trkpt><trkpt lat="43.4340017" lon="11.7819467"><ele>259.42857142857144</ele><time>2026-03-24T17:15:35.298Z</time></trkpt><trkpt lat="43.4339533" lon="11.7820183"><ele>259.57142857142856</ele><time>2026-03-24T17:15:36.298Z</time></trkpt><trkpt lat="43.4339033" lon="11.7820917"><ele>259.7142857142857</ele><time>2026-03-24T17:15:37.3Z</time></trkpt><trkpt lat="43.4338517" lon="11.7821583"><ele>259.8571428571429</ele><time>2026-03-24T17:15:38.297Z</time></trkpt><trkpt lat="43.4337983" lon="11.7822233"><ele>260.0</ele><time>2026-03-24T17:15:39.301Z</time></trkpt><trkpt lat="43.4337467" lon="11.7822933"><ele>260.14285714285717</ele><time>2026-03-24T17:15:40.299Z</time></trkpt><trkpt lat="43.4336917" lon="11.7823583"><ele>260.2857142857143</ele><time>2026-03-24T17:15:41.298Z</time></trkpt><trkpt lat="43.4336367" lon="11.7824217"><ele>260.42857142857144</ele><time>2026-03-24T17:15:42.299Z</time></trkpt><trkpt lat="43.4335833" lon="11.7824933"><ele>260.57142857142856</ele><time>2026-03-24T17:15:43.297Z</time></trkpt><trkpt lat="43.4335333" lon="11.7825633"><ele>260.7142857142857</ele><time>2026-03-24T17:15:44.297Z</time></trkpt><trkpt lat="43.4334833" lon="11.7826317"><ele>260.8571428571429</ele><time>2026-03-24T17:15:45.3Z</time></trkpt><trkpt lat="43.433435" lon="11.7826933"><ele>261.0</ele><time>2026-03-24T17:15:46.298Z</time></trkpt><trkpt lat="43.433385" lon="11.782765"><ele>261.0</ele><time>2026-03-24T17:15:47.299Z</time></trkpt><trkpt lat="43.4333333" lon="11.7828317"><ele>261.0</ele><time>2026-03-24T17:15:48.299Z</time></trkpt><trkpt lat="43.4332817" lon="11.782895"><ele>261.0</ele><time>2026-03-24T17:15:49.3Z</time></trkpt><trkpt lat="43.43323" lon="11.7829583"><ele>261.0</ele><time>2026-03-24T17:15:50.302Z</time></trkpt><trkpt lat="43.43318" lon="11.7830217"><ele>261.0</ele><time>2026-03-24T17:15:51.3Z</time></trkpt><trkpt lat="43.43313" lon="11.7830883"><ele>261.0</ele><time>2026-03-24T17:15:52.3Z</time></trkpt><trkpt lat="43.43308" lon="11.7831533"><ele>261.0</ele><time>2026-03-24T17:15:53.298Z</time></trkpt><trkpt lat="43.43303" lon="11.7832167"><ele>261.0</ele><time>2026-03-24T17:15:54.298Z</time></trkpt><trkpt lat="43.4329817" lon="11.783285"><ele>261.0</ele><time>2026-03-24T17:15:55.299Z</time></trkpt><trkpt lat="43.432935" lon="11.78335"><ele>261.0</ele><time>2026-03-24T17:15:56.301Z</time></trkpt><trkpt lat="43.4328867" lon="11.783415"><ele>261.0</ele><time>2026-03-24T17:15:57.299Z</time></trkpt><trkpt lat="43.43284" lon="11.78348"><ele>261.0</ele><time>2026-03-24T17:15:58.298Z</time></trkpt><trkpt lat="43.4327933" lon="11.7835417"><ele>261.0</ele><time>2026-03-24T17:15:59.297Z</time></trkpt><trkpt lat="43.4327467" lon="11.7836033"><ele>261.0</ele><time>2026-03-24T17:16:00.297Z</time></trkpt><trkpt lat="43.4327" lon="11.783665"><ele>260.57142857142856</ele><time>2026-03-24T17:16:01.297Z</time></trkpt><trkpt lat="43.4326517" lon="11.7837233"><ele>260.1428571428571</ele><time>2026-03-24T17:16:02.296Z</time></trkpt><trkpt lat="43.432605" lon="11.7837817"><ele>259.71428571428567</ele><time>2026-03-24T17:16:03.298Z</time></trkpt><trkpt lat="43.4325583" lon="11.7838417"><ele>259.2857142857143</ele><time>2026-03-24T17:16:04.297Z</time></trkpt><trkpt lat="43.43247" lon="11.7839633"><ele>258.85714285714283</ele><time>2026-03-24T17:16:06.3Z</time></trkpt><trkpt lat="43.4324283" lon="11.7840283"><ele>258.4285714285714</ele><time>2026-03-24T17:16:07.298Z</time></trkpt><trkpt lat="43.432385" lon="11.7840933"><ele>258.0</ele><time>2026-03-24T17:16:08.303Z</time></trkpt><trkpt lat="43.43234" lon="11.7841567"><ele>257.99999999999994</ele><time>2026-03-24T17:16:09.3Z</time></trkpt><trkpt lat="43.432295" lon="11.7842233"><ele>258.0</ele><time>2026-03-24T17:16:10.295Z</time></trkpt><trkpt lat="43.43225" lon="11.7842867"><ele>258.0</ele><time>2026-03-24T17:16:11.298Z</time></trkpt><trkpt lat="43.4321983" lon="11.784345"><ele>258.0</ele><time>2026-03-24T17:16:12.299Z</time></trkpt><trkpt lat="43.4321417" lon="11.7844067"><ele>258.0</ele><time>2026-03-24T17:16:13.298Z</time></trkpt><trkpt lat="43.43208" lon="11.7844717"><ele>257.99999999999994</ele><time>2026-03-24T17:16:14.298Z</time></trkpt><trkpt lat="43.43202" lon="11.784535"><ele>258.0</ele><time>2026-03-24T17:16:15.301Z</time></trkpt><trkpt lat="43.4319617" lon="11.7846017"><ele>257.71428571428567</ele><time>2026-03-24T17:16:16.3Z</time></trkpt><trkpt lat="43.431905" lon="11.7846683"><ele>257.42857142857144</ele><time>2026-03-24T17:16:17.297Z</time></trkpt><trkpt lat="43.43185" lon="11.7847317"><ele>257.1428571428571</ele><time>2026-03-24T17:16:18.298Z</time></trkpt><trkpt lat="43.431795" lon="11.7847933"><ele>256.85714285714283</ele><time>2026-03-24T17:16:19.299Z</time></trkpt><trkpt lat="43.43174" lon="11.7848567"><ele>256.57142857142856</ele><time>2026-03-24T17:16:20.301Z</time></trkpt><trkpt lat="43.4316867" lon="11.78492"><ele>256.2857142857143</ele><time>2026-03-24T17:16:21.301Z</time></trkpt><trkpt lat="43.431635" lon="11.7849817"><ele>256.0</ele><time>2026-03-24T17:16:22.297Z</time></trkpt><trkpt lat="43.4315833" lon="11.7850433"><ele>256.0</ele><time>2026-03-24T17:16:23.298Z</time></trkpt><trkpt lat="43.4315333" lon="11.7851033"><ele>255.99999999999997</ele><time>2026-03-24T17:16:24.299Z</time></trkpt><trkpt lat="43.4314833" lon="11.7851633"><ele>256.0</ele><time>2026-03-24T17:16:25.299Z</time></trkpt><trkpt lat="43.4314333" lon="11.7852217"><ele>256.0</ele><time>2026-03-24T17:16:26.3Z</time></trkpt><trkpt lat="43.4313817" lon="11.7852783"><ele>255.99999999999997</ele><time>2026-03-24T17:16:27.3Z</time></trkpt><trkpt lat="43.4313317" lon="11.7853333"><ele>256.0</ele><time>2026-03-24T17:16:28.3Z</time></trkpt><trkpt lat="43.4312833" lon="11.78539"><ele>256.0</ele><time>2026-03-24T17:16:29.3Z</time></trkpt><trkpt lat="43.4312383" lon="11.7854533"><ele>255.83333333333331</ele><time>2026-03-24T17:16:30.3Z</time></trkpt><trkpt lat="43.431195" lon="11.7855167"><ele>255.66666666666666</ele><time>2026-03-24T17:16:31.298Z</time></trkpt><trkpt lat="43.4311483" lon="11.7855767"><ele>255.5</ele><time>2026-03-24T17:16:32.301Z</time></trkpt><trkpt lat="43.4310567" lon="11.7856883"><ele>255.33333333333331</ele><time>2026-03-24T17:16:34.298Z</time></trkpt><trkpt lat="43.43101" lon="11.7857467"><ele>255.16666666666666</ele><time>2026-03-24T17:16:35.298Z</time></trkpt><trkpt lat="43.430915" lon="11.7858583"><ele>255.0</ele><time>2026-03-24T17:16:37.301Z</time></trkpt><trkpt lat="43.430865" lon="11.785915"><ele>255.0</ele><time>2026-03-24T17:16:38.299Z</time></trkpt><trkpt lat="43.4308117" lon="11.7859733"><ele>255.00000000000003</ele><time>2026-03-24T17:16:39.298Z</time></trkpt><trkpt lat="43.4307583" lon="11.7860317"><ele>255.0</ele><time>2026-03-24T17:16:40.297Z</time></trkpt><trkpt lat="43.430705" lon="11.7860883"><ele>255.0</ele><time>2026-03-24T17:16:41.299Z</time></trkpt><trkpt lat="43.43065" lon="11.7861467"><ele>255.00000000000003</ele><time>2026-03-24T17:16:42.297Z</time></trkpt><trkpt lat="43.430595" lon="11.786205"><ele>255.0</ele><time>2026-03-24T17:16:43.301Z</time></trkpt><trkpt lat="43.4305383" lon="11.7862633"><ele>255.0</ele><time>2026-03-24T17:16:44.299Z</time></trkpt><trkpt lat="43.4304833" lon="11.786325"><ele>254.85714285714286</ele><time>2026-03-24T17:16:45.298Z</time></trkpt><trkpt lat="43.43043" lon="11.7863817"><ele>254.71428571428572</ele><time>2026-03-24T17:16:46.299Z</time></trkpt><trkpt lat="43.430375" lon="11.7864367"><ele>254.57142857142858</ele><time>2026-03-24T17:16:47.298Z</time></trkpt><trkpt lat="43.43032" lon="11.7864933"><ele>254.42857142857144</ele><time>2026-03-24T17:16:48.299Z</time></trkpt><trkpt lat="43.430265" lon="11.78655"><ele>254.28571428571428</ele><time>2026-03-24T17:16:49.299Z</time></trkpt><trkpt lat="43.4302083" lon="11.786605"><ele>254.14285714285717</ele><time>2026-03-24T17:16:50.297Z</time></trkpt><trkpt lat="43.43015" lon="11.7866567"><ele>254.0</ele><time>2026-03-24T17:16:51.301Z</time></trkpt><trkpt lat="43.43009" lon="11.7867133"><ele>254.0</ele><time>2026-03-24T17:16:52.302Z</time></trkpt><trkpt lat="43.4300317" lon="11.7867617"><ele>254.0</ele><time>2026-03-24T17:16:53.299Z</time></trkpt><trkpt lat="43.4299733" lon="11.786805"><ele>254.0</ele><time>2026-03-24T17:16:54.303Z</time></trkpt><trkpt lat="43.4299117" lon="11.78684"><ele>254.0</ele><time>2026-03-24T17:16:55.301Z</time></trkpt><trkpt lat="43.42985" lon="11.7868617"><ele>254.0</ele><time>2026-03-24T17:16:56.299Z</time></trkpt><trkpt lat="43.429785" lon="11.7868733"><ele>254.0</ele><time>2026-03-24T17:16:57.301Z</time></trkpt><trkpt lat="43.42972" lon="11.7868833"><ele>254.0</ele><time>2026-03-24T17:16:58.302Z</time></trkpt><trkpt lat="43.429655" lon="11.7868967"><ele>254.0</ele><time>2026-03-24T17:16:59.3Z</time></trkpt><trkpt lat="43.4295883" lon="11.786915"><ele>254.0</ele><time>2026-03-24T17:17:00.3Z</time></trkpt><trkpt lat="43.4295233" lon="11.7869333"><ele>254.0</ele><time>2026-03-24T17:17:01.301Z</time></trkpt><trkpt lat="43.429455" lon="11.786955"><ele>254.0</ele><time>2026-03-24T17:17:02.298Z</time></trkpt><trkpt lat="43.4293867" lon="11.7869783"><ele>254.0</ele><time>2026-03-24T17:17:03.3Z</time></trkpt><trkpt lat="43.4293183" lon="11.7870033"><ele>254.0</ele><time>2026-03-24T17:17:04.3Z</time></trkpt><trkpt lat="43.4292517" lon="11.787025"><ele>254.0</ele><time>2026-03-24T17:17:05.3Z</time></trkpt><trkpt lat="43.4291883" lon="11.7870483"><ele>254.0</ele><time>2026-03-24T17:17:06.303Z</time></trkpt><trkpt lat="43.4291267" lon="11.787075"><ele>254.0</ele><time>2026-03-24T17:17:07.299Z</time></trkpt><trkpt lat="43.429065" lon="11.7871017"><ele>254.0</ele><time>2026-03-24T17:17:08.301Z</time></trkpt><trkpt lat="43.4290017" lon="11.7871267"><ele>254.0</ele><time>2026-03-24T17:17:09.299Z</time></trkpt><trkpt lat="43.4289383" lon="11.7871533"><ele>254.0</ele><time>2026-03-24T17:17:10.302Z</time></trkpt><trkpt lat="43.4288767" lon="11.78718"><ele>254.0</ele><time>2026-03-24T17:17:11.301Z</time></trkpt><trkpt lat="43.428815" lon="11.7872067"><ele>254.0</ele><time>2026-03-24T17:17:12.301Z</time></trkpt><trkpt lat="43.428755" lon="11.7872333"><ele>254.0</ele><time>2026-03-24T17:17:13.299Z</time></trkpt><trkpt lat="43.4286917" lon="11.7872567"><ele>253.99999999999997</ele><time>2026-03-24T17:17:14.302Z</time></trkpt><trkpt lat="43.4285733" lon="11.7872967"><ele>253.99999999999997</ele><time>2026-03-24T17:17:16.3Z</time></trkpt><trkpt lat="43.428455" lon="11.787335"><ele>254.0</ele><time>2026-03-24T17:17:18.299Z</time></trkpt><trkpt lat="43.4283367" lon="11.7873733"><ele>254.0</ele><time>2026-03-24T17:17:20.299Z</time></trkpt><trkpt lat="43.428275" lon="11.7874"><ele>254.0</ele><time>2026-03-24T17:17:21.302Z</time></trkpt><trkpt lat="43.4282133" lon="11.7874267"><ele>253.99999999999997</ele><time>2026-03-24T17:17:22.3Z</time></trkpt><trkpt lat="43.4280983" lon="11.787475"><ele>253.99999999999997</ele><time>2026-03-24T17:17:24.299Z</time></trkpt><trkpt lat="43.427985" lon="11.787515"><ele>254.0</ele><time>2026-03-24T17:17:26.297Z</time></trkpt><trkpt lat="43.4278717" lon="11.7875517"><ele>254.0</ele><time>2026-03-24T17:17:28.297Z</time></trkpt><trkpt lat="43.4277617" lon="11.7875917"><ele>253.6</ele><time>2026-03-24T17:17:30.297Z</time></trkpt><trkpt lat="43.4276533" lon="11.7876217"><ele>253.2</ele><time>2026-03-24T17:17:32.301Z</time></trkpt><trkpt lat="43.42755" lon="11.7876533"><ele>252.79999999999998</ele><time>2026-03-24T17:17:34.299Z</time></trkpt><trkpt lat="43.4274533" lon="11.787685"><ele>252.39999999999998</ele><time>2026-03-24T17:17:36.297Z</time></trkpt><trkpt lat="43.42735" lon="11.7877217"><ele>252.0</ele><time>2026-03-24T17:17:38.297Z</time></trkpt><trkpt lat="43.4272367" lon="11.7877483"><ele>251.75</ele><time>2026-03-24T17:17:40.298Z</time></trkpt><trkpt lat="43.42712" lon="11.78779"><ele>251.5</ele><time>2026-03-24T17:17:42.295Z</time></trkpt><trkpt lat="43.4270017" lon="11.7878333"><ele>251.25</ele><time>2026-03-24T17:17:44.3Z</time></trkpt><trkpt lat="43.4268833" lon="11.7878717"><ele>251.0</ele><time>2026-03-24T17:17:46.296Z</time></trkpt><trkpt lat="43.42676" lon="11.7878817"><ele>251.00000000000003</ele><time>2026-03-24T17:17:48.299Z</time></trkpt><trkpt lat="43.4266383" lon="11.7878317"><ele>251.0</ele><time>2026-03-24T17:17:50.299Z</time></trkpt><trkpt lat="43.42658" lon="11.787795"><ele>251.0</ele><time>2026-03-24T17:17:51.299Z</time></trkpt><trkpt lat="43.4264717" lon="11.7877083"><ele>251.0</ele><time>2026-03-24T17:17:53.299Z</time></trkpt><trkpt lat="43.4264167" lon="11.7876633"><ele>251.00000000000003</ele><time>2026-03-24T17:17:54.299Z</time></trkpt><trkpt lat="43.4263617" lon="11.7876183"><ele>251.0</ele><time>2026-03-24T17:17:55.298Z</time></trkpt><trkpt lat="43.4262533" lon="11.7875283"><ele>251.1428571428571</ele><time>2026-03-24T17:17:57.299Z</time></trkpt><trkpt lat="43.426195" lon="11.7874833"><ele>251.28571428571428</ele><time>2026-03-24T17:17:58.3Z</time></trkpt><trkpt lat="43.4261383" lon="11.7874417"><ele>251.42857142857142</ele><time>2026-03-24T17:17:59.298Z</time></trkpt><trkpt lat="43.42608" lon="11.7873983"><ele>251.57142857142856</ele><time>2026-03-24T17:18:00.3Z</time></trkpt><trkpt lat="43.426025" lon="11.787355"><ele>251.71428571428572</ele><time>2026-03-24T17:18:01.301Z</time></trkpt><trkpt lat="43.4259667" lon="11.7873083"><ele>251.85714285714286</ele><time>2026-03-24T17:18:02.299Z</time></trkpt><trkpt lat="43.42591" lon="11.7872633"><ele>252.0</ele><time>2026-03-24T17:18:03.3Z</time></trkpt><trkpt lat="43.425855" lon="11.7872167"><ele>252.0</ele><time>2026-03-24T17:18:04.301Z</time></trkpt><trkpt lat="43.4257983" lon="11.7871733"><ele>252.0</ele><time>2026-03-24T17:18:05.298Z</time></trkpt><trkpt lat="43.4257417" lon="11.7871267"><ele>252.0</ele><time>2026-03-24T17:18:06.299Z</time></trkpt><trkpt lat="43.425685" lon="11.78708"><ele>252.0</ele><time>2026-03-24T17:18:07.299Z</time></trkpt><trkpt lat="43.42563" lon="11.7870333"><ele>252.0</ele><time>2026-03-24T17:18:08.299Z</time></trkpt><trkpt lat="43.42557" lon="11.7869883"><ele>252.0</ele><time>2026-03-24T17:18:09.304Z</time></trkpt><trkpt lat="43.4255083" lon="11.786945"><ele>252.0</ele><time>2026-03-24T17:18:10.299Z</time></trkpt><trkpt lat="43.4254483" lon="11.7869017"><ele>252.0</ele><time>2026-03-24T17:18:11.298Z</time></trkpt><trkpt lat="43.42539" lon="11.7868583"><ele>252.0</ele><time>2026-03-24T17:18:12.298Z</time></trkpt><trkpt lat="43.4253317" lon="11.7868133"><ele>252.0</ele><time>2026-03-24T17:18:13.298Z</time></trkpt><trkpt lat="43.4252717" lon="11.78677"><ele>252.0</ele><time>2026-03-24T17:18:14.298Z</time></trkpt><trkpt lat="43.4252133" lon="11.7867233"><ele>252.0</ele><time>2026-03-24T17:18:15.299Z</time></trkpt><trkpt lat="43.4251533" lon="11.7866783"><ele>252.0</ele><time>2026-03-24T17:18:16.302Z</time></trkpt><trkpt lat="43.4250967" lon="11.786635"><ele>252.0</ele><time>2026-03-24T17:18:17.297Z</time></trkpt><trkpt lat="43.425035" lon="11.78659"><ele>252.0</ele><time>2026-03-24T17:18:18.297Z</time></trkpt><trkpt lat="43.424975" lon="11.7865467"><ele>252.0</ele><time>2026-03-24T17:18:19.298Z</time></trkpt><trkpt lat="43.4249133" lon="11.7865017"><ele>252.0</ele><time>2026-03-24T17:18:20.299Z</time></trkpt><trkpt lat="43.42485" lon="11.7864583"><ele>252.0</ele><time>2026-03-24T17:18:21.3Z</time></trkpt><trkpt lat="43.4247883" lon="11.786415"><ele>252.0</ele><time>2026-03-24T17:18:22.3Z</time></trkpt><trkpt lat="43.4247267" lon="11.7863717"><ele>252.0</ele><time>2026-03-24T17:18:23.298Z</time></trkpt><trkpt lat="43.4246167" lon="11.786285"><ele>252.0</ele><time>2026-03-24T17:18:25.298Z</time></trkpt><trkpt lat="43.4245583" lon="11.7862417"><ele>252.0</ele><time>2026-03-24T17:18:26.298Z</time></trkpt><trkpt lat="43.4245017" lon="11.7861983"><ele>252.0</ele><time>2026-03-24T17:18:27.3Z</time></trkpt><trkpt lat="43.4244467" lon="11.786155"><ele>252.0</ele><time>2026-03-24T17:18:28.299Z</time></trkpt><trkpt lat="43.4243883" lon="11.78611"><ele>252.0</ele><time>2026-03-24T17:18:29.297Z</time></trkpt><trkpt lat="43.4243317" lon="11.7860683"><ele>252.0</ele><time>2026-03-24T17:18:30.299Z</time></trkpt><trkpt lat="43.424225" lon="11.7859917"><ele>252.0</ele><time>2026-03-24T17:18:32.302Z</time></trkpt><trkpt lat="43.4241383" lon="11.7859217"><ele>252.0</ele><time>2026-03-24T17:18:34.3Z</time></trkpt><trkpt lat="43.4240517" lon="11.7858567"><ele>252.0</ele><time>2026-03-24T17:18:36.301Z</time></trkpt><trkpt lat="43.4239633" lon="11.7857833"><ele>252.0</ele><time>2026-03-24T17:18:38.299Z</time></trkpt><trkpt lat="43.423865" lon="11.7856983"><ele>252.0</ele><time>2026-03-24T17:18:40.298Z</time></trkpt><trkpt lat="43.4237617" lon="11.7856183"><ele>252.0</ele><time>2026-03-24T17:18:42.297Z</time></trkpt><trkpt lat="43.42366" lon="11.7855433"><ele>252.0</ele><time>2026-03-24T17:18:44.298Z</time></trkpt><trkpt lat="43.4235617" lon="11.7854667"><ele>252.0</ele><time>2026-03-24T17:18:46.301Z</time></trkpt><trkpt lat="43.42347" lon="11.785395"><ele>252.0</ele><time>2026-03-24T17:18:48.298Z</time></trkpt><trkpt lat="43.4233717" lon="11.78533"><ele>252.0</ele><time>2026-03-24T17:18:50.3Z</time></trkpt><trkpt lat="43.42329" lon="11.7852667"><ele>252.0</ele><time>2026-03-24T17:18:52.3Z</time></trkpt><trkpt lat="43.4232067" lon="11.7852"><ele>252.0</ele><time>2026-03-24T17:18:54.297Z</time></trkpt><trkpt lat="43.423115" lon="11.78513"><ele>252.0</ele><time>2026-03-24T17:18:56.298Z</time></trkpt><trkpt lat="43.4230133" lon="11.7850583"><ele>252.0</ele><time>2026-03-24T17:18:58.298Z</time></trkpt><trkpt lat="43.4229117" lon="11.7849833"><ele>252.0</ele><time>2026-03-24T17:19:00.298Z</time></trkpt><trkpt lat="43.4228083" lon="11.7849083"><ele>252.0</ele><time>2026-03-24T17:19:02.302Z</time></trkpt><trkpt lat="43.4227117" lon="11.7848233"><ele>252.0</ele><time>2026-03-24T17:19:04.301Z</time></trkpt><trkpt lat="43.4226467" lon="11.7847067"><ele>252.0</ele><time>2026-03-24T17:19:06.298Z</time></trkpt><trkpt lat="43.422615" lon="11.7845667"><ele>252.0</ele><time>2026-03-24T17:19:08.299Z</time></trkpt><trkpt lat="43.422595" lon="11.7844283"><ele>252.0</ele><time>2026-03-24T17:19:10.297Z</time></trkpt><trkpt lat="43.4225783" lon="11.7842867"><ele>252.0</ele><time>2026-03-24T17:19:12.298Z</time></trkpt><trkpt lat="43.4225717" lon="11.7841433"><ele>252.0</ele><time>2026-03-24T17:19:14.301Z</time></trkpt><trkpt lat="43.42256" lon="11.784005"><ele>252.0</ele><time>2026-03-24T17:19:16.299Z</time></trkpt><trkpt lat="43.4225417" lon="11.7838667"><ele>252.0</ele><time>2026-03-24T17:19:18.3Z</time></trkpt><trkpt lat="43.42252" lon="11.7837267"><ele>252.0</ele><time>2026-03-24T17:19:20.298Z</time></trkpt><trkpt lat="43.4224917" lon="11.78359"><ele>252.25</ele><time>2026-03-24T17:19:22.298Z</time></trkpt><trkpt lat="43.4224617" lon="11.7834533"><ele>252.5</ele><time>2026-03-24T17:19:24.299Z</time></trkpt><trkpt lat="43.422435" lon="11.7832967"><ele>252.75</ele><time>2026-03-24T17:19:26.301Z</time></trkpt><trkpt lat="43.422415" lon="11.78314"><ele>253.0</ele><time>2026-03-24T17:19:28.3Z</time></trkpt><trkpt lat="43.4223967" lon="11.7829817"><ele>253.0</ele><time>2026-03-24T17:19:30.299Z</time></trkpt><trkpt lat="43.4223917" lon="11.7828217"><ele>253.0</ele><time>2026-03-24T17:19:32.302Z</time></trkpt><trkpt lat="43.4223917" lon="11.7826667"><ele>253.0</ele><time>2026-03-24T17:19:34.3Z</time></trkpt><trkpt lat="43.4223767" lon="11.7825067"><ele>253.0</ele><time>2026-03-24T17:19:36.3Z</time></trkpt><trkpt lat="43.4223583" lon="11.7823383"><ele>253.25</ele><time>2026-03-24T17:19:38.297Z</time></trkpt><trkpt lat="43.422345" lon="11.7821833"><ele>253.5</ele><time>2026-03-24T17:19:40.297Z</time></trkpt><trkpt lat="43.4223417" lon="11.7820283"><ele>253.75</ele><time>2026-03-24T17:19:42.299Z</time></trkpt><trkpt lat="43.4223333" lon="11.7818667"><ele>254.0</ele><time>2026-03-24T17:19:44.3Z</time></trkpt><trkpt lat="43.4223283" lon="11.781705"><ele>254.0</ele><time>2026-03-24T17:19:46.298Z</time></trkpt><trkpt lat="43.4223233" lon="11.781545"><ele>254.0</ele><time>2026-03-24T17:19:48.298Z</time></trkpt><trkpt lat="43.4223133" lon="11.7813867"><ele>254.0</ele><time>2026-03-24T17:19:50.3Z</time></trkpt><trkpt lat="43.4223133" lon="11.7812367"><ele>254.0</ele><time>2026-03-24T17:19:52.299Z</time></trkpt><trkpt lat="43.422305" lon="11.7810817"><ele>254.39999999999998</ele><time>2026-03-24T17:19:54.297Z</time></trkpt><trkpt lat="43.4223" lon="11.7809317"><ele>254.79999999999998</ele><time>2026-03-24T17:19:56.3Z</time></trkpt><trkpt lat="43.4222983" lon="11.7807783"><ele>255.20000000000002</ele><time>2026-03-24T17:19:58.298Z</time></trkpt><trkpt lat="43.4223" lon="11.7806317"><ele>255.60000000000002</ele><time>2026-03-24T17:20:00.298Z</time></trkpt><trkpt lat="43.4223033" lon="11.780485"><ele>256.0</ele><time>2026-03-24T17:20:02.301Z</time></trkpt><trkpt lat="43.42231" lon="11.780345"><ele>256.0</ele><time>2026-03-24T17:20:04.299Z</time></trkpt><trkpt lat="43.4223233" lon="11.780205"><ele>256.0</ele><time>2026-03-24T17:20:06.301Z</time></trkpt><trkpt lat="43.4223383" lon="11.7800633"><ele>256.0</ele><time>2026-03-24T17:20:08.3Z</time></trkpt><trkpt lat="43.4223583" lon="11.7799217"><ele>256.0</ele><time>2026-03-24T17:20:10.3Z</time></trkpt><trkpt lat="43.4223767" lon="11.7797833"><ele>256.0</ele><time>2026-03-24T17:20:12.298Z</time></trkpt><trkpt lat="43.4223933" lon="11.7796467"><ele>256.0</ele><time>2026-03-24T17:20:14.3Z</time></trkpt><trkpt lat="43.4224117" lon="11.7795117"><ele>256.0</ele><time>2026-03-24T17:20:16.298Z</time></trkpt><trkpt lat="43.4224233" lon="11.779375"><ele>256.0</ele><time>2026-03-24T17:20:18.302Z</time></trkpt><trkpt lat="43.422435" lon="11.7792383"><ele>256.0</ele><time>2026-03-24T17:20:20.3Z</time></trkpt><trkpt lat="43.422445" lon="11.77911"><ele>256.0</ele><time>2026-03-24T17:20:22.298Z</time></trkpt><trkpt lat="43.422455" lon="11.7789833"><ele>255.99999999999997</ele><time>2026-03-24T17:20:24.298Z</time></trkpt><trkpt lat="43.4224667" lon="11.7788567"><ele>256.0</ele><time>2026-03-24T17:20:26.3Z</time></trkpt><trkpt lat="43.4224767" lon="11.778735"><ele>256.0</ele><time>2026-03-24T17:20:28.299Z</time></trkpt><trkpt lat="43.4224817" lon="11.778605"><ele>256.0</ele><time>2026-03-24T17:20:30.3Z</time></trkpt><trkpt lat="43.4224917" lon="11.7784867"><ele>255.99999999999997</ele><time>2026-03-24T17:20:32.299Z</time></trkpt><trkpt lat="43.4224933" lon="11.7783683"><ele>256.0</ele><time>2026-03-24T17:20:34.302Z</time></trkpt><trkpt lat="43.4224867" lon="11.77826"><ele>256.1428571428571</ele><time>2026-03-24T17:20:36.3Z</time></trkpt><trkpt lat="43.42248" lon="11.7781633"><ele>256.2857142857143</ele><time>2026-03-24T17:20:38.298Z</time></trkpt><trkpt lat="43.4224767" lon="11.7780733"><ele>256.42857142857144</ele><time>2026-03-24T17:20:40.299Z</time></trkpt><trkpt lat="43.42248" lon="11.777985"><ele>256.57142857142856</ele><time>2026-03-24T17:20:42.3Z</time></trkpt><trkpt lat="43.42248" lon="11.7778983"><ele>256.7142857142857</ele><time>2026-03-24T17:20:44.301Z</time></trkpt><trkpt lat="43.4224783" lon="11.777775"><ele>256.85714285714283</ele><time>2026-03-24T17:20:47.303Z</time></trkpt><trkpt lat="43.4224817" lon="11.777675"><ele>257.0</ele><time>2026-03-24T17:20:49.3Z</time></trkpt><trkpt lat="43.4224883" lon="11.7775717"><ele>257.42857142857144</ele><time>2026-03-24T17:20:51.301Z</time></trkpt><trkpt lat="43.4224867" lon="11.77748"><ele>257.8571428571429</ele><time>2026-03-24T17:20:53.3Z</time></trkpt><trkpt lat="43.42248" lon="11.777385"><ele>258.28571428571433</ele><time>2026-03-24T17:20:55.304Z</time></trkpt><trkpt lat="43.4224633" lon="11.7772983"><ele>258.7142857142857</ele><time>2026-03-24T17:20:57.299Z</time></trkpt><trkpt lat="43.4224417" lon="11.7772133"><ele>259.14285714285717</ele><time>2026-03-24T17:20:59.299Z</time></trkpt><trkpt lat="43.4224117" lon="11.777135"><ele>259.5714285714286</ele><time>2026-03-24T17:21:01.302Z</time></trkpt><trkpt lat="43.4223833" lon="11.7770567"><ele>260.0</ele><time>2026-03-24T17:21:03.3Z</time></trkpt><trkpt lat="43.4223467" lon="11.77697"><ele>260.0</ele><time>2026-03-24T17:21:05.298Z</time></trkpt><trkpt lat="43.4222983" lon="11.776875"><ele>260.0</ele><time>2026-03-24T17:21:07.299Z</time></trkpt><trkpt lat="43.42224" lon="11.77679"><ele>260.0</ele><time>2026-03-24T17:21:09.3Z</time></trkpt><trkpt lat="43.422175" lon="11.7767033"><ele>260.0</ele><time>2026-03-24T17:21:11.299Z</time></trkpt><trkpt lat="43.4220933" lon="11.7766167"><ele>260.0</ele><time>2026-03-24T17:21:13.3Z</time></trkpt><trkpt lat="43.422005" lon="11.7765167"><ele>259.6</ele><time>2026-03-24T17:21:15.299Z</time></trkpt><trkpt lat="43.4219117" lon="11.7764033"><ele>259.2</ele><time>2026-03-24T17:21:17.299Z</time></trkpt><trkpt lat="43.4218683" lon="11.776335"><ele>258.8</ele><time>2026-03-24T17:21:18.302Z</time></trkpt><trkpt lat="43.4218217" lon="11.7762583"><ele>258.4</ele><time>2026-03-24T17:21:19.298Z</time></trkpt><trkpt lat="43.4217817" lon="11.7761833"><ele>258.0</ele><time>2026-03-24T17:21:20.299Z</time></trkpt><trkpt lat="43.42171" lon="11.7760433"><ele>258.25</ele><time>2026-03-24T17:21:22.298Z</time></trkpt><trkpt lat="43.4216433" lon="11.7759033"><ele>258.5</ele><time>2026-03-24T17:21:24.3Z</time></trkpt><trkpt lat="43.42158" lon="11.7757633"><ele>258.75</ele><time>2026-03-24T17:21:26.298Z</time></trkpt><trkpt lat="43.421515" lon="11.7756267"><ele>259.0</ele><time>2026-03-24T17:21:28.3Z</time></trkpt><trkpt lat="43.4214467" lon="11.7755"><ele>259.0</ele><time>2026-03-24T17:21:30.298Z</time></trkpt><trkpt lat="43.4213817" lon="11.7753667"><ele>259.0</ele><time>2026-03-24T17:21:32.298Z</time></trkpt><trkpt lat="43.4213217" lon="11.7752383"><ele>259.0</ele><time>2026-03-24T17:21:34.299Z</time></trkpt><trkpt lat="43.42126" lon="11.7751117"><ele>259.0</ele><time>2026-03-24T17:21:36.3Z</time></trkpt><trkpt lat="43.4212" lon="11.7749867"><ele>259.0</ele><time>2026-03-24T17:21:38.297Z</time></trkpt><trkpt lat="43.42114" lon="11.7748633"><ele>259.0</ele><time>2026-03-24T17:21:40.298Z</time></trkpt><trkpt lat="43.4210833" lon="11.7747433"><ele>259.0</ele><time>2026-03-24T17:21:42.297Z</time></trkpt><trkpt lat="43.4210233" lon="11.774635"><ele>259.0</ele><time>2026-03-24T17:21:44.297Z</time></trkpt><trkpt lat="43.4209517" lon="11.7745233"><ele>259.0</ele><time>2026-03-24T17:21:46.301Z</time></trkpt><trkpt lat="43.42088" lon="11.7744233"><ele>259.0</ele><time>2026-03-24T17:21:48.3Z</time></trkpt><trkpt lat="43.4208" lon="11.77433"><ele>259.4</ele><time>2026-03-24T17:21:50.3Z</time></trkpt><trkpt lat="43.4207183" lon="11.7742367"><ele>259.79999999999995</ele><time>2026-03-24T17:21:52.297Z</time></trkpt><trkpt lat="43.4206333" lon="11.7741483"><ele>260.20000000000005</ele><time>2026-03-24T17:21:54.298Z</time></trkpt><trkpt lat="43.42055" lon="11.7740617"><ele>260.6</ele><time>2026-03-24T17:21:56.298Z</time></trkpt><trkpt lat="43.420465" lon="11.7739783"><ele>261.0</ele><time>2026-03-24T17:21:58.298Z</time></trkpt><trkpt lat="43.42038" lon="11.7738933"><ele>261.0</ele><time>2026-03-24T17:22:00.297Z</time></trkpt><trkpt lat="43.4203017" lon="11.7738033"><ele>261.0</ele><time>2026-03-24T17:22:02.299Z</time></trkpt><trkpt lat="43.420215" lon="11.7737183"><ele>261.0</ele><time>2026-03-24T17:22:04.298Z</time></trkpt><trkpt lat="43.4201317" lon="11.7736333"><ele>261.0</ele><time>2026-03-24T17:22:06.298Z</time></trkpt><trkpt lat="43.42005" lon="11.77355"><ele>261.0</ele><time>2026-03-24T17:22:08.298Z</time></trkpt><trkpt lat="43.4199683" lon="11.7734683"><ele>261.2</ele><time>2026-03-24T17:22:10.299Z</time></trkpt><trkpt lat="43.4198883" lon="11.7733867"><ele>261.40000000000003</ele><time>2026-03-24T17:22:12.298Z</time></trkpt><trkpt lat="43.4198067" lon="11.7733117"><ele>261.6</ele><time>2026-03-24T17:22:14.299Z</time></trkpt><trkpt lat="43.4197267" lon="11.7732483"><ele>261.8</ele><time>2026-03-24T17:22:16.301Z</time></trkpt><trkpt lat="43.4196367" lon="11.773195"><ele>262.0</ele><time>2026-03-24T17:22:18.297Z</time></trkpt><trkpt lat="43.41955" lon="11.773155"><ele>262.16666666666663</ele><time>2026-03-24T17:22:20.298Z</time></trkpt><trkpt lat="43.41947" lon="11.7731133"><ele>262.3333333333333</ele><time>2026-03-24T17:22:22.298Z</time></trkpt><trkpt lat="43.4193833" lon="11.773085"><ele>262.5</ele><time>2026-03-24T17:22:24.297Z</time></trkpt><trkpt lat="43.4192933" lon="11.7730567"><ele>262.6666666666667</ele><time>2026-03-24T17:22:26.302Z</time></trkpt><trkpt lat="43.4192117" lon="11.773025"><ele>262.83333333333337</ele><time>2026-03-24T17:22:28.298Z</time></trkpt><trkpt lat="43.41914" lon="11.7729967"><ele>263.0</ele><time>2026-03-24T17:22:30.297Z</time></trkpt><trkpt lat="43.4190683" lon="11.7729683"><ele>263.0</ele><time>2026-03-24T17:22:32.298Z</time></trkpt><trkpt lat="43.4189983" lon="11.7729433"><ele>263.0</ele><time>2026-03-24T17:22:34.298Z</time></trkpt><trkpt lat="43.4189267" lon="11.772925"><ele>263.0</ele><time>2026-03-24T17:22:36.297Z</time></trkpt><trkpt lat="43.41885" lon="11.7729033"><ele>263.0</ele><time>2026-03-24T17:22:38.299Z</time></trkpt><trkpt lat="43.41877" lon="11.7728717"><ele>263.0</ele><time>2026-03-24T17:22:40.299Z</time></trkpt><trkpt lat="43.4186967" lon="11.772845"><ele>263.0</ele><time>2026-03-24T17:22:42.298Z</time></trkpt><trkpt lat="43.4186183" lon="11.7728217"><ele>263.5</ele><time>2026-03-24T17:22:44.297Z</time></trkpt><trkpt lat="43.41854" lon="11.7727967"><ele>264.0</ele><time>2026-03-24T17:22:46.297Z</time></trkpt><trkpt lat="43.4184583" lon="11.7727733"><ele>264.5</ele><time>2026-03-24T17:22:48.298Z</time></trkpt><trkpt lat="43.41838" lon="11.7727533"><ele>265.0</ele><time>2026-03-24T17:22:50.298Z</time></trkpt><trkpt lat="43.4183083" lon="11.7727283"><ele>265.5</ele><time>2026-03-24T17:22:52.297Z</time></trkpt><trkpt lat="43.4182383" lon="11.7727033"><ele>266.0</ele><time>2026-03-24T17:22:54.299Z</time></trkpt><trkpt lat="43.4181583" lon="11.7726783"><ele>266.14285714285717</ele><time>2026-03-24T17:22:56.298Z</time></trkpt><trkpt lat="43.41808" lon="11.77265"><ele>266.2857142857143</ele><time>2026-03-24T17:22:58.297Z</time></trkpt><trkpt lat="43.418005" lon="11.7726217"><ele>266.42857142857144</ele><time>2026-03-24T17:23:00.298Z</time></trkpt><trkpt lat="43.4179367" lon="11.7725967"><ele>266.57142857142856</ele><time>2026-03-24T17:23:02.296Z</time></trkpt><trkpt lat="43.4178667" lon="11.7725633"><ele>266.7142857142857</ele><time>2026-03-24T17:23:04.297Z</time></trkpt><trkpt lat="43.4178067" lon="11.7725283"><ele>266.8571428571429</ele><time>2026-03-24T17:23:06.299Z</time></trkpt><trkpt lat="43.4177417" lon="11.7725183"><ele>267.0</ele><time>2026-03-24T17:23:08.299Z</time></trkpt><trkpt lat="43.4176617" lon="11.7725017"><ele>267.0</ele><time>2026-03-24T17:23:10.297Z</time></trkpt><trkpt lat="43.4175833" lon="11.772475"><ele>267.0</ele><time>2026-03-24T17:23:12.3Z</time></trkpt><trkpt lat="43.4174967" lon="11.7724467"><ele>267.0</ele><time>2026-03-24T17:23:14.298Z</time></trkpt><trkpt lat="43.4174083" lon="11.77242"><ele>267.0</ele><time>2026-03-24T17:23:16.299Z</time></trkpt><trkpt lat="43.4173217" lon="11.772395"><ele>267.0</ele><time>2026-03-24T17:23:18.299Z</time></trkpt><trkpt lat="43.4172317" lon="11.772365"><ele>267.0</ele><time>2026-03-24T17:23:20.301Z</time></trkpt><trkpt lat="43.4171367" lon="11.7723317"><ele>266.6</ele><time>2026-03-24T17:23:22.299Z</time></trkpt><trkpt lat="43.4170383" lon="11.7722933"><ele>266.2</ele><time>2026-03-24T17:23:24.301Z</time></trkpt><trkpt lat="43.4169383" lon="11.7722567"><ele>265.8</ele><time>2026-03-24T17:23:26.298Z</time></trkpt><trkpt lat="43.4168283" lon="11.7722183"><ele>265.4</ele><time>2026-03-24T17:23:28.297Z</time></trkpt><trkpt lat="43.416715" lon="11.77218"><ele>265.0</ele><time>2026-03-24T17:23:30.299Z</time></trkpt><trkpt lat="43.4165983" lon="11.77214"><ele>265.0</ele><time>2026-03-24T17:23:32.297Z</time></trkpt><trkpt lat="43.4164783" lon="11.7720867"><ele>265.0</ele><time>2026-03-24T17:23:34.297Z</time></trkpt><trkpt lat="43.41642" lon="11.7720517"><ele>265.0</ele><time>2026-03-24T17:23:35.297Z</time></trkpt><trkpt lat="43.41636" lon="11.7720167"><ele>265.0</ele><time>2026-03-24T17:23:36.299Z</time></trkpt><trkpt lat="43.4163" lon="11.7719767"><ele>265.0</ele><time>2026-03-24T17:23:37.298Z</time></trkpt><trkpt lat="43.4162433" lon="11.7719333"><ele>265.0</ele><time>2026-03-24T17:23:38.297Z</time></trkpt><trkpt lat="43.416185" lon="11.771885"><ele>264.57142857142856</ele><time>2026-03-24T17:23:39.298Z</time></trkpt><trkpt lat="43.4161283" lon="11.77183"><ele>264.1428571428571</ele><time>2026-03-24T17:23:40.297Z</time></trkpt><trkpt lat="43.4160717" lon="11.7717733"><ele>263.7142857142857</ele><time>2026-03-24T17:23:41.298Z</time></trkpt><trkpt lat="43.4160133" lon="11.7717117"><ele>263.2857142857143</ele><time>2026-03-24T17:23:42.297Z</time></trkpt><trkpt lat="43.4159583" lon="11.7716467"><ele>262.8571428571429</ele><time>2026-03-24T17:23:43.296Z</time></trkpt><trkpt lat="43.4159067" lon="11.7715783"><ele>262.42857142857144</ele><time>2026-03-24T17:23:44.298Z</time></trkpt><trkpt lat="43.4158567" lon="11.7715083"><ele>262.0</ele><time>2026-03-24T17:23:45.301Z</time></trkpt><trkpt lat="43.4158067" lon="11.7714383"><ele>262.0</ele><time>2026-03-24T17:23:46.297Z</time></trkpt><trkpt lat="43.4157567" lon="11.771365"><ele>262.0</ele><time>2026-03-24T17:23:47.296Z</time></trkpt><trkpt lat="43.4157067" lon="11.7712917"><ele>262.0</ele><time>2026-03-24T17:23:48.297Z</time></trkpt><trkpt lat="43.41566" lon="11.7712183"><ele>262.0</ele><time>2026-03-24T17:23:49.298Z</time></trkpt><trkpt lat="43.41561" lon="11.771145"><ele>262.0</ele><time>2026-03-24T17:23:50.298Z</time></trkpt><trkpt lat="43.41556" lon="11.7710733"><ele>262.0</ele><time>2026-03-24T17:23:51.297Z</time></trkpt><trkpt lat="43.4155133" lon="11.771"><ele>262.0</ele><time>2026-03-24T17:23:52.298Z</time></trkpt><trkpt lat="43.4154683" lon="11.7709267"><ele>261.57142857142856</ele><time>2026-03-24T17:23:53.297Z</time></trkpt><trkpt lat="43.41542" lon="11.7708533"><ele>261.14285714285717</ele><time>2026-03-24T17:23:54.298Z</time></trkpt><trkpt lat="43.415375" lon="11.7707783"><ele>260.7142857142857</ele><time>2026-03-24T17:23:55.297Z</time></trkpt><trkpt lat="43.4153267" lon="11.7707083"><ele>260.2857142857143</ele><time>2026-03-24T17:23:56.298Z</time></trkpt><trkpt lat="43.4152817" lon="11.7706383"><ele>259.8571428571429</ele><time>2026-03-24T17:23:57.296Z</time></trkpt><trkpt lat="43.415235" lon="11.7705717"><ele>259.42857142857144</ele><time>2026-03-24T17:23:58.296Z</time></trkpt><trkpt lat="43.4151917" lon="11.7705083"><ele>259.0</ele><time>2026-03-24T17:23:59.299Z</time></trkpt><trkpt lat="43.4151483" lon="11.7704433"><ele>259.0</ele><time>2026-03-24T17:24:00.298Z</time></trkpt><trkpt lat="43.4151017" lon="11.7703783"><ele>259.0</ele><time>2026-03-24T17:24:01.299Z</time></trkpt><trkpt lat="43.4150567" lon="11.7703133"><ele>259.0</ele><time>2026-03-24T17:24:02.303Z</time></trkpt><trkpt lat="43.4150117" lon="11.7702467"><ele>259.0</ele><time>2026-03-24T17:24:03.298Z</time></trkpt><trkpt lat="43.4149667" lon="11.7701817"><ele>259.0</ele><time>2026-03-24T17:24:04.302Z</time></trkpt><trkpt lat="43.4149233" lon="11.7701183"><ele>259.0</ele><time>2026-03-24T17:24:05.298Z</time></trkpt><trkpt lat="43.4148767" lon="11.7700533"><ele>259.0</ele><time>2026-03-24T17:24:06.298Z</time></trkpt><trkpt lat="43.4148333" lon="11.7699883"><ele>259.2</ele><time>2026-03-24T17:24:07.297Z</time></trkpt><trkpt lat="43.4147467" lon="11.7698617"><ele>259.4</ele><time>2026-03-24T17:24:09.299Z</time></trkpt><trkpt lat="43.4147017" lon="11.7698"><ele>259.6</ele><time>2026-03-24T17:24:10.298Z</time></trkpt><trkpt lat="43.4146117" lon="11.7696817"><ele>259.8</ele><time>2026-03-24T17:24:12.299Z</time></trkpt><trkpt lat="43.41452" lon="11.769565"><ele>260.0</ele><time>2026-03-24T17:24:14.297Z</time></trkpt><trkpt lat="43.41443" lon="11.7694567"><ele>260.0</ele><time>2026-03-24T17:24:16.296Z</time></trkpt><trkpt lat="43.4143333" lon="11.7693633"><ele>260.0</ele><time>2026-03-24T17:24:18.299Z</time></trkpt><trkpt lat="43.4142283" lon="11.76928"><ele>260.0</ele><time>2026-03-24T17:24:20.297Z</time></trkpt><trkpt lat="43.414125" lon="11.769215"><ele>260.0</ele><time>2026-03-24T17:24:22.297Z</time></trkpt><trkpt lat="43.41401" lon="11.7691617"><ele>260.25</ele><time>2026-03-24T17:24:24.296Z</time></trkpt><trkpt lat="43.413895" lon="11.76913"><ele>260.5</ele><time>2026-03-24T17:24:26.299Z</time></trkpt><trkpt lat="43.41378" lon="11.769125"><ele>260.75</ele><time>2026-03-24T17:24:28.302Z</time></trkpt><trkpt lat="43.4136667" lon="11.769125"><ele>261.0</ele><time>2026-03-24T17:24:30.299Z</time></trkpt><trkpt lat="43.4135517" lon="11.7691267"><ele>261.0</ele><time>2026-03-24T17:24:32.298Z</time></trkpt><trkpt lat="43.41344" lon="11.7691333"><ele>261.0</ele><time>2026-03-24T17:24:34.299Z</time></trkpt><trkpt lat="43.4133283" lon="11.7691383"><ele>261.0</ele><time>2026-03-24T17:24:36.298Z</time></trkpt><trkpt lat="43.41322" lon="11.7691483"><ele>261.0</ele><time>2026-03-24T17:24:38.301Z</time></trkpt><trkpt lat="43.41312" lon="11.7691383"><ele>261.0</ele><time>2026-03-24T17:24:40.299Z</time></trkpt><trkpt lat="43.413025" lon="11.7691267"><ele>261.8</ele><time>2026-03-24T17:24:42.299Z</time></trkpt><trkpt lat="43.4129333" lon="11.7691317"><ele>262.6</ele><time>2026-03-24T17:24:44.298Z</time></trkpt><trkpt lat="43.4128383" lon="11.76914"><ele>263.4</ele><time>2026-03-24T17:24:46.298Z</time></trkpt><trkpt lat="43.4127467" lon="11.7691517"><ele>264.2</ele><time>2026-03-24T17:24:48.297Z</time></trkpt><trkpt lat="43.4126583" lon="11.7691617"><ele>265.0</ele><time>2026-03-24T17:24:50.299Z</time></trkpt><trkpt lat="43.4125717" lon="11.7691683"><ele>264.99999999999994</ele><time>2026-03-24T17:24:52.299Z</time></trkpt><trkpt lat="43.4124917" lon="11.7691833"><ele>265.0</ele><time>2026-03-24T17:24:54.3Z</time></trkpt><trkpt lat="43.412415" lon="11.7691933"><ele>265.0</ele><time>2026-03-24T17:24:56.298Z</time></trkpt><trkpt lat="43.41234" lon="11.7692033"><ele>265.0</ele><time>2026-03-24T17:24:58.301Z</time></trkpt><trkpt lat="43.4122683" lon="11.7692183"><ele>265.0</ele><time>2026-03-24T17:25:00.298Z</time></trkpt><trkpt lat="43.4122033" lon="11.7692333"><ele>264.99999999999994</ele><time>2026-03-24T17:25:02.297Z</time></trkpt><trkpt lat="43.4121367" lon="11.76924"><ele>265.0</ele><time>2026-03-24T17:25:04.298Z</time></trkpt><trkpt lat="43.4120717" lon="11.7692433"><ele>265.71428571428567</ele><time>2026-03-24T17:25:06.297Z</time></trkpt><trkpt lat="43.4120083" lon="11.7692483"><ele>266.42857142857144</ele><time>2026-03-24T17:25:08.298Z</time></trkpt><trkpt lat="43.411945" lon="11.7692517"><ele>267.1428571428571</ele><time>2026-03-24T17:25:10.299Z</time></trkpt><trkpt lat="43.4118767" lon="11.76925"><ele>267.85714285714283</ele><time>2026-03-24T17:25:12.298Z</time></trkpt><trkpt lat="43.4118083" lon="11.769265"><ele>268.57142857142856</ele><time>2026-03-24T17:25:14.298Z</time></trkpt><trkpt lat="43.4117417" lon="11.76927"><ele>269.2857142857143</ele><time>2026-03-24T17:25:16.302Z</time></trkpt><trkpt lat="43.4116783" lon="11.7692733"><ele>270.0</ele><time>2026-03-24T17:25:18.297Z</time></trkpt><trkpt lat="43.4116117" lon="11.7692833"><ele>270.0</ele><time>2026-03-24T17:25:20.298Z</time></trkpt><trkpt lat="43.4115467" lon="11.7692883"><ele>270.0</ele><time>2026-03-24T17:25:22.298Z</time></trkpt><trkpt lat="43.4114833" lon="11.7692967"><ele>270.0</ele><time>2026-03-24T17:25:24.299Z</time></trkpt><trkpt lat="43.411415" lon="11.7693033"><ele>270.0</ele><time>2026-03-24T17:25:26.297Z</time></trkpt><trkpt lat="43.4113483" lon="11.7693117"><ele>270.0</ele><time>2026-03-24T17:25:28.298Z</time></trkpt><trkpt lat="43.411255" lon="11.7693233"><ele>270.0</ele><time>2026-03-24T17:25:31.297Z</time></trkpt><trkpt lat="43.4111917" lon="11.769325"><ele>270.0</ele><time>2026-03-24T17:25:33.298Z</time></trkpt><trkpt lat="43.4110983" lon="11.7693217"><ele>270.5</ele><time>2026-03-24T17:25:36.3Z</time></trkpt><trkpt lat="43.411005" lon="11.7693"><ele>271.0</ele><time>2026-03-24T17:25:39.3Z</time></trkpt><trkpt lat="43.41091" lon="11.76928"><ele>271.5</ele><time>2026-03-24T17:25:42.298Z</time></trkpt><trkpt lat="43.410825" lon="11.7692633"><ele>272.0</ele><time>2026-03-24T17:25:45.301Z</time></trkpt><trkpt lat="43.4107617" lon="11.76924"><ele>272.5</ele><time>2026-03-24T17:25:47.299Z</time></trkpt><trkpt lat="43.4106717" lon="11.7692117"><ele>273.0</ele><time>2026-03-24T17:25:50.298Z</time></trkpt><trkpt lat="43.41061" lon="11.7691883"><ele>273.0</ele><time>2026-03-24T17:25:52.299Z</time></trkpt><trkpt lat="43.41052" lon="11.7691533"><ele>273.0</ele><time>2026-03-24T17:25:55.298Z</time></trkpt><trkpt lat="43.4104383" lon="11.7691133"><ele>273.0</ele><time>2026-03-24T17:25:58.299Z</time></trkpt><trkpt lat="43.41035" lon="11.769075"><ele>273.0</ele><time>2026-03-24T17:26:01.299Z</time></trkpt><trkpt lat="43.41029" lon="11.7690467"><ele>273.0</ele><time>2026-03-24T17:26:03.299Z</time></trkpt><trkpt lat="43.4102267" lon="11.7690183"><ele>273.0</ele><time>2026-03-24T17:26:05.299Z</time></trkpt><trkpt lat="43.410165" lon="11.7689883"><ele>273.0</ele><time>2026-03-24T17:26:07.299Z</time></trkpt><trkpt lat="43.4101" lon="11.7689617"><ele>273.0</ele><time>2026-03-24T17:26:09.301Z</time></trkpt><trkpt lat="43.4100333" lon="11.76894"><ele>273.0</ele><time>2026-03-24T17:26:11.3Z</time></trkpt><trkpt lat="43.40997" lon="11.7689067"><ele>273.0</ele><time>2026-03-24T17:26:13.298Z</time></trkpt><trkpt lat="43.4099067" lon="11.7688733"><ele>273.0</ele><time>2026-03-24T17:26:15.298Z</time></trkpt><trkpt lat="43.4098267" lon="11.768825"><ele>273.0</ele><time>2026-03-24T17:26:18.298Z</time></trkpt><trkpt lat="43.4097683" lon="11.7687917"><ele>273.0</ele><time>2026-03-24T17:26:20.3Z</time></trkpt><trkpt lat="43.4096983" lon="11.76873"><ele>273.14285714285717</ele><time>2026-03-24T17:26:23.299Z</time></trkpt><trkpt lat="43.4096483" lon="11.7686683"><ele>273.2857142857143</ele><time>2026-03-24T17:26:25.299Z</time></trkpt><trkpt lat="43.4095933" lon="11.7686083"><ele>273.42857142857144</ele><time>2026-03-24T17:26:27.301Z</time></trkpt><trkpt lat="43.4095317" lon="11.7685683"><ele>273.57142857142856</ele><time>2026-03-24T17:26:29.299Z</time></trkpt><trkpt lat="43.4094683" lon="11.7685567"><ele>273.7142857142857</ele><time>2026-03-24T17:26:31.297Z</time></trkpt><trkpt lat="43.409395" lon="11.76857"><ele>273.8571428571429</ele><time>2026-03-24T17:26:33.301Z</time></trkpt><trkpt lat="43.4093117" lon="11.76861"><ele>274.0</ele><time>2026-03-24T17:26:35.299Z</time></trkpt><trkpt lat="43.409235" lon="11.76866"><ele>274.0</ele><time>2026-03-24T17:26:37.298Z</time></trkpt><trkpt lat="43.409155" lon="11.7686867"><ele>274.0</ele><time>2026-03-24T17:26:39.299Z</time></trkpt><trkpt lat="43.409075" lon="11.7687"><ele>274.0</ele><time>2026-03-24T17:26:41.299Z</time></trkpt><trkpt lat="43.408995" lon="11.7687167"><ele>274.0</ele><time>2026-03-24T17:26:43.297Z</time></trkpt><trkpt lat="43.4089167" lon="11.7687267"><ele>274.0</ele><time>2026-03-24T17:26:45.301Z</time></trkpt><trkpt lat="43.40883" lon="11.7687283"><ele>274.0</ele><time>2026-03-24T17:26:47.297Z</time></trkpt><trkpt lat="43.408735" lon="11.7687233"><ele>274.2</ele><time>2026-03-24T17:26:49.299Z</time></trkpt><trkpt lat="43.408645" lon="11.7687267"><ele>274.4</ele><time>2026-03-24T17:26:51.3Z</time></trkpt><trkpt lat="43.4085533" lon="11.7687283"><ele>274.6</ele><time>2026-03-24T17:26:53.298Z</time></trkpt><trkpt lat="43.4084583" lon="11.768725"><ele>274.8</ele><time>2026-03-24T17:26:55.298Z</time></trkpt><trkpt lat="43.4083667" lon="11.7687217"><ele>275.0</ele><time>2026-03-24T17:26:57.3Z</time></trkpt><trkpt lat="43.408285" lon="11.76872"><ele>275.0</ele><time>2026-03-24T17:26:59.3Z</time></trkpt><trkpt lat="43.408205" lon="11.768725"><ele>275.0</ele><time>2026-03-24T17:27:01.298Z</time></trkpt><trkpt lat="43.408125" lon="11.7687283"><ele>275.0</ele><time>2026-03-24T17:27:03.299Z</time></trkpt><trkpt lat="43.4080283" lon="11.7687333"><ele>275.0</ele><time>2026-03-24T17:27:05.298Z</time></trkpt><trkpt lat="43.4079333" lon="11.7687367"><ele>275.0</ele><time>2026-03-24T17:27:07.297Z</time></trkpt><trkpt lat="43.4078367" lon="11.7687417"><ele>275.0</ele><time>2026-03-24T17:27:09.299Z</time></trkpt><trkpt lat="43.4077383" lon="11.7687467"><ele>275.4</ele><time>2026-03-24T17:27:11.297Z</time></trkpt><trkpt lat="43.4076367" lon="11.76875"><ele>275.8</ele><time>2026-03-24T17:27:13.297Z</time></trkpt><trkpt lat="43.4075333" lon="11.7687567"><ele>276.2</ele><time>2026-03-24T17:27:15.298Z</time></trkpt><trkpt lat="43.4074383" lon="11.7687533"><ele>276.6</ele><time>2026-03-24T17:27:17.297Z</time></trkpt><trkpt lat="43.407345" lon="11.7687333"><ele>277.0</ele><time>2026-03-24T17:27:19.298Z</time></trkpt><trkpt lat="43.4072517" lon="11.7686967"><ele>277.0</ele><time>2026-03-24T17:27:21.299Z</time></trkpt><trkpt lat="43.4071583" lon="11.7686617"><ele>277.0</ele><time>2026-03-24T17:27:23.299Z</time></trkpt><trkpt lat="43.4070683" lon="11.768625"><ele>277.0</ele><time>2026-03-24T17:27:25.303Z</time></trkpt><trkpt lat="43.406975" lon="11.7685883"><ele>277.0</ele><time>2026-03-24T17:27:27.299Z</time></trkpt><trkpt lat="43.406885" lon="11.7685467"><ele>277.0</ele><time>2026-03-24T17:27:29.298Z</time></trkpt><trkpt lat="43.4068" lon="11.768495"><ele>276.66666666666663</ele><time>2026-03-24T17:27:31.297Z</time></trkpt><trkpt lat="43.4067267" lon="11.7684317"><ele>276.3333333333333</ele><time>2026-03-24T17:27:33.298Z</time></trkpt><trkpt lat="43.4066583" lon="11.7683733"><ele>276.0</ele><time>2026-03-24T17:27:35.299Z</time></trkpt><trkpt lat="43.4065883" lon="11.7683133"><ele>275.6666666666667</ele><time>2026-03-24T17:27:37.3Z</time></trkpt><trkpt lat="43.4065283" lon="11.7682533"><ele>275.33333333333337</ele><time>2026-03-24T17:27:39.298Z</time></trkpt><trkpt lat="43.40647" lon="11.768195"><ele>275.0</ele><time>2026-03-24T17:27:41.298Z</time></trkpt><trkpt lat="43.4064167" lon="11.7681383"><ele>275.0</ele><time>2026-03-24T17:27:43.299Z</time></trkpt><trkpt lat="43.406365" lon="11.7680817"><ele>275.0</ele><time>2026-03-24T17:27:45.299Z</time></trkpt><trkpt lat="43.4063167" lon="11.7680217"><ele>275.0</ele><time>2026-03-24T17:27:47.299Z</time></trkpt><trkpt lat="43.4062467" lon="11.767945"><ele>275.0</ele><time>2026-03-24T17:27:50.299Z</time></trkpt><trkpt lat="43.4061683" lon="11.7678717"><ele>275.0</ele><time>2026-03-24T17:27:53.301Z</time></trkpt><trkpt lat="43.4060883" lon="11.7678017"><ele>275.0</ele><time>2026-03-24T17:27:56.299Z</time></trkpt><trkpt lat="43.4060067" lon="11.7677383"><ele>275.57142857142856</ele><time>2026-03-24T17:27:59.298Z</time></trkpt><trkpt lat="43.4059483" lon="11.767705"><ele>276.1428571428571</ele><time>2026-03-24T17:28:01.298Z</time></trkpt><trkpt lat="43.4058683" lon="11.7676583"><ele>276.71428571428567</ele><time>2026-03-24T17:28:04.298Z</time></trkpt><trkpt lat="43.4057917" lon="11.7676183"><ele>277.2857142857143</ele><time>2026-03-24T17:28:08.299Z</time></trkpt><trkpt lat="43.40573" lon="11.7675883"><ele>277.85714285714283</ele><time>2026-03-24T17:28:11.298Z</time></trkpt><trkpt lat="43.4056683" lon="11.76756"><ele>278.4285714285714</ele><time>2026-03-24T17:28:14.298Z</time></trkpt><trkpt lat="43.4056033" lon="11.7675367"><ele>279.0</ele><time>2026-03-24T17:28:17.297Z</time></trkpt><trkpt lat="43.4055233" lon="11.7675083"><ele>279.5</ele><time>2026-03-24T17:28:21.298Z</time></trkpt><trkpt lat="43.4054567" lon="11.7674833"><ele>280.0</ele><time>2026-03-24T17:28:24.299Z</time></trkpt><trkpt lat="43.40538" lon="11.76744"><ele>280.5</ele><time>2026-03-24T17:28:27.3Z</time></trkpt><trkpt lat="43.4053033" lon="11.7674017"><ele>281.0</ele><time>2026-03-24T17:28:29.299Z</time></trkpt><trkpt lat="43.4052067" lon="11.76737"><ele>281.5</ele><time>2026-03-24T17:28:31.305Z</time></trkpt><trkpt lat="43.4050967" lon="11.767375"><ele>282.0</ele><time>2026-03-24T17:28:33.298Z</time></trkpt><trkpt lat="43.4049883" lon="11.7674067"><ele>282.0</ele><time>2026-03-24T17:28:35.298Z</time></trkpt><trkpt lat="43.4048917" lon="11.7674567"><ele>282.0</ele><time>2026-03-24T17:28:37.298Z</time></trkpt><trkpt lat="43.4048067" lon="11.7675117"><ele>282.0</ele><time>2026-03-24T17:28:39.298Z</time></trkpt><trkpt lat="43.4047267" lon="11.7675767"><ele>282.0</ele><time>2026-03-24T17:28:41.299Z</time></trkpt><trkpt lat="43.4046467" lon="11.7676383"><ele>282.0</ele><time>2026-03-24T17:28:43.304Z</time></trkpt><trkpt lat="43.4045717" lon="11.76771"><ele>281.3333333333333</ele><time>2026-03-24T17:28:45.301Z</time></trkpt><trkpt lat="43.4045067" lon="11.7677983"><ele>280.6666666666667</ele><time>2026-03-24T17:28:47.302Z</time></trkpt><trkpt lat="43.4044467" lon="11.7678883"><ele>280.0</ele><time>2026-03-24T17:28:49.299Z</time></trkpt><trkpt lat="43.4044017" lon="11.767995"><ele>279.33333333333337</ele><time>2026-03-24T17:28:51.3Z</time></trkpt><trkpt lat="43.4043933" lon="11.7681083"><ele>278.6666666666667</ele><time>2026-03-24T17:28:53.299Z</time></trkpt><trkpt lat="43.4044067" lon="11.7682133"><ele>278.0</ele><time>2026-03-24T17:28:55.298Z</time></trkpt><trkpt lat="43.4044283" lon="11.768315"><ele>278.0</ele><time>2026-03-24T17:28:57.299Z</time></trkpt><trkpt lat="43.4044617" lon="11.7684183"><ele>278.0</ele><time>2026-03-24T17:28:59.298Z</time></trkpt><trkpt lat="43.4044817" lon="11.768525"><ele>278.0</ele><time>2026-03-24T17:29:01.299Z</time></trkpt><trkpt lat="43.4044183" lon="11.7686133"><ele>278.0</ele><time>2026-03-24T17:29:03.3Z</time></trkpt><trkpt lat="43.404325" lon="11.7686533"><ele>278.0</ele><time>2026-03-24T17:29:05.297Z</time></trkpt><trkpt lat="43.40422" lon="11.7686883"><ele>277.83333333333337</ele><time>2026-03-24T17:29:07.299Z</time></trkpt><trkpt lat="43.4041067" lon="11.7687267"><ele>277.6666666666667</ele><time>2026-03-24T17:29:09.298Z</time></trkpt><trkpt lat="43.4039867" lon="11.7687783"><ele>277.5</ele><time>2026-03-24T17:29:11.299Z</time></trkpt><trkpt lat="43.403925" lon="11.7688033"><ele>277.3333333333333</ele><time>2026-03-24T17:29:12.301Z</time></trkpt><trkpt lat="43.4038633" lon="11.7688267"><ele>277.16666666666663</ele><time>2026-03-24T17:29:13.299Z</time></trkpt><trkpt lat="43.4037983" lon="11.7688483"><ele>277.0</ele><time>2026-03-24T17:29:14.297Z</time></trkpt><trkpt lat="43.4037317" lon="11.7688733"><ele>276.42857142857144</ele><time>2026-03-24T17:29:15.298Z</time></trkpt><trkpt lat="43.4036633" lon="11.7688967"><ele>275.85714285714283</ele><time>2026-03-24T17:29:16.304Z</time></trkpt><trkpt lat="43.403595" lon="11.7689233"><ele>275.2857142857143</ele><time>2026-03-24T17:29:17.299Z</time></trkpt><trkpt lat="43.4035233" lon="11.7689517"><ele>274.7142857142857</ele><time>2026-03-24T17:29:18.3Z</time></trkpt><trkpt lat="43.40345" lon="11.7689833"><ele>274.1428571428571</ele><time>2026-03-24T17:29:19.299Z</time></trkpt><trkpt lat="43.4033783" lon="11.769015"><ele>273.57142857142856</ele><time>2026-03-24T17:29:20.298Z</time></trkpt><trkpt lat="43.4033083" lon="11.7690417"><ele>273.0</ele><time>2026-03-24T17:29:21.299Z</time></trkpt><trkpt lat="43.4032433" lon="11.7690633"><ele>273.0</ele><time>2026-03-24T17:29:22.299Z</time></trkpt><trkpt lat="43.40313" lon="11.769105"><ele>273.0</ele><time>2026-03-24T17:29:24.301Z</time></trkpt><trkpt lat="43.40303" lon="11.7691333"><ele>273.0</ele><time>2026-03-24T17:29:26.298Z</time></trkpt><trkpt lat="43.40297" lon="11.7692367"><ele>273.0</ele><time>2026-03-24T17:29:28.299Z</time></trkpt><trkpt lat="43.4029667" lon="11.7693867"><ele>273.0</ele><time>2026-03-24T17:29:30.3Z</time></trkpt><trkpt lat="43.4029817" lon="11.7695317"><ele>272.0</ele><time>2026-03-24T17:29:32.3Z</time></trkpt><trkpt lat="43.4029883" lon="11.7696817"><ele>271.0</ele><time>2026-03-24T17:29:34.301Z</time></trkpt><trkpt lat="43.4029917" lon="11.76982"><ele>270.0</ele><time>2026-03-24T17:29:36.3Z</time></trkpt><trkpt lat="43.4029933" lon="11.7699517"><ele>269.0</ele><time>2026-03-24T17:29:38.298Z</time></trkpt><trkpt lat="43.4029867" lon="11.77009"><ele>268.0</ele><time>2026-03-24T17:29:40.297Z</time></trkpt><trkpt lat="43.4029917" lon="11.7702333"><ele>267.6</ele><time>2026-03-24T17:29:42.298Z</time></trkpt><trkpt lat="43.4029883" lon="11.7703917"><ele>267.20000000000005</ele><time>2026-03-24T17:29:44.301Z</time></trkpt><trkpt lat="43.402985" lon="11.7705733"><ele>266.8</ele><time>2026-03-24T17:29:46.3Z</time></trkpt><trkpt lat="43.4029833" lon="11.770675"><ele>266.40000000000003</ele><time>2026-03-24T17:29:47.297Z</time></trkpt><trkpt lat="43.4029833" lon="11.7707767"><ele>266.0</ele><time>2026-03-24T17:29:48.299Z</time></trkpt><trkpt lat="43.40298" lon="11.7708717"><ele>266.0</ele><time>2026-03-24T17:29:49.301Z</time></trkpt><trkpt lat="43.402975" lon="11.7709617"><ele>266.0</ele><time>2026-03-24T17:29:50.299Z</time></trkpt><trkpt lat="43.4029533" lon="11.77112"><ele>266.0</ele><time>2026-03-24T17:29:52.3Z</time></trkpt><trkpt lat="43.4029067" lon="11.77126"><ele>266.0</ele><time>2026-03-24T17:29:54.3Z</time></trkpt><trkpt lat="43.4028367" lon="11.7713817"><ele>266.0</ele><time>2026-03-24T17:29:56.298Z</time></trkpt><trkpt lat="43.40275" lon="11.7714833"><ele>265.8</ele><time>2026-03-24T17:29:58.297Z</time></trkpt><trkpt lat="43.40266" lon="11.7715833"><ele>265.6</ele><time>2026-03-24T17:30:00.296Z</time></trkpt><trkpt lat="43.4025633" lon="11.77168"><ele>265.4</ele><time>2026-03-24T17:30:02.299Z</time></trkpt><trkpt lat="43.4024617" lon="11.7717733"><ele>265.2</ele><time>2026-03-24T17:30:04.299Z</time></trkpt><trkpt lat="43.40241" lon="11.7718233"><ele>265.0</ele><time>2026-03-24T17:30:05.299Z</time></trkpt><trkpt lat="43.4023583" lon="11.771875"><ele>265.0</ele><time>2026-03-24T17:30:06.3Z</time></trkpt><trkpt lat="43.4023067" lon="11.7719267"><ele>265.0</ele><time>2026-03-24T17:30:07.3Z</time></trkpt><trkpt lat="43.402255" lon="11.77198"><ele>265.0</ele><time>2026-03-24T17:30:08.298Z</time></trkpt><trkpt lat="43.40216" lon="11.7720867"><ele>265.0</ele><time>2026-03-24T17:30:10.298Z</time></trkpt><trkpt lat="43.402065" lon="11.7721817"><ele>265.0</ele><time>2026-03-24T17:30:12.297Z</time></trkpt><trkpt lat="43.4019733" lon="11.7722717"><ele>265.0</ele><time>2026-03-24T17:30:14.298Z</time></trkpt><trkpt lat="43.401885" lon="11.772365"><ele>265.0</ele><time>2026-03-24T17:30:16.299Z</time></trkpt><trkpt lat="43.4018067" lon="11.772465"><ele>265.0</ele><time>2026-03-24T17:30:18.297Z</time></trkpt><trkpt lat="43.4017317" lon="11.7725583"><ele>265.0</ele><time>2026-03-24T17:30:20.299Z</time></trkpt><trkpt lat="43.40166" lon="11.7726583"><ele>265.0</ele><time>2026-03-24T17:30:22.298Z</time></trkpt><trkpt lat="43.4015867" lon="11.772765"><ele>265.5</ele><time>2026-03-24T17:30:24.298Z</time></trkpt><trkpt lat="43.4015133" lon="11.7728767"><ele>266.0</ele><time>2026-03-24T17:30:26.298Z</time></trkpt><trkpt lat="43.4014433" lon="11.772995"><ele>266.5</ele><time>2026-03-24T17:30:28.3Z</time></trkpt><trkpt lat="43.4013717" lon="11.77312"><ele>267.0</ele><time>2026-03-24T17:30:30.298Z</time></trkpt><trkpt lat="43.401305" lon="11.7732467"><ele>266.75</ele><time>2026-03-24T17:30:32.299Z</time></trkpt><trkpt lat="43.4012317" lon="11.773365"><ele>266.5</ele><time>2026-03-24T17:30:34.301Z</time></trkpt><trkpt lat="43.40116" lon="11.7734883"><ele>266.25</ele><time>2026-03-24T17:30:36.298Z</time></trkpt><trkpt lat="43.4010867" lon="11.773615"><ele>266.0</ele><time>2026-03-24T17:30:38.3Z</time></trkpt><trkpt lat="43.401015" lon="11.7737433"><ele>266.0</ele><time>2026-03-24T17:30:40.301Z</time></trkpt><trkpt lat="43.400945" lon="11.7738767"><ele>266.0</ele><time>2026-03-24T17:30:42.298Z</time></trkpt><trkpt lat="43.4008783" lon="11.7740083"><ele>266.0</ele><time>2026-03-24T17:30:44.298Z</time></trkpt><trkpt lat="43.4008067" lon="11.7741283"><ele>266.0</ele><time>2026-03-24T17:30:46.3Z</time></trkpt><trkpt lat="43.4007417" lon="11.7742617"><ele>266.40000000000003</ele><time>2026-03-24T17:30:48.298Z</time></trkpt><trkpt lat="43.4006767" lon="11.7743817"><ele>266.8</ele><time>2026-03-24T17:30:50.299Z</time></trkpt><trkpt lat="43.4006167" lon="11.774495"><ele>267.20000000000005</ele><time>2026-03-24T17:30:52.301Z</time></trkpt><trkpt lat="43.400565" lon="11.7746183"><ele>267.6</ele><time>2026-03-24T17:30:54.3Z</time></trkpt><trkpt lat="43.4005117" lon="11.7747417"><ele>268.0</ele><time>2026-03-24T17:30:56.297Z</time></trkpt><trkpt lat="43.4004567" lon="11.7748533"><ele>267.6</ele><time>2026-03-24T17:30:58.3Z</time></trkpt><trkpt lat="43.4004083" lon="11.7749667"><ele>267.20000000000005</ele><time>2026-03-24T17:31:00.298Z</time></trkpt><trkpt lat="43.4003667" lon="11.775075"><ele>266.8</ele><time>2026-03-24T17:31:02.302Z</time></trkpt><trkpt lat="43.400325" lon="11.775185"><ele>266.40000000000003</ele><time>2026-03-24T17:31:04.298Z</time></trkpt><trkpt lat="43.4002783" lon="11.7752883"><ele>266.0</ele><time>2026-03-24T17:31:06.298Z</time></trkpt><trkpt lat="43.4002333" lon="11.7753917"><ele>266.0</ele><time>2026-03-24T17:31:08.296Z</time></trkpt><trkpt lat="43.4001917" lon="11.7755"><ele>266.0</ele><time>2026-03-24T17:31:10.299Z</time></trkpt><trkpt lat="43.4001517" lon="11.7756083"><ele>266.0</ele><time>2026-03-24T17:31:12.3Z</time></trkpt><trkpt lat="43.400115" lon="11.7757117"><ele>266.0</ele><time>2026-03-24T17:31:14.3Z</time></trkpt><trkpt lat="43.4000667" lon="11.7758117"><ele>266.0</ele><time>2026-03-24T17:31:16.302Z</time></trkpt><trkpt lat="43.4000217" lon="11.7759167"><ele>266.0</ele><time>2026-03-24T17:31:18.298Z</time></trkpt><trkpt lat="43.3999767" lon="11.7760167"><ele>266.0</ele><time>2026-03-24T17:31:20.298Z</time></trkpt><trkpt lat="43.399935" lon="11.776115"><ele>266.0</ele><time>2026-03-24T17:31:22.3Z</time></trkpt><trkpt lat="43.399895" lon="11.77623"><ele>266.0</ele><time>2026-03-24T17:31:24.298Z</time></trkpt><trkpt lat="43.399845" lon="11.7763567"><ele>266.0</ele><time>2026-03-24T17:31:26.299Z</time></trkpt><trkpt lat="43.399795" lon="11.776495"><ele>266.0</ele><time>2026-03-24T17:31:28.298Z</time></trkpt><trkpt lat="43.39974" lon="11.7766433"><ele>266.0</ele><time>2026-03-24T17:31:30.297Z</time></trkpt><trkpt lat="43.3997067" lon="11.7767233"><ele>266.0</ele><time>2026-03-24T17:31:31.298Z</time></trkpt><trkpt lat="43.39967" lon="11.7768067"><ele>266.0</ele><time>2026-03-24T17:31:32.3Z</time></trkpt><trkpt lat="43.399635" lon="11.7768917"><ele>266.0</ele><time>2026-03-24T17:31:33.3Z</time></trkpt><trkpt lat="43.3995983" lon="11.7769833"><ele>266.0</ele><time>2026-03-24T17:31:34.298Z</time></trkpt><trkpt lat="43.399565" lon="11.77708"><ele>266.0</ele><time>2026-03-24T17:31:35.298Z</time></trkpt><trkpt lat="43.3995283" lon="11.7771733"><ele>266.0</ele><time>2026-03-24T17:31:36.298Z</time></trkpt><trkpt lat="43.3994917" lon="11.777265"><ele>265.0</ele><time>2026-03-24T17:31:37.3Z</time></trkpt><trkpt lat="43.3994483" lon="11.77735"><ele>264.0</ele><time>2026-03-24T17:31:38.298Z</time></trkpt><trkpt lat="43.399395" lon="11.7774217"><ele>263.0</ele><time>2026-03-24T17:31:39.299Z</time></trkpt><trkpt lat="43.399335" lon="11.7774733"><ele>262.0</ele><time>2026-03-24T17:31:40.3Z</time></trkpt><trkpt lat="43.39926" lon="11.7775017"><ele>261.0</ele><time>2026-03-24T17:31:41.297Z</time></trkpt><trkpt lat="43.3991883" lon="11.7775467"><ele>260.0</ele><time>2026-03-24T17:31:42.298Z</time></trkpt><trkpt lat="43.39912" lon="11.7775983"><ele>260.00000000000006</ele><time>2026-03-24T17:31:43.298Z</time></trkpt><trkpt lat="43.3990683" lon="11.7776783"><ele>260.0</ele><time>2026-03-24T17:31:44.298Z</time></trkpt><trkpt lat="43.3990333" lon="11.7777733"><ele>260.0</ele><time>2026-03-24T17:31:45.298Z</time></trkpt><trkpt lat="43.3990033" lon="11.7778683"><ele>260.0</ele><time>2026-03-24T17:31:46.297Z</time></trkpt><trkpt lat="43.3989683" lon="11.777955"><ele>260.0</ele><time>2026-03-24T17:31:47.298Z</time></trkpt><trkpt lat="43.3989267" lon="11.77803"><ele>260.00000000000006</ele><time>2026-03-24T17:31:48.297Z</time></trkpt><trkpt lat="43.3988783" lon="11.7780967"><ele>260.0</ele><time>2026-03-24T17:31:49.297Z</time></trkpt><trkpt lat="43.3988283" lon="11.7781583"><ele>259.8571428571429</ele><time>2026-03-24T17:31:50.297Z</time></trkpt><trkpt lat="43.3987783" lon="11.7782183"><ele>259.7142857142857</ele><time>2026-03-24T17:31:51.301Z</time></trkpt><trkpt lat="43.3987283" lon="11.7782833"><ele>259.57142857142856</ele><time>2026-03-24T17:31:52.299Z</time></trkpt><trkpt lat="43.3986783" lon="11.7783483"><ele>259.42857142857144</ele><time>2026-03-24T17:31:53.297Z</time></trkpt><trkpt lat="43.3986283" lon="11.77841"><ele>259.2857142857143</ele><time>2026-03-24T17:31:54.299Z</time></trkpt><trkpt lat="43.3985783" lon="11.778475"><ele>259.14285714285717</ele><time>2026-03-24T17:31:55.297Z</time></trkpt><trkpt lat="43.398525" lon="11.7785333"><ele>259.0</ele><time>2026-03-24T17:31:56.297Z</time></trkpt><trkpt lat="43.3984717" lon="11.77859"><ele>259.4</ele><time>2026-03-24T17:31:57.298Z</time></trkpt><trkpt lat="43.39842" lon="11.77865"><ele>259.79999999999995</ele><time>2026-03-24T17:31:58.299Z</time></trkpt><trkpt lat="43.3983267" lon="11.778765"><ele>260.20000000000005</ele><time>2026-03-24T17:32:00.297Z</time></trkpt><trkpt lat="43.398235" lon="11.77888"><ele>260.6</ele><time>2026-03-24T17:32:02.3Z</time></trkpt><trkpt lat="43.3981467" lon="11.7789967"><ele>261.0</ele><time>2026-03-24T17:32:04.298Z</time></trkpt><trkpt lat="43.398105" lon="11.7790617"><ele>261.0</ele><time>2026-03-24T17:32:05.299Z</time></trkpt><trkpt lat="43.398035" lon="11.7792017"><ele>261.0</ele><time>2026-03-24T17:32:07.299Z</time></trkpt><trkpt lat="43.3979667" lon="11.77934"><ele>261.0</ele><time>2026-03-24T17:32:09.301Z</time></trkpt><trkpt lat="43.397905" lon="11.7794833"><ele>261.0</ele><time>2026-03-24T17:32:11.299Z</time></trkpt><trkpt lat="43.3978467" lon="11.7796283"><ele>260.75</ele><time>2026-03-24T17:32:13.297Z</time></trkpt><trkpt lat="43.397785" lon="11.7797733"><ele>260.5</ele><time>2026-03-24T17:32:15.298Z</time></trkpt><trkpt lat="43.3977283" lon="11.7799183"><ele>260.25</ele><time>2026-03-24T17:32:17.297Z</time></trkpt><trkpt lat="43.39767" lon="11.780065"><ele>260.0</ele><time>2026-03-24T17:32:19.297Z</time></trkpt><trkpt lat="43.3976133" lon="11.780215"><ele>260.0</ele><time>2026-03-24T17:32:21.3Z</time></trkpt><trkpt lat="43.3975817" lon="11.7802917"><ele>260.0</ele><time>2026-03-24T17:32:22.297Z</time></trkpt><trkpt lat="43.3975183" lon="11.7804367"><ele>260.0</ele><time>2026-03-24T17:32:24.299Z</time></trkpt><trkpt lat="43.3974833" lon="11.78051"><ele>260.0</ele><time>2026-03-24T17:32:25.297Z</time></trkpt><trkpt lat="43.3974467" lon="11.7805817"><ele>260.0</ele><time>2026-03-24T17:32:26.298Z</time></trkpt><trkpt lat="43.3974133" lon="11.7806567"><ele>260.0</ele><time>2026-03-24T17:32:27.299Z</time></trkpt><trkpt lat="43.3973483" lon="11.780805"><ele>260.00000000000006</ele><time>2026-03-24T17:32:29.297Z</time></trkpt><trkpt lat="43.3972833" lon="11.7809517"><ele>260.0</ele><time>2026-03-24T17:32:31.299Z</time></trkpt><trkpt lat="43.3972517" lon="11.7810283"><ele>260.0</ele><time>2026-03-24T17:32:32.299Z</time></trkpt><trkpt lat="43.3972217" lon="11.781105"><ele>260.0</ele><time>2026-03-24T17:32:33.299Z</time></trkpt><trkpt lat="43.39719" lon="11.7811817"><ele>260.0</ele><time>2026-03-24T17:32:34.298Z</time></trkpt><trkpt lat="43.3971567" lon="11.7812583"><ele>260.00000000000006</ele><time>2026-03-24T17:32:35.297Z</time></trkpt><trkpt lat="43.3971233" lon="11.7813383"><ele>260.0</ele><time>2026-03-24T17:32:36.302Z</time></trkpt><trkpt lat="43.3970933" lon="11.7814183"><ele>259.7142857142857</ele><time>2026-03-24T17:32:37.298Z</time></trkpt><trkpt lat="43.3970583" lon="11.781495"><ele>259.42857142857144</ele><time>2026-03-24T17:32:38.299Z</time></trkpt><trkpt lat="43.3970217" lon="11.78157"><ele>259.1428571428571</ele><time>2026-03-24T17:32:39.301Z</time></trkpt><trkpt lat="43.3969817" lon="11.78164"><ele>258.8571428571429</ele><time>2026-03-24T17:32:40.301Z</time></trkpt><trkpt lat="43.39694" lon="11.7817067"><ele>258.57142857142856</ele><time>2026-03-24T17:32:41.299Z</time></trkpt><trkpt lat="43.3968967" lon="11.781775"><ele>258.2857142857143</ele><time>2026-03-24T17:32:42.3Z</time></trkpt><trkpt lat="43.3968533" lon="11.7818433"><ele>258.0</ele><time>2026-03-24T17:32:43.298Z</time></trkpt><trkpt lat="43.3968083" lon="11.78191"><ele>257.99999999999994</ele><time>2026-03-24T17:32:44.302Z</time></trkpt><trkpt lat="43.3967633" lon="11.781975"><ele>258.0</ele><time>2026-03-24T17:32:45.299Z</time></trkpt><trkpt lat="43.3967167" lon="11.7820367"><ele>258.0</ele><time>2026-03-24T17:32:46.297Z</time></trkpt><trkpt lat="43.3966683" lon="11.7821017"><ele>258.0</ele><time>2026-03-24T17:32:47.3Z</time></trkpt><trkpt lat="43.3966217" lon="11.7821667"><ele>258.0</ele><time>2026-03-24T17:32:48.298Z</time></trkpt><trkpt lat="43.3965733" lon="11.782235"><ele>257.99999999999994</ele><time>2026-03-24T17:32:49.3Z</time></trkpt><trkpt lat="43.396525" lon="11.7822983"><ele>258.0</ele><time>2026-03-24T17:32:50.298Z</time></trkpt><trkpt lat="43.396475" lon="11.782365"><ele>257.99999999999994</ele><time>2026-03-24T17:32:51.3Z</time></trkpt><trkpt lat="43.3964267" lon="11.7824333"><ele>258.0</ele><time>2026-03-24T17:32:52.299Z</time></trkpt><trkpt lat="43.3963783" lon="11.7825017"><ele>258.0</ele><time>2026-03-24T17:32:53.298Z</time></trkpt><trkpt lat="43.39633" lon="11.7825683"><ele>258.0</ele><time>2026-03-24T17:32:54.299Z</time></trkpt><trkpt lat="43.3962817" lon="11.782635"><ele>258.0</ele><time>2026-03-24T17:32:55.297Z</time></trkpt><trkpt lat="43.396235" lon="11.782705"><ele>257.99999999999994</ele><time>2026-03-24T17:32:56.298Z</time></trkpt><trkpt lat="43.3961883" lon="11.7827733"><ele>258.0</ele><time>2026-03-24T17:32:57.299Z</time></trkpt><trkpt lat="43.3961417" lon="11.78284"><ele>257.99999999999994</ele><time>2026-03-24T17:32:58.298Z</time></trkpt><trkpt lat="43.3960967" lon="11.7829067"><ele>258.0</ele><time>2026-03-24T17:32:59.297Z</time></trkpt><trkpt lat="43.3960517" lon="11.7829733"><ele>258.0</ele><time>2026-03-24T17:33:00.301Z</time></trkpt><trkpt lat="43.3960067" lon="11.7830383"><ele>258.0</ele><time>2026-03-24T17:33:01.3Z</time></trkpt><trkpt lat="43.3959633" lon="11.7831033"><ele>258.0</ele><time>2026-03-24T17:33:02.299Z</time></trkpt><trkpt lat="43.39592" lon="11.7831683"><ele>257.99999999999994</ele><time>2026-03-24T17:33:03.297Z</time></trkpt><trkpt lat="43.395875" lon="11.7832317"><ele>258.0</ele><time>2026-03-24T17:33:04.301Z</time></trkpt><trkpt lat="43.3958317" lon="11.7832967"><ele>258.0</ele><time>2026-03-24T17:33:05.3Z</time></trkpt><trkpt lat="43.3957883" lon="11.7833617"><ele>258.0</ele><time>2026-03-24T17:33:06.301Z</time></trkpt><trkpt lat="43.3957067" lon="11.783495"><ele>258.0</ele><time>2026-03-24T17:33:08.299Z</time></trkpt><trkpt lat="43.3956317" lon="11.783635"><ele>258.0</ele><time>2026-03-24T17:33:10.297Z</time></trkpt><trkpt lat="43.3955617" lon="11.7837783"><ele>258.0</ele><time>2026-03-24T17:33:12.297Z</time></trkpt><trkpt lat="43.39549" lon="11.7839183"><ele>258.0</ele><time>2026-03-24T17:33:14.299Z</time></trkpt><trkpt lat="43.39542" lon="11.78406"><ele>258.0</ele><time>2026-03-24T17:33:16.298Z</time></trkpt><trkpt lat="43.395355" lon="11.7842"><ele>258.0</ele><time>2026-03-24T17:33:18.298Z</time></trkpt><trkpt lat="43.3952883" lon="11.7843417"><ele>258.0</ele><time>2026-03-24T17:33:20.299Z</time></trkpt><trkpt lat="43.3952167" lon="11.7844783"><ele>258.0</ele><time>2026-03-24T17:33:22.299Z</time></trkpt><trkpt lat="43.39515" lon="11.7846167"><ele>258.0</ele><time>2026-03-24T17:33:24.298Z</time></trkpt><trkpt lat="43.39508" lon="11.7847533"><ele>258.0</ele><time>2026-03-24T17:33:26.3Z</time></trkpt><trkpt lat="43.3950167" lon="11.784885"><ele>258.0</ele><time>2026-03-24T17:33:28.3Z</time></trkpt><trkpt lat="43.3949583" lon="11.7850233"><ele>258.0</ele><time>2026-03-24T17:33:30.298Z</time></trkpt><trkpt lat="43.3948983" lon="11.7851583"><ele>258.0</ele><time>2026-03-24T17:33:32.298Z</time></trkpt><trkpt lat="43.3948333" lon="11.78529"><ele>258.0</ele><time>2026-03-24T17:33:34.298Z</time></trkpt><trkpt lat="43.39477" lon="11.7854183"><ele>258.0</ele><time>2026-03-24T17:33:36.297Z</time></trkpt><trkpt lat="43.3947033" lon="11.7855517"><ele>257.6</ele><time>2026-03-24T17:33:38.298Z</time></trkpt><trkpt lat="43.3946367" lon="11.7856833"><ele>257.20000000000005</ele><time>2026-03-24T17:33:40.3Z</time></trkpt><trkpt lat="43.3945767" lon="11.7858183"><ele>256.8</ele><time>2026-03-24T17:33:42.298Z</time></trkpt><trkpt lat="43.3945183" lon="11.7859483"><ele>256.40000000000003</ele><time>2026-03-24T17:33:44.299Z</time></trkpt><trkpt lat="43.39446" lon="11.7860683"><ele>256.0</ele><time>2026-03-24T17:33:46.3Z</time></trkpt><trkpt lat="43.3944067" lon="11.786195"><ele>256.0</ele><time>2026-03-24T17:33:48.298Z</time></trkpt><trkpt lat="43.3943467" lon="11.7863133"><ele>256.0</ele><time>2026-03-24T17:33:50.297Z</time></trkpt><trkpt lat="43.3942933" lon="11.7864267"><ele>256.0</ele><time>2026-03-24T17:33:52.301Z</time></trkpt><trkpt lat="43.3942467" lon="11.7865433"><ele>256.0</ele><time>2026-03-24T17:33:54.298Z</time></trkpt><trkpt lat="43.39421" lon="11.7866633"><ele>256.0</ele><time>2026-03-24T17:33:56.301Z</time></trkpt><trkpt lat="43.3941767" lon="11.7867883"><ele>256.2</ele><time>2026-03-24T17:33:58.298Z</time></trkpt><trkpt lat="43.394145" lon="11.7869133"><ele>256.40000000000003</ele><time>2026-03-24T17:34:00.299Z</time></trkpt><trkpt lat="43.3941133" lon="11.78704"><ele>256.6</ele><time>2026-03-24T17:34:02.3Z</time></trkpt><trkpt lat="43.394085" lon="11.78715"><ele>256.8</ele><time>2026-03-24T17:34:04.301Z</time></trkpt><trkpt lat="43.3940167" lon="11.787265"><ele>257.0</ele><time>2026-03-24T17:34:42.299Z</time></trkpt><trkpt lat="43.3939517" lon="11.7873267"><ele>257.0</ele><time>2026-03-24T17:34:47.299Z</time></trkpt><trkpt lat="43.3938833" lon="11.7873133"><ele>257.0</ele><time>2026-03-24T17:34:50.3Z</time></trkpt><trkpt lat="43.39379" lon="11.787275"><ele>257.0</ele><time>2026-03-24T17:34:53.298Z</time></trkpt><trkpt lat="43.3937217" lon="11.78724"><ele>257.0</ele><time>2026-03-24T17:34:55.3Z</time></trkpt><trkpt lat="43.3936483" lon="11.787205"><ele>257.0</ele><time>2026-03-24T17:34:57.3Z</time></trkpt><trkpt lat="43.3935767" lon="11.7871667"><ele>257.0</ele><time>2026-03-24T17:34:59.298Z</time></trkpt><trkpt lat="43.3935083" lon="11.7871317"><ele>257.0</ele><time>2026-03-24T17:35:01.3Z</time></trkpt><trkpt lat="43.3934433" lon="11.7870917"><ele>257.0</ele><time>2026-03-24T17:35:03.3Z</time></trkpt><trkpt lat="43.3933767" lon="11.7870583"><ele>257.0</ele><time>2026-03-24T17:35:05.3Z</time></trkpt><trkpt lat="43.3933133" lon="11.7870233"><ele>257.0</ele><time>2026-03-24T17:35:07.3Z</time></trkpt><trkpt lat="43.3932283" lon="11.7869733"><ele>257.0</ele><time>2026-03-24T17:35:10.302Z</time></trkpt><trkpt lat="43.3931483" lon="11.786905"><ele>257.0</ele><time>2026-03-24T17:35:13.297Z</time></trkpt><trkpt lat="43.3930917" lon="11.7868667"><ele>257.1666666666667</ele><time>2026-03-24T17:35:15.298Z</time></trkpt><trkpt lat="43.3930383" lon="11.786795"><ele>257.33333333333337</ele><time>2026-03-24T17:35:18.298Z</time></trkpt><trkpt lat="43.3929883" lon="11.786705"><ele>257.5</ele><time>2026-03-24T17:35:21.3Z</time></trkpt><trkpt lat="43.392945" lon="11.7866333"><ele>257.6666666666667</ele><time>2026-03-24T17:35:24.298Z</time></trkpt><trkpt lat="43.3929183" lon="11.7865283"><ele>257.8333333333333</ele><time>2026-03-24T17:35:27.298Z</time></trkpt><trkpt lat="43.39291" lon="11.7864217"><ele>258.0</ele><time>2026-03-24T17:35:30.299Z</time></trkpt><trkpt lat="43.3928883" lon="11.7863183"><ele>258.99999999999994</ele><time>2026-03-24T17:35:33.297Z</time></trkpt><trkpt lat="43.3928333" lon="11.7862333"><ele>260.0</ele><time>2026-03-24T17:35:37.299Z</time></trkpt><trkpt lat="43.39277" lon="11.7861617"><ele>261.0</ele><time>2026-03-24T17:35:41.298Z</time></trkpt><trkpt lat="43.3927117" lon="11.7860967"><ele>262.0</ele><time>2026-03-24T17:35:44.301Z</time></trkpt><trkpt lat="43.3926633" lon="11.7860367"><ele>263.0</ele><time>2026-03-24T17:35:47.3Z</time></trkpt><trkpt lat="43.392595" lon="11.785985"><ele>263.99999999999994</ele><time>2026-03-24T17:35:51.298Z</time></trkpt><trkpt lat="43.39253" lon="11.78597"><ele>265.0</ele><time>2026-03-24T17:35:54.298Z</time></trkpt><trkpt lat="43.3924383" lon="11.7859783"><ele>265.3333333333333</ele><time>2026-03-24T17:35:57.299Z</time></trkpt><trkpt lat="43.392375" lon="11.7859833"><ele>265.66666666666663</ele><time>2026-03-24T17:36:00.298Z</time></trkpt><trkpt lat="43.3923017" lon="11.7859767"><ele>266.0</ele><time>2026-03-24T17:36:04.299Z</time></trkpt><trkpt lat="43.3922233" lon="11.7859667"><ele>266.3333333333333</ele><time>2026-03-24T17:36:08.299Z</time></trkpt><trkpt lat="43.392145" lon="11.7859283"><ele>266.6666666666667</ele><time>2026-03-24T17:36:12.302Z</time></trkpt><trkpt lat="43.39207" lon="11.78589"><ele>267.0</ele><time>2026-03-24T17:36:16.298Z</time></trkpt><trkpt lat="43.39201" lon="11.7858317"><ele>267.1666666666667</ele><time>2026-03-24T17:36:19.3Z</time></trkpt><trkpt lat="43.3919617" lon="11.7857683"><ele>267.3333333333333</ele><time>2026-03-24T17:36:21.298Z</time></trkpt><trkpt lat="43.3918883" lon="11.78571"><ele>267.5</ele><time>2026-03-24T17:36:24.301Z</time></trkpt><trkpt lat="43.39181" lon="11.7856683"><ele>267.66666666666663</ele><time>2026-03-24T17:36:27.3Z</time></trkpt><trkpt lat="43.3917333" lon="11.78568"><ele>267.8333333333333</ele><time>2026-03-24T17:36:30.299Z</time></trkpt><trkpt lat="43.3916667" lon="11.78573"><ele>268.0</ele><time>2026-03-24T17:36:33.298Z</time></trkpt><trkpt lat="43.391615" lon="11.7858017"><ele>268.0</ele><time>2026-03-24T17:36:36.3Z</time></trkpt><trkpt lat="43.3915467" lon="11.785865"><ele>268.0</ele><time>2026-03-24T17:36:39.298Z</time></trkpt><trkpt lat="43.3915067" lon="11.7859883"><ele>268.0</ele><time>2026-03-24T17:36:41.298Z</time></trkpt><trkpt lat="43.3914767" lon="11.78612"><ele>268.0</ele><time>2026-03-24T17:36:43.297Z</time></trkpt><trkpt lat="43.3914417" lon="11.7862017"><ele>268.0</ele><time>2026-03-24T17:36:45.3Z</time></trkpt><trkpt lat="43.3914033" lon="11.78629"><ele>268.0</ele><time>2026-03-24T17:36:47.297Z</time></trkpt><trkpt lat="43.391365" lon="11.78638"><ele>267.8333333333333</ele><time>2026-03-24T17:36:49.297Z</time></trkpt><trkpt lat="43.3913317" lon="11.7864667"><ele>267.66666666666663</ele><time>2026-03-24T17:36:51.298Z</time></trkpt><trkpt lat="43.3912917" lon="11.7865683"><ele>267.5</ele><time>2026-03-24T17:36:53.299Z</time></trkpt><trkpt lat="43.3912467" lon="11.786645"><ele>267.3333333333333</ele><time>2026-03-24T17:36:55.296Z</time></trkpt><trkpt lat="43.39118" lon="11.7866167"><ele>267.1666666666667</ele><time>2026-03-24T17:36:58.297Z</time></trkpt><trkpt lat="43.3911317" lon="11.7865567"><ele>267.0</ele><time>2026-03-24T17:37:00.298Z</time></trkpt><trkpt lat="43.3910933" lon="11.7864367"><ele>267.00000000000006</ele><time>2026-03-24T17:37:03.295Z</time></trkpt><trkpt lat="43.3910583" lon="11.78635"><ele>267.0</ele><time>2026-03-24T17:37:05.297Z</time></trkpt><trkpt lat="43.3910217" lon="11.7862783"><ele>267.0</ele><time>2026-03-24T17:37:07.298Z</time></trkpt><trkpt lat="43.3909817" lon="11.786195"><ele>267.0</ele><time>2026-03-24T17:37:09.296Z</time></trkpt><trkpt lat="43.3909367" lon="11.786115"><ele>267.0</ele><time>2026-03-24T17:37:11.299Z</time></trkpt><trkpt lat="43.390895" lon="11.786045"><ele>267.00000000000006</ele><time>2026-03-24T17:37:13.299Z</time></trkpt><trkpt lat="43.3908133" lon="11.78598"><ele>267.0</ele><time>2026-03-24T17:37:16.299Z</time></trkpt><trkpt lat="43.3907383" lon="11.7859783"><ele>267.0</ele><time>2026-03-24T17:37:18.3Z</time></trkpt><trkpt lat="43.3906633" lon="11.7860033"><ele>267.0</ele><time>2026-03-24T17:37:20.297Z</time></trkpt><trkpt lat="43.3905917" lon="11.7860667"><ele>267.0</ele><time>2026-03-24T17:37:23.296Z</time></trkpt><trkpt lat="43.390515" lon="11.7861217"><ele>267.0</ele><time>2026-03-24T17:37:26.298Z</time></trkpt><trkpt lat="43.390455" lon="11.7861617"><ele>267.0</ele><time>2026-03-24T17:37:28.297Z</time></trkpt><trkpt lat="43.3903883" lon="11.7862"><ele>267.0</ele><time>2026-03-24T17:37:30.296Z</time></trkpt><trkpt lat="43.390325" lon="11.7862467"><ele>267.00000000000006</ele><time>2026-03-24T17:37:32.298Z</time></trkpt><trkpt lat="43.3902667" lon="11.7862833"><ele>267.0</ele><time>2026-03-24T17:37:34.296Z</time></trkpt><trkpt lat="43.390205" lon="11.7863283"><ele>267.0</ele><time>2026-03-24T17:37:36.3Z</time></trkpt><trkpt lat="43.3901467" lon="11.786385"><ele>267.0</ele><time>2026-03-24T17:37:38.296Z</time></trkpt><trkpt lat="43.3900933" lon="11.7864367"><ele>267.0</ele><time>2026-03-24T17:37:40.299Z</time></trkpt><trkpt lat="43.3900233" lon="11.7865"><ele>267.00000000000006</ele><time>2026-03-24T17:37:43.298Z</time></trkpt><trkpt lat="43.3899583" lon="11.7865733"><ele>267.0</ele><time>2026-03-24T17:37:46.299Z</time></trkpt><trkpt lat="43.3899083" lon="11.78663"><ele>267.0</ele><time>2026-03-24T17:37:48.299Z</time></trkpt><trkpt lat="43.3898467" lon="11.786695"><ele>267.0</ele><time>2026-03-24T17:37:50.298Z</time></trkpt><trkpt lat="43.3897683" lon="11.786745"><ele>267.0</ele><time>2026-03-24T17:37:52.296Z</time></trkpt><trkpt lat="43.3896817" lon="11.7868017"><ele>267.0</ele><time>2026-03-24T17:37:54.296Z</time></trkpt><trkpt lat="43.3895833" lon="11.7868533"><ele>267.0</ele><time>2026-03-24T17:37:56.299Z</time></trkpt><trkpt lat="43.3894717" lon="11.786935"><ele>266.5</ele><time>2026-03-24T17:37:58.299Z</time></trkpt><trkpt lat="43.3893617" lon="11.7870033"><ele>266.0</ele><time>2026-03-24T17:38:00.296Z</time></trkpt><trkpt lat="43.38929" lon="11.7870367"><ele>265.5</ele><time>2026-03-24T17:38:01.299Z</time></trkpt><trkpt lat="43.3892233" lon="11.7870683"><ele>265.0</ele><time>2026-03-24T17:38:02.297Z</time></trkpt><trkpt lat="43.3891567" lon="11.7871"><ele>264.5</ele><time>2026-03-24T17:38:03.295Z</time></trkpt><trkpt lat="43.3890817" lon="11.787125"><ele>264.0</ele><time>2026-03-24T17:38:04.295Z</time></trkpt><trkpt lat="43.3890083" lon="11.7871433"><ele>264.0</ele><time>2026-03-24T17:38:05.296Z</time></trkpt><trkpt lat="43.3889333" lon="11.7871583"><ele>264.0</ele><time>2026-03-24T17:38:06.296Z</time></trkpt><trkpt lat="43.3888583" lon="11.7871533"><ele>264.0</ele><time>2026-03-24T17:38:07.296Z</time></trkpt><trkpt lat="43.388785" lon="11.7871283"><ele>264.0</ele><time>2026-03-24T17:38:08.299Z</time></trkpt><trkpt lat="43.3887167" lon="11.7870967"><ele>264.0</ele><time>2026-03-24T17:38:09.296Z</time></trkpt><trkpt lat="43.3886483" lon="11.7870467"><ele>264.0</ele><time>2026-03-24T17:38:10.301Z</time></trkpt><trkpt lat="43.3885833" lon="11.7870033"><ele>264.0</ele><time>2026-03-24T17:38:11.299Z</time></trkpt><trkpt lat="43.3885267" lon="11.78695"><ele>264.0</ele><time>2026-03-24T17:38:12.296Z</time></trkpt><trkpt lat="43.3884733" lon="11.78689"><ele>264.0</ele><time>2026-03-24T17:38:13.297Z</time></trkpt><trkpt lat="43.3883683" lon="11.7868067"><ele>264.0</ele><time>2026-03-24T17:38:15.298Z</time></trkpt><trkpt lat="43.388275" lon="11.78674"><ele>264.0</ele><time>2026-03-24T17:38:17.298Z</time></trkpt><trkpt lat="43.3881867" lon="11.7866733"><ele>264.0</ele><time>2026-03-24T17:38:19.299Z</time></trkpt><trkpt lat="43.388105" lon="11.7866167"><ele>264.0</ele><time>2026-03-24T17:38:21.3Z</time></trkpt><trkpt lat="43.3880367" lon="11.78656"><ele>264.0</ele><time>2026-03-24T17:38:23.295Z</time></trkpt><trkpt lat="43.387975" lon="11.7864933"><ele>264.0</ele><time>2026-03-24T17:38:26.297Z</time></trkpt><trkpt lat="43.3880267" lon="11.7865717"><ele>264.0</ele><time>2026-03-24T17:38:36.297Z</time></trkpt><trkpt lat="43.3880783" lon="11.786625"><ele>264.0</ele><time>2026-03-24T17:38:38.298Z</time></trkpt><trkpt lat="43.3881433" lon="11.7866767"><ele>264.0</ele><time>2026-03-24T17:38:40.297Z</time></trkpt><trkpt lat="43.3881983" lon="11.7867467"><ele>264.1666666666667</ele><time>2026-03-24T17:38:42.298Z</time></trkpt><trkpt lat="43.38819" lon="11.786865"><ele>264.3333333333333</ele><time>2026-03-24T17:38:44.301Z</time></trkpt><trkpt lat="43.3881483" lon="11.7869633"><ele>264.5</ele><time>2026-03-24T17:38:46.299Z</time></trkpt><trkpt lat="43.3881283" lon="11.7870517"><ele>264.66666666666663</ele><time>2026-03-24T17:38:48.301Z</time></trkpt><trkpt lat="43.38811" lon="11.787185"><ele>264.8333333333333</ele><time>2026-03-24T17:38:50.302Z</time></trkpt><trkpt lat="43.388155" lon="11.7873083"><ele>265.0</ele><time>2026-03-24T17:38:53.299Z</time></trkpt><trkpt lat="43.3882133" lon="11.7874033"><ele>265.0</ele><time>2026-03-24T17:38:55.298Z</time></trkpt><trkpt lat="43.3882417" lon="11.7875183"><ele>265.0</ele><time>2026-03-24T17:38:57.302Z</time></trkpt><trkpt lat="43.388225" lon="11.787625"><ele>265.0</ele><time>2026-03-24T17:38:59.3Z</time></trkpt><trkpt lat="43.3881833" lon="11.7876933"><ele>265.0</ele><time>2026-03-24T17:39:01.3Z</time></trkpt><trkpt lat="43.3881183" lon="11.7877767"><ele>265.0</ele><time>2026-03-24T17:39:04.297Z</time></trkpt><trkpt lat="43.3880517" lon="11.7878233"><ele>265.0</ele><time>2026-03-24T17:39:07.297Z</time></trkpt><trkpt lat="43.3879933" lon="11.7878633"><ele>265.16666666666663</ele><time>2026-03-24T17:39:09.3Z</time></trkpt><trkpt lat="43.3879317" lon="11.7879033"><ele>265.3333333333333</ele><time>2026-03-24T17:39:11.299Z</time></trkpt><trkpt lat="43.3878667" lon="11.787935"><ele>265.5</ele><time>2026-03-24T17:39:13.297Z</time></trkpt><trkpt lat="43.3878" lon="11.7879583"><ele>265.6666666666667</ele><time>2026-03-24T17:39:15.304Z</time></trkpt><trkpt lat="43.387705" lon="11.7879817"><ele>265.83333333333337</ele><time>2026-03-24T17:39:18.298Z</time></trkpt><trkpt lat="43.3876283" lon="11.7879967"><ele>266.0</ele><time>2026-03-24T17:39:20.299Z</time></trkpt><trkpt lat="43.3875517" lon="11.7880083"><ele>266.0</ele><time>2026-03-24T17:39:22.3Z</time></trkpt><trkpt lat="43.3874833" lon="11.7880117"><ele>266.0</ele><time>2026-03-24T17:39:24.299Z</time></trkpt><trkpt lat="43.38742" lon="11.7880117"><ele>266.0</ele><time>2026-03-24T17:39:26.298Z</time></trkpt><trkpt lat="43.387355" lon="11.7880117"><ele>266.0</ele><time>2026-03-24T17:39:28.3Z</time></trkpt><trkpt lat="43.3872883" lon="11.78801"><ele>266.0</ele><time>2026-03-24T17:39:30.299Z</time></trkpt><trkpt lat="43.3872" lon="11.78801"><ele>266.0</ele><time>2026-03-24T17:39:33.298Z</time></trkpt><trkpt lat="43.3871133" lon="11.7880167"><ele>266.0</ele><time>2026-03-24T17:39:36.297Z</time></trkpt><trkpt lat="43.3870267" lon="11.7880067"><ele>266.0</ele><time>2026-03-24T17:39:39.301Z</time></trkpt><trkpt lat="43.3869383" lon="11.788005"><ele>266.0</ele><time>2026-03-24T17:39:42.302Z</time></trkpt><trkpt lat="43.3868667" lon="11.7880167"><ele>266.0</ele><time>2026-03-24T17:39:44.298Z</time></trkpt><trkpt lat="43.3867933" lon="11.7880233"><ele>266.0</ele><time>2026-03-24T17:39:46.3Z</time></trkpt><trkpt lat="43.3867083" lon="11.7880433"><ele>266.0</ele><time>2026-03-24T17:39:48.298Z</time></trkpt><trkpt lat="43.38661" lon="11.788085"><ele>266.0</ele><time>2026-03-24T17:39:50.3Z</time></trkpt><trkpt lat="43.3865133" lon="11.788165"><ele>266.0</ele><time>2026-03-24T17:39:52.301Z</time></trkpt><trkpt lat="43.3864167" lon="11.78828"><ele>266.0</ele><time>2026-03-24T17:39:54.3Z</time></trkpt><trkpt lat="43.3863667" lon="11.7883517"><ele>266.0</ele><time>2026-03-24T17:39:55.299Z</time></trkpt><trkpt lat="43.3863167" lon="11.7884283"><ele>266.0</ele><time>2026-03-24T17:39:56.299Z</time></trkpt><trkpt lat="43.38626" lon="11.788505"><ele>266.0</ele><time>2026-03-24T17:39:57.299Z</time></trkpt><trkpt lat="43.3861967" lon="11.78858"><ele>266.0</ele><time>2026-03-24T17:39:58.298Z</time></trkpt><trkpt lat="43.3861283" lon="11.7886533"><ele>264.6</ele><time>2026-03-24T17:39:59.299Z</time></trkpt><trkpt lat="43.3860517" lon="11.7887167"><ele>263.20000000000005</ele><time>2026-03-24T17:40:00.298Z</time></trkpt><trkpt lat="43.3859683" lon="11.7887783"><ele>261.79999999999995</ele><time>2026-03-24T17:40:01.299Z</time></trkpt><trkpt lat="43.3858833" lon="11.7888333"><ele>260.4</ele><time>2026-03-24T17:40:02.299Z</time></trkpt><trkpt lat="43.3857967" lon="11.7888883"><ele>259.0</ele><time>2026-03-24T17:40:03.298Z</time></trkpt><trkpt lat="43.3857067" lon="11.7889417"><ele>259.0</ele><time>2026-03-24T17:40:04.297Z</time></trkpt><trkpt lat="43.38562" lon="11.7889933"><ele>259.0</ele><time>2026-03-24T17:40:05.299Z</time></trkpt><trkpt lat="43.385535" lon="11.7890517"><ele>259.0</ele><time>2026-03-24T17:40:06.299Z</time></trkpt><trkpt lat="43.3854517" lon="11.789115"><ele>259.0</ele><time>2026-03-24T17:40:07.299Z</time></trkpt><trkpt lat="43.3853733" lon="11.7891817"><ele>259.0</ele><time>2026-03-24T17:40:08.299Z</time></trkpt><trkpt lat="43.3853" lon="11.7892517"><ele>259.0</ele><time>2026-03-24T17:40:09.299Z</time></trkpt><trkpt lat="43.3852367" lon="11.789325"><ele>259.0</ele><time>2026-03-24T17:40:10.298Z</time></trkpt><trkpt lat="43.3851783" lon="11.7893983"><ele>259.0</ele><time>2026-03-24T17:40:11.298Z</time></trkpt><trkpt lat="43.3851233" lon="11.789465"><ele>259.0</ele><time>2026-03-24T17:40:12.298Z</time></trkpt><trkpt lat="43.3850717" lon="11.7895233"><ele>259.0</ele><time>2026-03-24T17:40:13.3Z</time></trkpt><trkpt lat="43.3849633" lon="11.7895983"><ele>259.0</ele><time>2026-03-24T17:40:15.3Z</time></trkpt><trkpt lat="43.3848633" lon="11.7896317"><ele>259.5</ele><time>2026-03-24T17:40:17.301Z</time></trkpt><trkpt lat="43.3847633" lon="11.7896383"><ele>260.0</ele><time>2026-03-24T17:40:19.299Z</time></trkpt><trkpt lat="43.3846717" lon="11.7896467"><ele>260.5</ele><time>2026-03-24T17:40:21.297Z</time></trkpt><trkpt lat="43.38458" lon="11.789655"><ele>261.0</ele><time>2026-03-24T17:40:23.298Z</time></trkpt><trkpt lat="43.3845017" lon="11.7896617"><ele>261.5</ele><time>2026-03-24T17:40:25.303Z</time></trkpt><trkpt lat="43.3844283" lon="11.78967"><ele>262.0</ele><time>2026-03-24T17:40:27.3Z</time></trkpt><trkpt lat="43.3843633" lon="11.78968"><ele>262.5</ele><time>2026-03-24T17:40:29.298Z</time></trkpt><trkpt lat="43.3842917" lon="11.789705"><ele>263.0</ele><time>2026-03-24T17:40:32.298Z</time></trkpt><trkpt lat="43.3842233" lon="11.7897417"><ele>263.5</ele><time>2026-03-24T17:40:35.298Z</time></trkpt><trkpt lat="43.3841467" lon="11.7897517"><ele>264.0</ele><time>2026-03-24T17:40:38.298Z</time></trkpt><trkpt lat="43.384065" lon="11.7897483"><ele>264.5</ele><time>2026-03-24T17:40:41.297Z</time></trkpt><trkpt lat="43.383975" lon="11.7897167"><ele>265.0</ele><time>2026-03-24T17:40:44.299Z</time></trkpt><trkpt lat="43.3839067" lon="11.789705"><ele>265.5</ele><time>2026-03-24T17:40:46.298Z</time></trkpt><trkpt lat="43.3838333" lon="11.78969"><ele>266.0</ele><time>2026-03-24T17:40:48.298Z</time></trkpt><trkpt lat="43.3837567" lon="11.78968"><ele>266.5</ele><time>2026-03-24T17:40:50.297Z</time></trkpt><trkpt lat="43.3836767" lon="11.78967"><ele>267.0</ele><time>2026-03-24T17:40:52.3Z</time></trkpt><trkpt lat="43.38359" lon="11.7896617"><ele>267.5</ele><time>2026-03-24T17:40:54.299Z</time></trkpt><trkpt lat="43.3835033" lon="11.7896483"><ele>268.0</ele><time>2026-03-24T17:40:56.298Z</time></trkpt><trkpt lat="43.383425" lon="11.78963"><ele>268.0</ele><time>2026-03-24T17:40:58.3Z</time></trkpt><trkpt lat="43.38335" lon="11.789605"><ele>268.0</ele><time>2026-03-24T17:41:00.299Z</time></trkpt><trkpt lat="43.383285" lon="11.789565"><ele>268.0</ele><time>2026-03-24T17:41:02.298Z</time></trkpt><trkpt lat="43.3832233" lon="11.7895"><ele>268.0</ele><time>2026-03-24T17:41:04.298Z</time></trkpt><trkpt lat="43.3831633" lon="11.78943"><ele>268.0</ele><time>2026-03-24T17:41:06.299Z</time></trkpt><trkpt lat="43.383095" lon="11.7893667"><ele>268.0</ele><time>2026-03-24T17:41:08.299Z</time></trkpt><trkpt lat="43.3830267" lon="11.7893083"><ele>268.0</ele><time>2026-03-24T17:41:10.298Z</time></trkpt><trkpt lat="43.382955" lon="11.78925"><ele>268.0</ele><time>2026-03-24T17:41:12.297Z</time></trkpt><trkpt lat="43.3828933" lon="11.7891917"><ele>268.0</ele><time>2026-03-24T17:41:14.297Z</time></trkpt><trkpt lat="43.3828333" lon="11.78914"><ele>268.0</ele><time>2026-03-24T17:41:16.299Z</time></trkpt><trkpt lat="43.382775" lon="11.7891017"><ele>268.0</ele><time>2026-03-24T17:41:18.299Z</time></trkpt><trkpt lat="43.3827167" lon="11.7890667"><ele>268.0</ele><time>2026-03-24T17:41:20.303Z</time></trkpt><trkpt lat="43.3826583" lon="11.7890233"><ele>268.0</ele><time>2026-03-24T17:41:22.301Z</time></trkpt><trkpt lat="43.3825983" lon="11.78899"><ele>268.0</ele><time>2026-03-24T17:41:24.299Z</time></trkpt><trkpt lat="43.38254" lon="11.7889517"><ele>268.0</ele><time>2026-03-24T17:41:26.298Z</time></trkpt><trkpt lat="43.3824533" lon="11.788895"><ele>268.0</ele><time>2026-03-24T17:41:29.3Z</time></trkpt><trkpt lat="43.3824" lon="11.7888483"><ele>268.0</ele><time>2026-03-24T17:41:31.3Z</time></trkpt><trkpt lat="43.3823333" lon="11.7887567"><ele>268.0</ele><time>2026-03-24T17:41:34.297Z</time></trkpt><trkpt lat="43.3822933" lon="11.7886867"><ele>268.0</ele><time>2026-03-24T17:41:36.297Z</time></trkpt><trkpt lat="43.3822567" lon="11.7886133"><ele>268.0</ele><time>2026-03-24T17:41:38.298Z</time></trkpt><trkpt lat="43.3822183" lon="11.7885383"><ele>268.0</ele><time>2026-03-24T17:41:40.298Z</time></trkpt><trkpt lat="43.382185" lon="11.78846"><ele>268.0</ele><time>2026-03-24T17:41:42.302Z</time></trkpt><trkpt lat="43.38215" lon="11.7883817"><ele>268.0</ele><time>2026-03-24T17:41:44.298Z</time></trkpt><trkpt lat="43.3821167" lon="11.7883017"><ele>268.0</ele><time>2026-03-24T17:41:46.301Z</time></trkpt><trkpt lat="43.3820833" lon="11.788225"><ele>268.0</ele><time>2026-03-24T17:41:48.3Z</time></trkpt><trkpt lat="43.3820517" lon="11.78815"><ele>268.0</ele><time>2026-03-24T17:41:50.303Z</time></trkpt><trkpt lat="43.3820067" lon="11.78805"><ele>268.0</ele><time>2026-03-24T17:41:53.299Z</time></trkpt><trkpt lat="43.3819533" lon="11.7879583"><ele>268.14285714285717</ele><time>2026-03-24T17:41:56.3Z</time></trkpt><trkpt lat="43.381895" lon="11.7878633"><ele>268.2857142857143</ele><time>2026-03-24T17:41:59.299Z</time></trkpt><trkpt lat="43.3818517" lon="11.7877933"><ele>268.42857142857144</ele><time>2026-03-24T17:42:01.3Z</time></trkpt><trkpt lat="43.381805" lon="11.78772"><ele>268.57142857142856</ele><time>2026-03-24T17:42:03.3Z</time></trkpt><trkpt lat="43.3817617" lon="11.787645"><ele>268.7142857142857</ele><time>2026-03-24T17:42:05.298Z</time></trkpt><trkpt lat="43.38172" lon="11.787565"><ele>268.8571428571429</ele><time>2026-03-24T17:42:07.3Z</time></trkpt><trkpt lat="43.3816717" lon="11.78748"><ele>269.0</ele><time>2026-03-24T17:42:09.299Z</time></trkpt><trkpt lat="43.381625" lon="11.7873983"><ele>269.2857142857143</ele><time>2026-03-24T17:42:11.301Z</time></trkpt><trkpt lat="43.3815817" lon="11.7873217"><ele>269.5714285714286</ele><time>2026-03-24T17:42:13.298Z</time></trkpt><trkpt lat="43.3815383" lon="11.7872383"><ele>269.8571428571429</ele><time>2026-03-24T17:42:15.299Z</time></trkpt><trkpt lat="43.3814917" lon="11.7871617"><ele>270.14285714285717</ele><time>2026-03-24T17:42:17.299Z</time></trkpt><trkpt lat="43.3814467" lon="11.7870833"><ele>270.42857142857144</ele><time>2026-03-24T17:42:19.3Z</time></trkpt><trkpt lat="43.3813983" lon="11.787"><ele>270.7142857142857</ele><time>2026-03-24T17:42:21.299Z</time></trkpt><trkpt lat="43.38135" lon="11.7869167"><ele>271.0</ele><time>2026-03-24T17:42:23.299Z</time></trkpt><trkpt lat="43.3813133" lon="11.7868317"><ele>271.2857142857143</ele><time>2026-03-24T17:42:25.299Z</time></trkpt><trkpt lat="43.38128" lon="11.7867517"><ele>271.57142857142856</ele><time>2026-03-24T17:42:27.299Z</time></trkpt><trkpt lat="43.3812467" lon="11.7866717"><ele>271.8571428571429</ele><time>2026-03-24T17:42:29.3Z</time></trkpt><trkpt lat="43.3812167" lon="11.7865917"><ele>272.1428571428571</ele><time>2026-03-24T17:42:31.298Z</time></trkpt><trkpt lat="43.3811883" lon="11.7865133"><ele>272.42857142857144</ele><time>2026-03-24T17:42:33.299Z</time></trkpt><trkpt lat="43.381165" lon="11.7864267"><ele>272.7142857142857</ele><time>2026-03-24T17:42:35.3Z</time></trkpt><trkpt lat="43.3811383" lon="11.7863383"><ele>273.0</ele><time>2026-03-24T17:42:37.298Z</time></trkpt><trkpt lat="43.38111" lon="11.786245"><ele>273.0</ele><time>2026-03-24T17:42:39.299Z</time></trkpt><trkpt lat="43.3810833" lon="11.7861533"><ele>273.0</ele><time>2026-03-24T17:42:41.299Z</time></trkpt><trkpt lat="43.381065" lon="11.7860667"><ele>273.0</ele><time>2026-03-24T17:42:43.299Z</time></trkpt><trkpt lat="43.3810417" lon="11.7859817"><ele>273.0</ele><time>2026-03-24T17:42:45.301Z</time></trkpt><trkpt lat="43.3810133" lon="11.7859"><ele>273.0</ele><time>2026-03-24T17:42:47.297Z</time></trkpt><trkpt lat="43.3809767" lon="11.7857817"><ele>273.0</ele><time>2026-03-24T17:42:50.298Z</time></trkpt><trkpt lat="43.3809467" lon="11.7856667"><ele>272.85714285714283</ele><time>2026-03-24T17:42:53.3Z</time></trkpt><trkpt lat="43.38092" lon="11.7855867"><ele>272.7142857142857</ele><time>2026-03-24T17:42:55.299Z</time></trkpt><trkpt lat="43.380895" lon="11.7854983"><ele>272.57142857142856</ele><time>2026-03-24T17:42:57.3Z</time></trkpt><trkpt lat="43.380865" lon="11.7854033"><ele>272.42857142857144</ele><time>2026-03-24T17:42:59.3Z</time></trkpt><trkpt lat="43.3808333" lon="11.7853083"><ele>272.2857142857143</ele><time>2026-03-24T17:43:01.298Z</time></trkpt><trkpt lat="43.3807667" lon="11.785245"><ele>272.1428571428571</ele><time>2026-03-24T17:43:03.306Z</time></trkpt><trkpt lat="43.3806883" lon="11.78524"><ele>272.0</ele><time>2026-03-24T17:43:05.299Z</time></trkpt><trkpt lat="43.3806233" lon="11.7852517"><ele>272.0</ele><time>2026-03-24T17:43:07.299Z</time></trkpt><trkpt lat="43.3805517" lon="11.785255"><ele>272.0</ele><time>2026-03-24T17:43:09.301Z</time></trkpt><trkpt lat="43.3804733" lon="11.7852483"><ele>272.0</ele><time>2026-03-24T17:43:11.299Z</time></trkpt><trkpt lat="43.3803833" lon="11.7852583"><ele>272.0</ele><time>2026-03-24T17:43:13.3Z</time></trkpt><trkpt lat="43.3803" lon="11.7852667"><ele>272.0</ele><time>2026-03-24T17:43:15.303Z</time></trkpt><trkpt lat="43.38021" lon="11.7852767"><ele>272.0</ele><time>2026-03-24T17:43:17.3Z</time></trkpt><trkpt lat="43.3801133" lon="11.7852783"><ele>272.33333333333337</ele><time>2026-03-24T17:43:19.301Z</time></trkpt><trkpt lat="43.380025" lon="11.78529"><ele>272.6666666666667</ele><time>2026-03-24T17:43:21.299Z</time></trkpt><trkpt lat="43.37994" lon="11.7852983"><ele>273.0</ele><time>2026-03-24T17:43:23.298Z</time></trkpt><trkpt lat="43.3798483" lon="11.785305"><ele>273.3333333333333</ele><time>2026-03-24T17:43:25.301Z</time></trkpt><trkpt lat="43.3797633" lon="11.7853033"><ele>273.66666666666663</ele><time>2026-03-24T17:43:27.299Z</time></trkpt><trkpt lat="43.3796717" lon="11.78531"><ele>274.0</ele><time>2026-03-24T17:43:29.3Z</time></trkpt><trkpt lat="43.37958" lon="11.785315"><ele>274.2</ele><time>2026-03-24T17:43:31.301Z</time></trkpt><trkpt lat="43.3794867" lon="11.7853217"><ele>274.4</ele><time>2026-03-24T17:43:33.3Z</time></trkpt><trkpt lat="43.37939" lon="11.78533"><ele>274.6</ele><time>2026-03-24T17:43:35.301Z</time></trkpt><trkpt lat="43.3793" lon="11.7853417"><ele>274.8</ele><time>2026-03-24T17:43:37.301Z</time></trkpt><trkpt lat="43.3792017" lon="11.78535"><ele>275.0</ele><time>2026-03-24T17:43:39.3Z</time></trkpt><trkpt lat="43.3791067" lon="11.7853583"><ele>275.0</ele><time>2026-03-24T17:43:41.304Z</time></trkpt><trkpt lat="43.3790133" lon="11.785365"><ele>275.0</ele><time>2026-03-24T17:43:43.3Z</time></trkpt><trkpt lat="43.3789183" lon="11.78537"><ele>275.0</ele><time>2026-03-24T17:43:45.3Z</time></trkpt><trkpt lat="43.3788183" lon="11.785375"><ele>275.0</ele><time>2026-03-24T17:43:47.298Z</time></trkpt><trkpt lat="43.37872" lon="11.7853867"><ele>275.0</ele><time>2026-03-24T17:43:49.3Z</time></trkpt><trkpt lat="43.3786217" lon="11.785395"><ele>275.2</ele><time>2026-03-24T17:43:51.301Z</time></trkpt><trkpt lat="43.3785333" lon="11.785415"><ele>275.4</ele><time>2026-03-24T17:43:53.298Z</time></trkpt><trkpt lat="43.3784433" lon="11.785425"><ele>275.6</ele><time>2026-03-24T17:43:55.298Z</time></trkpt><trkpt lat="43.378355" lon="11.7854283"><ele>275.8</ele><time>2026-03-24T17:43:57.302Z</time></trkpt><trkpt lat="43.37826" lon="11.785435"><ele>276.0</ele><time>2026-03-24T17:43:59.298Z</time></trkpt><trkpt lat="43.3781633" lon="11.7854383"><ele>276.0</ele><time>2026-03-24T17:44:01.301Z</time></trkpt><trkpt lat="43.378065" lon="11.7854467"><ele>276.0</ele><time>2026-03-24T17:44:03.301Z</time></trkpt><trkpt lat="43.3779683" lon="11.7854567"><ele>276.0</ele><time>2026-03-24T17:44:05.3Z</time></trkpt><trkpt lat="43.3778817" lon="11.7854733"><ele>276.0</ele><time>2026-03-24T17:44:07.3Z</time></trkpt><trkpt lat="43.3777983" lon="11.7855033"><ele>276.0</ele><time>2026-03-24T17:44:09.301Z</time></trkpt><trkpt lat="43.3777067" lon="11.7855367"><ele>276.2</ele><time>2026-03-24T17:44:11.3Z</time></trkpt><trkpt lat="43.3776133" lon="11.7855733"><ele>276.40000000000003</ele><time>2026-03-24T17:44:13.3Z</time></trkpt><trkpt lat="43.377525" lon="11.7856117"><ele>276.6</ele><time>2026-03-24T17:44:15.301Z</time></trkpt><trkpt lat="43.37744" lon="11.7856483"><ele>276.8</ele><time>2026-03-24T17:44:17.299Z</time></trkpt><trkpt lat="43.3773533" lon="11.7856883"><ele>277.0</ele><time>2026-03-24T17:44:19.301Z</time></trkpt><trkpt lat="43.37727" lon="11.78573"><ele>277.0</ele><time>2026-03-24T17:44:21.301Z</time></trkpt><trkpt lat="43.3771867" lon="11.7857717"><ele>277.0</ele><time>2026-03-24T17:44:23.298Z</time></trkpt><trkpt lat="43.3771033" lon="11.7858017"><ele>277.0</ele><time>2026-03-24T17:44:25.301Z</time></trkpt><trkpt lat="43.3770233" lon="11.78582"><ele>277.0</ele><time>2026-03-24T17:44:27.3Z</time></trkpt><trkpt lat="43.3769467" lon="11.7858317"><ele>277.0</ele><time>2026-03-24T17:44:29.299Z</time></trkpt><trkpt lat="43.3768667" lon="11.7858383"><ele>277.0</ele><time>2026-03-24T17:44:31.3Z</time></trkpt><trkpt lat="43.3767883" lon="11.7858583"><ele>277.16666666666663</ele><time>2026-03-24T17:44:33.299Z</time></trkpt><trkpt lat="43.3767017" lon="11.78587"><ele>277.3333333333333</ele><time>2026-03-24T17:44:35.3Z</time></trkpt><trkpt lat="43.376625" lon="11.7858833"><ele>277.5</ele><time>2026-03-24T17:44:37.3Z</time></trkpt><trkpt lat="43.37655" lon="11.7858817"><ele>277.6666666666667</ele><time>2026-03-24T17:44:39.308Z</time></trkpt><trkpt lat="43.3764633" lon="11.7858917"><ele>277.83333333333337</ele><time>2026-03-24T17:44:41.298Z</time></trkpt><trkpt lat="43.3763617" lon="11.7859"><ele>278.0</ele><time>2026-03-24T17:44:43.303Z</time></trkpt><trkpt lat="43.3762783" lon="11.7858883"><ele>277.57142857142856</ele><time>2026-03-24T17:44:45.301Z</time></trkpt><trkpt lat="43.3762083" lon="11.7858967"><ele>277.14285714285717</ele><time>2026-03-24T17:44:47.298Z</time></trkpt><trkpt lat="43.3761183" lon="11.785905"><ele>276.7142857142857</ele><time>2026-03-24T17:44:50.3Z</time></trkpt><trkpt lat="43.3760517" lon="11.7859167"><ele>276.2857142857143</ele><time>2026-03-24T17:44:52.298Z</time></trkpt><trkpt lat="43.3759833" lon="11.7859517"><ele>275.85714285714283</ele><time>2026-03-24T17:44:54.299Z</time></trkpt><trkpt lat="43.3759217" lon="11.7860067"><ele>275.42857142857144</ele><time>2026-03-24T17:44:56.298Z</time></trkpt><trkpt lat="43.3758617" lon="11.7860583"><ele>275.0</ele><time>2026-03-24T17:44:58.3Z</time></trkpt><trkpt lat="43.3757917" lon="11.7861117"><ele>275.1666666666667</ele><time>2026-03-24T17:45:00.3Z</time></trkpt><trkpt lat="43.3757233" lon="11.7861767"><ele>275.33333333333337</ele><time>2026-03-24T17:45:02.299Z</time></trkpt><trkpt lat="43.3756567" lon="11.7862433"><ele>275.5</ele><time>2026-03-24T17:45:04.302Z</time></trkpt><trkpt lat="43.3755933" lon="11.7863117"><ele>275.6666666666667</ele><time>2026-03-24T17:45:06.3Z</time></trkpt><trkpt lat="43.3755383" lon="11.78638"><ele>275.8333333333333</ele><time>2026-03-24T17:45:08.299Z</time></trkpt><trkpt lat="43.3754867" lon="11.786445"><ele>276.0</ele><time>2026-03-24T17:45:10.299Z</time></trkpt><trkpt lat="43.3754217" lon="11.7865283"><ele>276.0</ele><time>2026-03-24T17:45:13.3Z</time></trkpt><trkpt lat="43.3753667" lon="11.7866133"><ele>276.0</ele><time>2026-03-24T17:45:17.298Z</time></trkpt><trkpt lat="43.375355" lon="11.7867017"><ele>276.0</ele><time>2026-03-24T17:45:19.301Z</time></trkpt><trkpt lat="43.375365" lon="11.7868033"><ele>276.0</ele><time>2026-03-24T17:45:21.3Z</time></trkpt><trkpt lat="43.3753717" lon="11.7868967"><ele>276.0</ele><time>2026-03-24T17:45:23.298Z</time></trkpt><trkpt lat="43.3753817" lon="11.7870183"><ele>276.0</ele><time>2026-03-24T17:45:26.299Z</time></trkpt><trkpt lat="43.375385" lon="11.7871067"><ele>276.0</ele><time>2026-03-24T17:45:28.302Z</time></trkpt><trkpt lat="43.3753883" lon="11.7871983"><ele>275.8571428571429</ele><time>2026-03-24T17:45:30.299Z</time></trkpt><trkpt lat="43.3753933" lon="11.7872933"><ele>275.7142857142857</ele><time>2026-03-24T17:45:32.297Z</time></trkpt><trkpt lat="43.3753917" lon="11.78738"><ele>275.57142857142856</ele><time>2026-03-24T17:45:34.298Z</time></trkpt><trkpt lat="43.37538" lon="11.7874667"><ele>275.42857142857144</ele><time>2026-03-24T17:45:37.301Z</time></trkpt><trkpt lat="43.3754067" lon="11.7875467"><ele>275.2857142857143</ele><time>2026-03-24T17:45:40.3Z</time></trkpt><trkpt lat="43.3754767" lon="11.7875733"><ele>275.14285714285717</ele><time>2026-03-24T17:45:43.299Z</time></trkpt><trkpt lat="43.37558" lon="11.7876333"><ele>275.0</ele><time>2026-03-24T17:46:03.302Z</time></trkpt><trkpt lat="43.3756483" lon="11.787685"><ele>274.5</ele><time>2026-03-24T17:46:07.3Z</time></trkpt><trkpt lat="43.375725" lon="11.7877217"><ele>274.0</ele><time>2026-03-24T17:46:11.299Z</time></trkpt><trkpt lat="43.3758083" lon="11.7877317"><ele>273.5</ele><time>2026-03-24T17:46:15.302Z</time></trkpt><trkpt lat="43.3758783" lon="11.7877517"><ele>273.0</ele><time>2026-03-24T17:46:18.302Z</time></trkpt><trkpt lat="43.3759483" lon="11.7877983"><ele>272.5</ele><time>2026-03-24T17:46:21.298Z</time></trkpt><trkpt lat="43.3759967" lon="11.7878783"><ele>272.0</ele><time>2026-03-24T17:46:24.298Z</time></trkpt><trkpt lat="43.3759233" lon="11.7879117"><ele>272.0</ele><time>2026-03-24T17:46:29.299Z</time></trkpt><trkpt lat="43.3758067" lon="11.787945"><ele>272.0</ele><time>2026-03-24T17:46:54.297Z</time></trkpt></trkseg></trk></gpx>